[[{"header":{"parameterUnit":"m.s-1","parameterCategory":1,"la1":31.0,"la2":29.5877,"lo1":-88.7671,"lo2":-86.6584,"dy":0.0162,"dx":0.0185,"nx":115,"ny":88,"refTime":"2025-07-05T12:00:00:Z","depth":0,"parameterNumber":2,"parameterNumberName":"U-component_of_WINDS"},"data":[0.0,0.0,0.0,0.0,0.0,0.0,0.0,0.0,0.0,0.0,0.0,0.0,0.0,0.0,0.0,0.0,0.0,0.0,0.0,0.0,0.0,0.0,0.0,0.0,0.0,0.0,0.0,0.0,0.0,0.0,0.0,0.0,0.0,0.0,0.0,0.0,0.0,0.0,0.0,0.0,0.0,0.0,0.0,0.0,0.0,0.0,0.0,0.0,0.0,0.0,0.0,0.0,0.0,0.0,0.0,0.0,0.0,0.0,0.0,0.0,0.0,0.0,0.0,0.0,0.0,0.0,0.0,0.0,0.0,0.0,0.0,0.0,0.0,0.0,0.0,0.0,0.0,0.0,0.0,0.0,0.0,0.0,0.0,0.0,0.0,0.0,0.0,0.0,0.0,0.0,0.0,0.0,0.0,0.0,0.0,0.0,0.0,0.0,0.0,0.0,0.0,0.0,0.0,0.0,0.0,0.0,0.0,0.0,0.0,0.0,0.0,0.0,0.0,0.0,0.0,0.0,0.0,0.0,0.0,0.0,0.0,0.0,0.0,0.0,0.0,0.0,0.0,0.0,0.0,0.0,0.0,0.0,0.0,0.0,0.0,0.0,0.0,0.0,0.0,0.0,0.0,0.0,0.0,0.0,0.0,0.0,0.0,0.0,0.0,0.0,0.0,0.0,0.0,0.0,0.0,0.0,0.0,0.0,0.0,0.0,0.0,0.0,0.0,0.0,0.0,0.0,0.0,0.0,0.0,0.0,0.0,0.0,0.0,0.0,0.0,0.0,0.0,0.0,0.0,0.0,0.0,0.0,0.0,0.0,0.0,0.0,0.0,0.0,0.0,0.0,0.0,0.0,0.0,0.0,0.0,0.0,0.0,0.0,0.0,0.0,0.0,0.0,0.0,0.0,0.0,0.0,0.0,0.0,0.0,0.0,0.0,0.0,0.0,0.0,0.0,0.0,0.0,0.0,0.0,0.0,0.0,0.0,0.0,0.0,0.0,0.0,0.0,0.0,0.0,0.0,0.0,0.0,0.0,0.0,0.0,0.0,0.0,0.0,0.0,0.0,0.0,0.0,0.0,0.0,0.0,0.0,0.0,0.0,0.0,0.0,0.0,0.0,0.0,0.0,0.0,0.0,0.0,0.0,0.0,0.0,0.0,0.0,0.0,0.0,0.0,0.0,0.0,0.0,0.0,0.0,0.0,0.0,0.0,0.0,0.0,0.0,0.0,0.0,0.0,0.0,0.0,0.0,0.0,0.0,0.0,0.0,0.0,0.0,0.0,0.0,0.0,0.0,0.0,0.0,0.0,0.0,0.0,0.0,0.0,0.0,0.0,0.0,0.0,0.0,0.0,0.0,0.0,0.0,0.0,0.0,0.0,0.0,0.0,0.0,0.0,0.0,0.0,0.0,0.0,0.0,0.0,0.0,0.0,0.0,0.0,0.0,0.0,0.0,0.0,0.0,0.0,0.0,0.0,0.0,0.0,0.0,0.0,0.0,0.0,0.0,0.0,0.0,0.0,0.0,0.0,0.0,0.0,0.0,0.0,0.0,0.0,0.0,0.0,0.0,0.0,0.0,0.0,0.0,0.0,0.0,0.0,0.0,0.0,0.0,0.0,0.0,0.0,0.0,0.0,0.0,0.0,0.0,0.0,0.0,0.0,0.0,0.0,0.0,0.0,0.0,0.0,0.0,0.0,0.0,0.0,0.0,0.0,0.0,0.0,0.0,0.0,0.0,0.0,0.0,0.0,0.0,0.0,0.0,0.0,0.0,0.0,0.0,0.0,0.0,0.0,0.0,0.0,0.0,0.0,0.0,0.0,0.0,0.0,0.0,0.0,0.0,0.0,0.0,0.0,0.0,0.0,0.0,0.0,0.0,0.0,0.0,0.0,0.0,0.0,0.0,0.0,0.0,0.0,0.0,0.0,0.0,0.0,0.0,0.0,0.0,0.0,0.0,0.0,0.0,0.0,0.0,0.0,0.0,0.0,0.0,0.0,0.0,0.0,0.0,0.0,0.0,0.0,0.0,0.0,0.0,0.0,0.0,0.0,0.0,0.0,0.0,0.0,0.0,0.0,0.0,0.0,0.0,0.0,0.0,0.0,0.0,0.0,0.0,0.0,0.0,0.0,0.0,0.0,0.0,0.0,0.0,0.0,0.0,0.0,0.0,0.0,0.0,0.0,0.0,0.0,0.0,0.0,0.0,0.0,0.0,0.0,0.0,0.0,0.0,0.0,0.0,0.0,0.0,0.0,0.0,0.0,0.0,0.0,0.0,0.0,0.0,0.0,0.0,0.0,0.0,0.0,0.0,0.0,0.0,0.0,0.0,0.0,0.0,0.0,0.0,0.0,0.0,0.0,0.0,0.0,0.0,0.0,0.0,0.0,0.0,0.0,0.0,0.0,0.0,0.0,0.0,0.0,0.0,0.0,0.0,0.0,0.0,0.0,0.0,0.0,0.0,0.0,0.0,0.0,0.0,0.0,0.0,0.0,0.0,0.0,0.0,0.0,0.0,0.0,0.0,0.0,0.0,0.0,0.0,0.0,0.0,0.0,0.0,0.0,0.0,0.0,0.0,0.0,0.0,0.0,0.0,0.0,0.0,0.0,0.0,0.0,0.0,0.0,0.0,0.0,0.0,0.0,0.0,0.0,0.0,0.0,0.0,0.0,0.0,0.0,0.0,0.0,0.0,0.0,0.0,0.0,0.0,0.0,0.0,0.0,0.0,0.0,0.0,0.0,0.0,0.0,0.0,0.0,0.0,0.0,0.0,0.0,0.0,0.0,0.0,0.0,0.0,0.0,0.0,0.0,0.0,0.0,0.0,0.0,0.0,0.0,0.0,0.0,0.0,0.0,0.0,0.0,0.0,0.0,0.0,0.0,0.0,0.0,0.0,0.0,0.0,0.0,0.0,0.0,0.0,0.0,0.0,0.0,0.0,0.0,0.0,0.0,0.0,0.0,0.0,0.0,0.0,0.0,0.0,0.0,0.0,0.0,0.0,0.0,0.0,0.0,0.0,0.0,0.0,0.0,0.0,0.0,0.0,0.0,0.0,0.0,0.0,0.0,0.0,0.0,0.0,0.0,0.0,0.0,0.0,0.0,0.0,0.0,0.0,0.0,0.0,0.0,0.0,0.0,0.0,0.0,0.0,0.0,0.0,0.0,0.0,0.0,0.0,0.0,0.0,0.0,0.0,0.0,0.0,0.0,0.0,0.0,0.0,0.0,0.0,0.0,0.0,0.0,0.0,0.0,0.0,0.0,0.0,0.0,0.0,0.0,0.0,0.0,0.0,0.0,0.0,0.0,0.0,0.0,0.0,0.0,0.0,0.0,0.0,0.0,0.0,0.0,0.0,0.0,0.0,0.0,0.0,0.0,0.0,0.0,0.0,0.0,0.0,0.0,0.0,0.0,0.0,0.0,0.0,0.0,0.0,0.0,0.0,0.0,0.0,0.0,0.0,0.0,0.0,0.0,0.0,0.0,0.0,0.0,0.0,0.0,0.0,0.0,0.0,0.0,0.0,0.0,0.0,0.0,0.0,0.0,0.0,0.0,0.0,0.0,0.0,0.0,0.0,0.0,0.0,0.0,0.0,0.0,0.0,0.0,0.0,0.0,0.0,0.0,0.0,0.0,0.0,0.0,0.0,0.0,0.0,0.0,0.0,0.0,0.0,0.0,0.0,0.0,0.0,0.0,0.0,0.0,0.0,0.0,0.0,0.0,0.0,0.0,0.0,0.0,0.0,0.0,0.0,0.0,0.0,0.0,0.0,0.0,0.0,0.0,0.0,0.0,0.0,0.0,0.0,0.0,0.0,0.0,0.0,0.0,0.0,0.0,0.0,0.0,0.0,0.0,0.0,0.0,0.0,0.0,0.0,0.0,0.0,0.0,0.0,0.0,0.0,0.0,0.0,0.0,0.0,0.0,0.0,0.0,0.0,0.0,0.0,0.0,0.0,0.0,0.0,0.0,0.0,0.0,0.0,0.0,0.0,0.0,0.0,0.0,0.0,0.0,0.0,0.0,0.0,0.0,0.0,0.0,0.0,0.0,0.0,0.0,0.0,0.0,0.0,0.0,0.0,0.0,0.0,0.0,0.0,0.0,0.0,0.0,0.0,0.0,0.0,0.0,0.0,0.0,0.0,0.0,0.0,0.0,0.0,0.0,0.0,0.0,0.0,0.0,0.0,0.0,0.0,0.0,0.0,0.0,0.0,0.0,0.0,0.0,0.0,0.0,0.0,0.0,0.0,0.0,0.0,0.0,0.0,0.0,0.0,-0.0157,0.0,0.0,0.0,0.0,0.0,0.0,0.0,0.0,0.0,0.0,0.0,0.0,0.0,0.0,0.0,0.0,0.0,0.0,0.0,0.0,0.0,0.0,0.0,0.0,0.0,0.0,0.0,0.0,0.0,0.0,0.0,0.0,0.0,0.0,0.0,0.0,0.0,0.0,0.0,0.0,0.0,0.0,0.0,0.0,0.0,0.0,0.0,0.0,0.0,0.0,0.0,0.0,0.0,0.0,0.0,0.0,0.0,0.0,0.0,0.0,0.0,0.0,0.0,0.0,0.0,0.0,0.0,0.0,0.0,0.0,0.0,0.0,0.0,0.0,0.0,0.0,0.0,0.0,0.0,0.0,0.0,0.0,0.0,0.0,0.0,0.0,0.0,0.0,0.0,0.0,0.0,0.0,0.0,0.0,0.0,0.0,0.0,0.0,0.0,0.0,0.0,0.0,0.0,0.0,0.0,0.0,0.0,0.0,0.0,0.0,0.0767,0.0766,0.0919,0.0942,0.0785,0.0,0.0,0.0,0.0,0.0,0.0,0.0,0.0,0.0,0.0,0.0,0.0,0.0,0.0,0.0,0.0,0.0,0.0,0.0,0.0,0.0,0.0,0.0,0.0,0.0,0.0,0.0,0.0,0.0,0.0,0.0,0.0,0.0,0.0,0.0,0.0,0.0,0.0,0.0,0.0,0.0,0.0,0.0,0.0,0.0,0.0,0.0,0.0,0.0,0.0,0.0,0.0,0.0,0.0,0.0,0.0,0.0,0.0,0.0,0.0,0.0,0.0,0.0,0.0,0.0,0.0,0.0,0.0,0.0,0.0,0.0,0.0,0.0,0.0,0.0,0.0,0.0,0.0,0.0,0.0,0.0,0.0,0.0,0.0,0.0,0.0,0.0,0.0,0.0,0.0,0.0,0.0,0.0,0.0,0.0,0.0,0.0,0.0,0.0,0.0,0.0,0.0,0.0,0.0,0.0,0.0,0.0,0.0,0.0,0.0,0.0,0.0,0.1064,0.1029,0.1388,0.0,0.0,0.0,0.0,0.0,0.0,0.0,0.0,0.0,0.0,0.0,0.0,0.0,0.0,0.0,0.0,0.0,0.0,0.0,0.0,0.0,0.0,0.0,0.0,0.0,0.0,0.0,0.0,0.0,0.0,0.0,0.0,0.0,0.0,0.0,0.0,0.0,0.0,0.0,0.0,0.0,0.0,0.0,0.0,0.0,0.0,0.0,0.0,0.0,0.0,0.0,0.0,0.0,0.0,0.0,0.0,0.0,0.0,0.0,0.0,0.0,0.0,0.0,0.0,0.0,0.0,0.0,0.0,0.0,0.0,0.0,0.0,0.0,0.0,0.0,0.0,0.0,0.0,0.0,0.0,0.0,0.0,0.0,0.0,0.0,0.0,0.0,0.0,0.0,0.0,0.0,0.0,0.0,0.0,0.0,0.0,0.0,0.0,0.0,0.0,0.0,0.0,0.0,0.0,0.0,0.0,0.0,0.0,0.0,0.0,0.1405,0.1404,0.134,0.0,0.1413,0.0,0.0,0.0,0.0,0.0,0.0,0.0,0.0,0.0,0.0,0.0,0.0,0.0,0.0,0.0,0.0,0.0,0.0,0.0,0.0,0.0,0.0,0.0,0.0,0.0,0.0,0.0,0.0,0.0,0.0,0.0,0.0,0.0,0.0,0.0,0.0,0.0,0.0,0.0,0.0,0.0,0.0,0.0,0.0,0.0,0.0,0.0,0.0,0.0,0.0,0.0,0.0,0.0,0.0,0.0,0.0,0.0,0.0,0.0,0.0,0.0,0.0,0.0,0.0,0.0,0.0,0.0,0.0,0.0,0.0,0.0,0.0,0.0,0.0,0.0,0.0,0.0,0.0,0.0,0.0,0.0,0.0,0.0,0.0,0.0,0.0,0.0,0.0,0.0,0.0,0.0,0.0,0.0,0.0,0.0,0.0,0.0,0.0,0.0,0.0,0.0,0.0,0.0,0.0,0.0,0.0,0.0,0.0,0.0,0.0,0.1347,0.157,0.1178,0.0986,0.0,0.0,0.0,0.0,0.0,0.0,0.0,0.0,0.0,0.0,0.0,0.0,0.0,0.0,0.0,0.0,0.0,0.0,0.0,0.0,0.0,0.0,0.0,0.0,0.0,0.0,0.0,0.0,0.0,0.0,0.0,0.0,0.0,0.0,0.0,0.0,0.0,0.0,0.0,0.0,0.0,0.0,0.0,0.0,0.0,0.0,0.0,0.0,0.0,0.0,0.0,0.0,0.0,0.0,0.0,0.0,0.0,0.0,0.0,0.0,0.0,0.0,0.0,0.0,0.0,0.0,0.0,0.0,0.0,0.0,0.0,0.0,0.0,0.0,0.0,0.0,0.0,0.0,0.0,0.0,0.0,0.0,0.0,0.0,0.0,0.0,0.0,0.0,0.0,0.0,0.0,0.0,0.0,0.0,0.0,0.0,0.0,0.0,0.0,0.0,0.0,0.0,0.0,0.0,0.0,0.0,0.0,0.0,0.0,0.0,0.139,0.1439,0.1693,0.1182,0.0901,0.0894,0.0,0.0,0.0,0.0,0.0,0.0,0.0,0.0,0.0,0.0,0.0,0.0,0.0,0.0,0.0,0.0,0.0,0.0,0.0,0.0,0.0,0.0,0.0,0.0,0.0,0.0,0.0,0.0,0.0,0.0,0.0,0.0,0.0,0.0,0.0,0.0,0.0,0.0,0.0,0.0,0.0,0.0,0.0,0.0,0.0,0.0,0.0,0.0,0.0,0.0,0.0,0.0,0.0,0.0,0.0,0.0,0.0,0.0,0.0,0.0,0.0,0.0,0.0,0.0,0.0,0.0,0.0,0.0,0.0,0.0,0.0,0.0,0.0,0.0,0.0,0.0,0.0,0.0,0.0,0.0,0.0,0.0,0.0,0.0,0.0,0.0,0.0,0.0,0.0,0.0,0.0,0.0,0.0,0.0,0.0,0.0,0.0,0.0,0.0,0.0,0.0,0.0,0.0,0.0,0.0,0.0,0.0,0.0,0.2013,0.1859,0.1771,0.1793,0.1527,0.1371,0.0,0.0,0.0,0.0,0.0,0.0,0.0,0.0,0.0,0.0,0.0,0.0,0.0,0.0,0.0,0.0,0.0,0.0,0.0,0.0,0.0,0.0,0.0,0.0,0.0,0.0,0.0,0.0,0.0,0.0,0.0,0.0,0.0,0.0,0.0,0.0,0.0,0.0,0.0,0.0,0.0,0.0,0.0,0.0,0.0,0.0,0.0,0.0,0.0,0.0,0.0,0.0,0.0,0.0,0.0,0.0,0.0,0.0,0.0,0.0,0.0,0.0,0.0,0.0,0.0,0.0,0.0,0.0,0.0,0.0,0.0,0.0,0.0,0.0,0.0,0.0,0.0,0.0,0.0,0.0,0.0,0.0,0.0,0.0,0.0,0.0,0.0,0.0,0.0,0.0,0.0,0.0,0.0,0.0,0.0,0.0,0.0,0.0,0.0,0.0,0.0,0.0,0.0,0.0,0.0,0.0,0.0,0.0,0.0,0.1636,0.1648,0.1668,0.1665,0.1672,0.1585,0.0,0.0,0.0,0.0,0.0,0.0,0.0,0.0,0.0,0.0,0.0,0.0,0.0,0.0,0.0,0.0,0.0,0.0,0.0,0.0,0.0,0.0,0.0,0.0,0.0,0.0,0.0,0.0,0.0,0.0,0.0,0.0,0.0,0.0,0.0,0.0,0.0,0.0,0.0,0.0,0.0,0.0,0.0,0.0,0.0,0.0,0.0,0.0,0.0,0.0,0.0,0.0,0.0,0.0,0.0,0.0,0.0,0.0,0.0,0.0,0.0,0.0,0.0,0.0,0.0,0.0,0.0,0.0,0.0,0.0,0.0,0.0,0.0,0.0,0.0,0.0,0.0,0.0,0.0,0.0,0.0,0.0,0.0,0.0,0.0,0.0,0.0,0.0,0.0,0.0,0.0,0.0,0.0,0.0,0.0,0.0,0.0,0.0,0.0,0.0,0.0,0.0,0.0,0.0,0.0,0.0,0.0,0.0,0.0,0.1469,0.0,0.1592,0.159,0.1628,0.159,0.0,0.0,0.0,0.0,0.0,0.0,0.0,0.0,0.0,0.0,0.0,0.0,0.0,0.0,0.0,0.0,0.0,0.0,0.0,0.0,0.0,0.0,0.0,0.0,0.0,0.0,0.0,0.0,0.0,0.0,0.0,0.0,0.0,0.0,0.0,0.0,0.0,0.0,0.0,0.0,0.0,0.0,0.0,0.0,0.0,0.0,0.0,0.0,0.0,0.0,0.0,0.0,0.0,0.0,0.0,0.0,0.0,0.0,0.0,0.0,0.0,0.0,0.0,0.0,0.0,0.0,0.0,0.0,0.0,0.0,0.0,0.0,0.0,0.0,0.0,0.0,0.0,0.0,0.0,0.0,0.0,0.0,0.0,0.0,0.0,0.0,0.0,0.0,0.0,0.0,0.0,0.0,0.0,0.0,0.0,0.0,0.0,0.0,0.0,0.0,0.0,0.0,0.0,0.0,0.0,0.0,0.0,0.0,0.1472,0.1579,0.1587,0.1592,0.159,0.1477,0.1416,0.0,0.0,0.0,0.0,0.0,0.0,0.0,0.0,0.0,0.0,0.0,0.0,0.0,0.0,0.0,0.0,0.0,0.0,0.0,0.0,0.0,0.0,0.0,0.0,0.0,0.0,0.0,0.0,0.0,0.0,0.0,0.0,0.0,0.0,0.0,0.0,0.0,0.0,0.0,0.0,0.0,0.0,0.0,0.0,0.0,0.0,0.0,0.0,0.0,0.0,0.0,0.0,0.0,0.0,0.0,0.0,0.0,0.0,0.0,0.0,0.0,0.0,0.0,0.0,0.0,0.0,0.0,0.0,0.0,0.0,0.0,0.0,0.0,0.0,0.0,0.0,0.0,0.0,0.0,0.0,0.0,0.0,0.0,0.0,0.0,0.0,0.0,0.0,0.0,0.0,0.0,0.0,0.0,0.0,0.0,0.0,0.0,0.0,0.0,0.0,0.0,0.0,0.0,0.0,0.0,0.0,0.0,0.0,0.0,0.1469,0.1549,0.1592,0.1587,0.1474,0.145,0.0,0.0,0.0,0.0,0.0,0.0,0.0,0.0,0.0,0.0,0.0,0.0,0.0,0.0,0.0,0.0,0.0,0.0,0.0,0.0,0.0,0.0,0.0,0.0,0.0,0.0,0.0,0.0,0.0,0.0,0.0,0.0,0.0,0.0,0.0,0.0,0.0,0.0,0.0,0.0,0.0,0.0,0.0,0.0,0.0,0.0,0.0,0.0,0.0,0.0,0.0,0.0,0.0,0.0,0.0,0.0,0.0,0.0,0.0,0.0,0.0,0.0,0.0,0.0,0.0,0.0,0.0,0.0,0.0,0.0,0.0,0.0,0.0,0.0,0.0,0.0,0.0,0.0,0.0,0.0,0.0,0.0,0.0,0.0,0.0,0.0,0.0,0.0,0.0,0.0,0.0,0.0,0.0,0.0,0.0,0.0,0.0,0.0,0.0,0.0,0.0,0.0,0.0,0.0,0.0,0.0,0.0,0.0,0.0,0.1642,0.1707,0.1745,0.1748,0.1603,0.1555,0.1582,0.0,0.0,0.0,0.0,0.0,0.0,0.0,0.0,0.0,0.0,0.0,0.0,0.0,0.0,0.0,0.0,0.0,0.0,0.0,0.0,0.0,0.0,0.0,0.0,0.0,0.0,0.0,0.0,0.0,0.0,0.0,0.0,0.0,0.0,0.0,0.0,0.0,0.0,0.0,0.0,0.0,0.0,0.0,0.0,0.0,0.0,0.0,0.0,0.0,0.0,0.0,0.0,0.0,0.0,0.0,0.0,0.0,0.0,0.0,0.0,0.0,0.0,0.0,0.0,0.0,0.0,0.0,0.0,0.0,0.0,0.0,0.0,0.0,0.0,0.0,0.0,0.0,0.0,0.0,0.0,0.0,0.0,0.0,0.0,0.0,0.0,0.0,0.0,0.0,0.0,0.0,0.0,0.0,0.0,0.0,0.0,0.0,0.0,0.0,0.0,0.0,0.0,0.0,0.0,0.0,0.0,0.0,0.0,0.2043,0.2054,0.2054,0.2029,0.1873,0.1691,0.0,0.0,0.0,0.0,0.0,0.0,0.0,0.0,0.0,0.0,0.0,0.0,0.0,0.0,0.0,0.0,0.0,0.0,0.0,0.0,0.0,0.0,0.0,0.0,0.0,0.0,0.0,0.0,0.0,0.0,0.0,0.0,0.0,0.0,0.0,0.0,0.0,0.0,0.0,0.0,0.0,0.0,0.0,0.0,0.0,0.0,0.0,0.0,0.0,0.0,0.0,0.0,0.0,0.0,0.0,0.0,0.0,0.0,0.0,0.0,0.0,0.0,0.0,0.0,0.0,0.0,0.0,0.0,0.0,0.0,0.0,0.0,0.0,0.0,0.0,0.0,0.0,0.0,0.0,0.0,0.0,0.0,0.0,0.0,0.0,0.0,0.0,0.0,0.0,0.0,0.0,0.0,0.0,0.0,0.0,0.0,0.0,0.0,0.0,0.0,0.0,0.0,0.0,0.0,0.0,0.0,0.0,0.0,0.0,0.2537,0.2672,0.2637,0.237,0.1993,0.1747,0.0,0.0,0.0,0.0,0.0,0.0,0.0,0.0,0.0,0.0,0.0,0.0,0.0,0.0,0.0,0.0,0.0,0.0,0.0,0.0,0.0,0.0,0.0,0.0,0.0,0.0,0.0,0.0,0.0,0.0,0.0,0.0,0.0,0.0,0.0,0.0,0.0,0.0,0.0,0.0,0.0,0.0,0.0,0.0,0.0,0.0,0.0,0.0,0.0,0.0,0.0,0.0,0.0,0.0,0.0,0.0,0.0,0.0,0.0,0.0,0.0,0.0,0.0,0.0,0.0,0.0,0.0,0.0,0.0,0.0,0.0,0.0,0.0,0.0,0.0,0.0,0.0,0.0,0.0,0.0,0.0,0.0,0.0,0.0,0.0,0.0,0.0,0.0,0.0,0.0,0.0,0.0,0.0,0.0,0.0,0.0,0.0,0.0,0.0,0.0,0.0,0.0,0.0,0.0,0.0,0.0,0.0,0.0,0.2691,0.2727,0.302,0.3045,0.2884,0.2471,0.2159,0.0,0.0,0.0,0.0,0.0,0.0,0.0,0.0,0.0,0.0,0.0,0.0,0.0,0.0,0.0,0.0,0.0,0.0,0.0,0.0,0.0,0.0,0.0,0.0,0.0,0.0,0.0,0.0,0.0,0.0,0.0,0.0,0.0,0.0,0.0,0.0,0.0,0.0,0.0,0.0,0.0,0.0,0.0,0.0,0.0,0.0,0.0,0.0,0.0,0.0,0.0,0.0,0.0,0.0,0.0,0.0,0.0,0.0,0.0,0.0,0.0,0.0,0.0,0.0,0.0,0.0,0.0,0.0,0.0,0.0,0.0,0.0,0.0,0.0,0.0,0.0,0.0,0.0,0.0,0.0,0.0,0.0,0.0,0.0,0.0,0.0,0.0,0.0,0.0,0.0,0.0,0.0,0.0,0.0,0.0,0.0,0.0,0.0,0.0,0.0,0.0,0.0,0.0,0.0,0.0,0.0,0.0,0.0,0.2878,0.2745,0.3186,0.3414,0.3387,0.3089,0.2696,0.0,0.0,0.0,0.0,0.0,0.0,0.0,0.0,0.0,0.0,0.0,0.0,0.0,0.0,0.0,0.0,0.0,0.0,0.0,0.0,0.0,0.0,0.0,0.0,0.0,0.0,0.0,0.0,0.0,0.0,0.0,0.0,0.0,0.0,0.0,0.0,0.0,0.0,0.0,0.0,0.0,0.0,0.0,0.0,0.0,0.0,0.0,0.0,0.0,0.0,0.0,0.0,0.0,0.0,0.0,0.0,0.0,0.0,0.0,0.0,0.0,0.0,0.0,0.0,0.0,0.0,0.0,0.0,0.0,0.0,0.0,0.0,0.0,0.0,0.0,0.0,0.0,0.0,0.0,0.0,0.0,0.0,0.0,0.0,0.0,0.0,0.0,0.0,0.0,0.0,0.0,0.0,0.0,0.0,0.0,0.0,0.0,0.0,0.0,0.0,0.0,0.0,0.0,0.0,0.0,0.0,0.0,0.0,0.2954,0.3104,0.3392,0.3498,0.34,0.3213,0.3031,0.0,0.0,0.0,0.0,0.0,0.0,0.0,0.0,0.0,0.0,0.0,0.0,0.0,0.0,0.0,0.0,0.0,0.0,0.0,0.0,0.0,0.0,0.0,0.0,0.0,0.0,0.0,0.0,0.0,0.0,0.0,0.0,0.0,0.0,0.0,0.0,0.0,0.0,0.0,0.0,0.0,0.0,0.0,0.0,0.0,0.0,0.0,0.0,0.2778,0.0,0.0,0.0,0.0,0.0,0.0,0.0,0.0,0.0,0.0,0.0,0.0,0.0,0.0,0.0,0.0,0.0,0.0,0.0,0.0,0.0,0.0,0.0,0.0,0.0,0.0,0.0,0.0,0.0,0.0,0.0,0.0,0.0,0.0,0.0,0.0,0.0,0.0,0.0,0.0,0.0,0.0,0.0,0.0,0.0,0.0,0.0,0.0,0.0,0.0,0.0,0.0,0.0,0.0,0.0,0.0,0.0,0.0,0.0,0.3392,0.3708,0.3937,0.4097,0.4277,0.3716,0.3325,0.0,0.0,0.0,0.0,0.0,0.0,0.0,0.0,0.0,0.0,0.0,0.0,0.0,0.0,0.0,0.0,0.0,0.0,0.0,0.0,0.0,0.0,0.0,0.0,0.0,0.0,0.0,0.0,0.0,0.0,0.0,0.0,0.0,0.0,0.0,0.0,0.0,0.0,0.0,0.0,0.0,0.0,0.0,0.0,0.0,0.0,0.0,0.0,0.0,0.0,0.0,0.0,0.0,0.0,0.0,0.0,0.0,0.0,0.0,0.0,0.0,0.0,0.0,0.0,0.0,0.0,0.0,0.0,0.0,0.0,0.0,0.0,0.0,0.0,0.0,0.0,0.0,0.0,0.0,0.0,0.0,0.0,0.0,0.0,0.0,0.0,0.0,0.0,0.0,0.0,0.0,0.0,0.0,0.0,0.0,0.0,0.0,0.0,0.0,0.0,0.0,0.0,0.0,0.0,0.0,0.0,0.0,0.3269,0.4022,0.4321,0.4542,0.4842,0.5324,0.4401,0.3842,0.3601,0.0,0.0,0.0,0.0,0.0,0.0,0.0,0.0,0.0,0.0,0.0,0.0,0.0,0.0,0.0,0.0,0.0,0.0,0.0,0.0,0.0,0.0,0.0,0.0,0.0,0.0,0.0,0.0,0.0,0.0,0.0,0.0,0.0,0.0,0.0,0.0,0.0,0.0,0.3106,0.2831,0.0,0.0,0.0,0.0,0.0,0.0,0.0,0.0,0.2263,0.0,0.0,0.0,0.0,0.0,0.0,0.0,0.0,0.0,0.0,0.0,0.0,0.0,0.0,0.0,0.0,0.0,0.0,0.0,0.0,0.0,0.0,0.0,0.0,0.0,0.0,0.0,0.0,0.0,0.0,0.0,0.0,0.0,0.0,0.0,0.0,0.0,0.0,0.0,0.0,0.0,0.0,0.0,0.0,0.0,0.0,0.0,0.0,0.0,0.0,0.0,0.0,0.0,0.0,0.0,0.0,0.2136,0.403,0.4897,0.462,0.4969,0.5277,0.5479,0.54,0.4802,0.3709,0.0,0.0,0.0,0.0,0.0,0.0,0.0,0.0,0.0,0.0,0.0,0.0,0.0,0.0,0.0,0.0,0.0,0.0,0.0,0.0,0.0,0.0,0.0,0.0,0.0,0.0,0.0,0.0,0.0,0.0,0.0,0.0,0.0,0.0,0.0,0.0,0.0,0.0,0.0,0.2674,0.254,0.0,0.0,0.0,0.0,0.0,0.0,0.0,0.0,0.2186,0.0,0.0,0.0,0.0,0.0,0.0,0.0,0.0,0.0,0.0,0.0,0.0,0.0,0.0,0.0,0.0,0.0,0.0,0.0,0.0,0.0,0.0,0.0,0.0,0.0,0.0,0.0,0.0,0.0,0.0,0.0,0.0,0.0,0.0,0.0,0.0,0.0,0.0,0.0,0.0,0.0,0.0,0.0,0.0,0.0,0.0,0.0,0.0,0.0,0.0,0.0,0.0,0.0,0.0,0.0,0.3371,0.5237,0.6229,0.6136,0.5937,0.6091,0.6519,0.6279,0.5872,0.0,0.0,0.0,0.0,0.0,0.0,0.0,0.0,0.0,0.0,0.0,0.0,0.0,0.0,0.0,0.0,0.0,0.0,0.0,0.0,0.0,0.0,0.0,0.0,0.0,0.0,0.0,0.0,0.0,0.0,0.0,0.0,0.0,0.0,0.0,0.0,0.0,0.0,0.0,0.0,0.2873,0.2639,0.2908,0.0,0.0,0.0,0.0,0.0,0.0,0.2427,0.2427,0.0,0.0,0.0,0.0,0.0,0.0,0.0,0.0,0.0,0.0,0.0,0.0,0.0,0.0,0.0,0.0,0.0,0.0,0.0,0.0,0.0,0.0,0.0,0.0,0.0,0.0,0.0,0.0,0.0,0.0,0.0,0.0,0.0,0.0,0.0,0.0,0.0,0.0,0.0,0.0,0.0,0.0,0.0,0.0,0.0,0.0,0.0,0.0,0.0,0.0,0.0,0.0,0.0,0.0,0.0,0.4656,0.6069,0.6919,0.709,0.6593,0.6583,0.7128,0.6582,0.6415,0.0,0.0,0.0,0.0,0.0,0.0,0.0,0.0,0.0,0.0,0.0,0.0,0.0,0.0,0.0,0.0,0.0,0.0,0.0,0.0,0.0,0.0,0.0,0.0,0.0,0.0,0.0,0.0,0.0,0.0,0.0,0.0,0.0,0.0,0.0,0.0,0.0,0.0,0.0,0.0,0.0,0.2797,0.2873,0.2545,0.0,0.0,0.0,0.0,0.2419,0.2568,0.0,0.0,0.0,0.0,0.0,0.0,0.0,0.0,0.0,0.0,0.0,0.0,0.0,0.0,0.0,0.0,0.0,0.0,0.0,0.0,0.0,0.0,0.0,0.0,0.0,0.0,0.0,0.0,0.0,0.0,0.0,0.0,0.0,0.0,0.0,0.0,0.0,0.0,0.0,0.0,0.0,0.0,0.0,0.0,0.0,0.0,0.0,0.0,0.0,0.0,0.0,0.0,0.0,0.0,0.0,0.0,0.553,0.5813,0.5972,0.6013,0.5937,0.5932,0.5987,0.5599,0.5694,0.0,0.0,0.0,0.0,0.0,0.0,0.0,0.0,0.0,0.0,0.0,0.0,0.0,0.0,0.0,0.0,0.0,0.0,0.0,0.0,0.0,0.0,0.0,0.0,0.0,0.0,0.0,0.0,0.0,0.0,0.0,0.0,0.0,0.0,0.0,0.0,0.0,0.0,0.0,0.0,0.0,0.2872,0.3108,0.2743,0.2422,0.0,0.0,0.2639,0.237,0.2329,0.0,0.0,0.0,0.0,0.0,0.0,0.0,0.0,0.0,0.0,0.0,0.0,0.0,0.0,0.0,0.0,0.0,0.0,0.0,0.0,0.0,0.0,0.0,0.0,0.0,0.0,0.0,0.0,0.0,0.0,0.0,0.0,0.0,0.0,0.0,0.0,0.0,0.0,0.0,0.0,0.0,0.0,0.0,0.0,0.0,0.0,0.0,0.0,0.0,0.0,0.0,0.0,0.0,0.0,0.0,0.4383,0.4526,0.5343,0.5917,0.6185,0.6263,0.6372,0.6534,0.5694,0.5413,0.0,0.0,0.0,0.0,0.0,0.0,0.0,0.0,0.0,0.0,0.0,0.0,0.0,0.0,0.0,0.0,0.0,0.0,0.0,0.0,0.0,0.0,0.0,0.0,0.0,0.0,0.0,0.0,0.0,0.0,0.0,0.0,0.0,0.0,0.0,0.0,0.0,0.0,0.0,0.0,0.0,0.0,0.3452,0.3029,0.0,0.0,0.0,0.3036,0.265,0.0,0.0,0.0,0.0,0.0,0.0,0.0,0.0,0.0,0.0,0.0,0.0,0.0,0.0,0.0,0.0,0.0,0.0,0.0,0.0,0.0,0.0,0.0,0.0,0.0,0.0,0.0,0.0,0.0,0.0,0.0,0.0,0.0,0.0,0.0,0.0,0.0,0.0,0.0,0.0,0.0,0.0,0.0,0.0,0.0,0.0,0.0,0.0,0.0,0.0,0.0,0.0,0.0,0.0,0.0,0.0,0.0,0.4674,0.542,0.6049,0.6578,0.6539,0.6534,0.6578,0.5658,0.0,0.0,0.0,0.0,0.0,0.0,0.0,0.0,0.0,0.0,0.0,0.0,0.0,0.0,0.0,0.0,0.0,0.0,0.0,0.0,0.0,0.0,0.0,0.0,0.0,0.0,0.0,0.1637,0.0,0.0,0.0,0.0,0.0,0.0,0.0,0.0,0.0,0.0,0.0,0.0,0.0,0.0,0.341,0.3492,0.3246,0.3008,0.0,0.0,0.3388,0.2894,0.3212,0.3241,0.0,0.0,0.0,0.0,0.0,0.0,0.0,0.0,0.0,0.0,0.0,0.0,0.0,0.0,0.0,0.0,0.0,0.0,0.0,0.0,0.0,0.0,0.0,0.0,0.0,0.0,0.0,0.0,0.0,0.0,0.0,0.0,0.0,0.0,0.0,0.0,0.0,0.0,0.0,0.0,0.0,0.0,0.0,0.0,0.0,0.0,0.0,0.0,0.0,0.0,0.0,0.0,0.0,0.0,0.5158,0.7494,0.6433,0.6144,0.6722,0.644,0.5932,0.5265,0.5035,0.4557,0.0,0.0,0.0,0.0,0.0,0.0,0.0,0.0,0.0,0.0,0.0,0.0,0.0,0.0,0.0,0.0,0.0,0.0,0.0,0.0,0.0,0.0,0.0,0.0,0.0,0.0,0.0,0.0,0.0,0.0,0.0,0.0,0.0,0.0,0.0,0.0,0.0,0.0,0.0,0.0,0.0,0.3169,0.3051,0.3242,0.3286,0.0,0.3239,0.3274,0.2953,0.2976,0.2903,0.2524,0.0,0.0,0.0,0.0,0.0,0.0,0.0,0.0,0.0,0.0,0.0,0.0,0.0,0.0,0.0,0.0,0.0,0.0,0.0,0.0,0.0,0.0,0.0,0.0,0.0,0.0,0.0,0.0,0.0,0.0,0.0,0.0,0.0,0.0,0.0,0.0,0.0,0.0,0.0,0.0,0.0,0.0,0.0,0.0,0.0,0.0,0.0,0.0,0.0,0.0,0.0,0.0,0.0,0.492,0.6811,0.6539,0.6173,0.5897,0.5842,0.5727,0.5389,0.4889,0.4503,0.0,0.0,0.0,0.0,0.0,0.0,0.0,0.0,0.0,0.0,0.0,0.0,0.0,0.0,0.0,0.0,0.0,0.0,0.0,0.0,0.0,0.0,0.0,0.0,0.0,0.0,0.0,0.0,0.1736,0.1717,0.1903,0.0,0.0,0.0,0.0,0.0,0.0,0.0,0.0,0.0,0.0,0.324,0.3401,0.3337,0.0,0.0,0.3259,0.32,0.299,0.2973,0.2868,0.2455,0.223,0.0,0.0,0.0,0.0,0.0,0.0,0.0,0.0,0.0,0.0,0.0,0.0,0.0,0.0,0.0,0.0,0.0,0.0,0.0,0.0,0.0,0.0,0.0,0.0,0.0,0.0,0.0,0.0,0.0,0.0,0.0,0.0,0.0,0.0,0.0,0.0,0.0,0.0,0.0,0.0,0.0,0.0,0.0,0.0,0.0,0.0,0.0,0.0,0.0,0.0,0.0,0.0,0.4611,0.5775,0.6034,0.6036,0.5735,0.5862,0.5811,0.5627,0.5118,0.4748,0.0,0.0,0.0,0.0,0.0,0.0,0.0,0.0,0.0,0.0,0.0,0.0,0.0,0.0,0.0,0.0,0.0,0.0,0.0,0.0,0.0,0.0,0.0,0.0,0.0,0.0,0.0,0.0,0.1688,0.1781,0.1871,0.0,0.0,0.0,0.0,0.0,0.0,0.0,0.0,0.0,0.0,0.3307,0.3538,0.3365,0.3211,0.3384,0.327,0.3104,0.3059,0.3051,0.2903,0.2509,0.0,0.0,0.0,0.0,0.0,0.0,0.0,0.0,0.0,0.0,0.0,0.0,0.0,0.0,0.0,0.0,0.0,0.0,0.0,0.0,0.0,0.0,0.0,0.0,0.0,0.0,0.0,0.3214,0.0,0.0,0.3232,0.0,0.0,0.0,0.0,0.0,0.0,0.0,0.0,0.0,0.0,0.0,0.0,0.0,0.0,0.0,0.0,0.0,0.0,0.0,0.0,0.0,0.0,0.432,0.4914,0.4973,0.5529,0.657,0.6648,0.6349,0.5796,0.5639,0.5238,0.4504,0.0,0.0,0.0,0.0,0.0,0.0,0.0,0.0,0.0,0.0,0.0,0.0,0.0,0.0,0.0,0.0,0.0,0.0,0.0,0.0,0.0,0.0,0.0,0.0,0.0,0.0,0.1636,0.1623,0.1628,0.0,0.0,0.0,0.0,0.0,0.0,0.0,0.0,0.0,0.3372,0.3301,0.3213,0.3224,0.3221,0.3275,0.339,0.321,0.3048,0.3205,0.3213,0.3093,0.0,0.0,0.0,0.0,0.0,0.0,0.0,0.0,0.0,0.0,0.0,0.0,0.0,0.0,0.0,0.0,0.0,0.0,0.0,0.0,0.0,0.0,0.0,0.0,0.0,0.0,0.0,0.4289,0.3289,0.0,0.0,0.0,0.0,0.0,0.0,0.0,0.0,0.0,0.0,0.0,0.6019,0.6717,0.0,0.0,0.0,0.0,0.0,0.0,0.0,0.0,0.0,0.0,0.0,0.0,0.4282,0.4866,0.5136,0.5385,0.5608,0.5788,0.5665,0.5366,0.5253,0.5024,0.4534,0.0,0.0,0.0,0.0,0.0,0.0,0.0,0.0,0.0,0.0,0.0,0.0,0.0,0.0,0.0,0.0,0.0,0.0,0.0,0.0,0.0,0.0,0.0,0.0,0.0,0.1892,0.0,0.0,0.0,0.0,0.0,0.0,0.0,0.0,0.0,0.0,0.0,0.3184,0.3392,0.3391,0.3368,0.3449,0.3463,0.3504,0.0,0.0,0.0,0.0,0.0,0.0,0.0,0.0,0.0,0.0,0.0,0.0,0.0,0.0,0.3132,0.2895,0.2904,0.2971,0.3222,0.0,0.0,0.0,0.0,0.0,0.0,0.0,0.0,0.0,0.0,0.0,0.0,0.0,0.0,0.5386,0.4411,0.4774,0.0,0.0,0.0,0.0,0.0,0.0,0.0,0.0,0.6679,0.6886,0.6749,0.6737,0.6436,0.59,0.6191,0.5943,0.0,0.0,0.0,0.0,0.0,0.0,0.0,0.0,0.423,0.4731,0.5159,0.5325,0.5206,0.5308,0.5311,0.5213,0.5178,0.4959,0.4499,0.4127,0.3742,0.0,0.0,0.0,0.0,0.0,0.0,0.0,0.0,0.0,0.0,0.0,0.0,0.0,0.0,0.0,0.0,0.0,0.0,0.0,0.0,0.0,0.0,0.0,0.1987,0.0,0.0,0.0,0.0,0.0,0.0,0.0,0.0,0.0,0.2981,0.3254,0.3451,0.3444,0.3447,0.3528,0.358,0.0,0.0,0.0,0.0,0.0,0.0,0.0,0.3036,0.2983,0.3011,0.3111,0.3386,0.3517,0.3514,0.3374,0.0,0.0,0.3216,0.3114,0.3152,0.3372,0.3321,0.331,0.3398,0.3363,0.347,0.0,0.0,0.0,0.0,0.61,0.0,0.0,0.0,0.6811,0.6723,0.0,0.5732,0.0,0.0,0.0,0.0,0.5007,0.6196,0.0,0.0,0.8001,0.8576,0.7065,0.5948,0.5994,0.7007,0.7429,0.7213,0.6432,0.5589,0.0,0.0,0.0,0.0,0.0,0.0,0.4155,0.4554,0.5128,0.5406,0.5418,0.5425,0.5428,0.5418,0.5405,0.5099,0.4543,0.4517,0.4497,0.4483,0.3378,0.0,0.0,0.0,0.0,0.0,0.0,0.0,0.0,0.0,0.0,0.0,0.0,0.0,0.0,0.0,0.0,0.0,0.0,0.0,0.0,0.1813,0.0,0.0,0.0,0.0,0.0,0.0,0.0,0.0,0.0,0.0,0.3084,0.3593,0.3814,0.3646,0.0,0.0,0.0,0.0,0.3453,0.3187,0.3387,0.3516,0.354,0.3309,0.3088,0.2865,0.0,0.0,0.413,0.4013,0.3651,0.3261,0.3574,0.3947,0.3702,0.3487,0.3414,0.3422,0.343,0.3428,0.3441,0.3553,0.3626,0.8263,0.0,0.0,0.0,0.0,0.7744,0.8214,0.8908,0.88,0.8701,0.8532,0.7594,0.0,0.0,0.0,0.0,0.0,0.0,0.6054,0.6369,0.6787,0.6977,0.7022,0.6205,0.5879,0.6117,0.6821,0.6678,0.5887,0.6102,0.5677,0.459,0.0,0.0,0.0,0.0,0.409,0.5061,0.5308,0.5406,0.5425,0.5428,0.5428,0.5428,0.5371,0.5171,0.4792,0.4602,0.4478,0.4465,0.4183,0.0,0.0,0.0,0.0,0.0,0.0,0.0,0.0,0.0,0.0,0.0,0.0,0.0,0.0,0.0,0.0,0.0,0.0,0.0,0.1051,0.1328,0.1609,0.0,0.0,0.0,0.0,0.0,0.0,0.0,0.0,0.0,0.1982,0.3273,0.4088,0.0,0.0,0.2312,0.2323,0.2329,0.2274,0.2186,0.2234,0.0,0.2493,0.2315,0.2162,0.2093,0.2246,0.2365,0.2518,0.2572,0.2544,0.2432,0.2528,0.2933,0.3918,0.3928,0.3822,0.3887,0.3912,0.3941,0.4023,0.4072,0.4091,0.9205,0.8531,0.8181,0.8021,0.7989,0.7989,0.8371,0.9116,0.9309,0.9586,0.988,0.8965,0.8862,0.9393,0.7136,0.0,0.0,0.0,0.6228,0.6686,0.6145,0.6191,0.6675,0.6467,0.6158,0.59,0.6639,0.6738,0.6137,0.6485,0.6086,0.4976,0.0,0.4824,0.4992,0.4397,0.4539,0.5369,0.5391,0.5401,0.5425,0.5428,0.5428,0.5425,0.541,0.5287,0.5133,0.474,0.4509,0.4467,0.4033,0.3218,0.0,0.0,0.0,0.0,0.0,0.0,0.0,0.0,0.0,0.0,0.0,0.1467,0.1303,0.0,0.0,0.0,0.1717,0.1316,0.05,0.0663,0.0,0.0,0.0,0.0,0.0,0.0,0.0,0.1528,0.188,0.1937,0.1495,0.2124,0.2956,0.3909,0.3131,0.2186,0.1225,0.0,0.1101,0.1109,0.111,0.1116,0.1261,0.1178,0.1049,0.1081,0.1101,0.1112,0.1113,0.1197,0.1276,0.1344,0.1746,0.2554,0.4046,0.3726,0.3457,0.4046,0.4197,0.4221,0.4292,0.4306,0.4306,0.9606,0.9269,0.8529,0.7989,0.7537,0.7624,0.7734,0.8042,0.874,0.9575,1.043,0.9898,0.9571,0.9389,0.8283,0.0,0.7452,0.6963,0.6569,0.6376,0.6079,0.6008,0.6222,0.6742,0.6722,0.6249,0.689,0.7081,0.6819,0.672,0.6283,0.5419,0.5514,0.5503,0.5368,0.5182,0.5185,0.5422,0.5399,0.5411,0.5428,0.5428,0.5428,0.5425,0.5424,0.5399,0.5367,0.4857,0.4584,0.4439,0.3263,0.2543,0.2436,0.0,0.0,0.0,0.0,0.0,0.0,0.0,0.0,0.0,0.0,0.0,0.0,0.0,0.0,0.0,0.1571,0.0,0.008,-0.0,0.0,0.0,0.0,0.0648,0.063,0.1442,0.1925,0.1925,0.0,0.0,0.1364,0.0559,0.0943,0.3635,0.3561,0.2486,0.0311,-0.0,-0.0,-0.0,-0.0,-0.0,-0.0,-0.0,-0.0,-0.0,-0.0,-0.0,-0.0,-0.0,-0.0,-0.0,0.1077,0.2288,0.3713,0.282,0.2484,0.3832,0.4038,0.4108,0.4041,0.4041,0.3971,0.8277,0.7642,0.766,0.7828,0.8096,0.8332,0.8431,0.8533,0.8597,0.9031,0.9829,1.0467,1.0014,0.8838,0.7674,0.6843,0.6187,0.6086,0.6193,0.6376,0.6301,0.6444,0.6805,0.7179,0.7304,0.7178,0.7099,0.6863,0.6551,0.665,0.6338,0.559,0.5693,0.558,0.5102,0.5255,0.5362,0.5398,0.541,0.5377,0.5422,0.5428,0.5428,0.5428,0.5394,0.5403,0.5377,0.529,0.4959,0.4498,0.2483,0.1302,0.132,0.1629,0.0,0.0,0.0,0.0,0.0,0.0,0.0,0.0,0.0,0.1518,0.1282,0.0,0.0701,0.0,0.1029,0.024,-0.0,-0.0,0.0,0.0,0.0104,0.0159,0.0174,0.0358,0.0483,0.0483,0.05,0.0447,0.0319,0.013,0.02,0.0959,-0.0,0.0628,-0.0,-0.0,-0.0,-0.0,-0.0,-0.0,-0.0,-0.0,-0.0,-0.0,-0.0,-0.0,-0.0,-0.0,-0.0,-0.0,0.0269,0.0674,-0.0,0.155,0.2158,0.2562,0.2626,0.2619,0.2619,0.2619,0.2619,0.774,0.7379,0.7175,0.7344,0.7557,0.7658,0.7679,0.7733,0.7938,0.8239,0.8697,0.9561,0.9052,0.7617,0.7317,0.7106,0.6807,0.6519,0.6596,0.6888,0.6892,0.7036,0.7265,0.7421,0.7535,0.7458,0.7227,0.698,0.667,0.6806,0.6595,0.6063,0.6191,0.5882,0.5189,0.5453,0.5513,0.5348,0.5357,0.5406,0.5418,0.5428,0.5394,0.5264,0.5332,0.5424,0.5387,0.4136,0.3249,0.2858,0.1626,0.0876,0.0861,0.1166,0.112,0.0,0.0,0.0,0.0,0.0,0.0,0.0,0.0,0.0,0.0,0.0,0.032,0.1075,0.0457,-0.0,-0.0,-0.0,-0.0,-0.0,-0.0,-0.0,-0.0,-0.0,-0.0,-0.0,-0.0,-0.0,-0.0,-0.0,-0.0,-0.0,-0.0,-0.0,-0.0,-0.0,-0.0,-0.0,-0.0,-0.0,-0.0,-0.0,-0.0,-0.0,-0.0,0.007,0.0489,0.021,-0.0,-0.0,-0.0,-0.0,-0.0,0.0559,0.1115,0.1172,0.1177,0.1172,0.1149,0.1154,0.1164,0.7593,0.7545,0.6948,0.6695,0.6709,0.6434,0.6386,0.6572,0.7102,0.7318,0.7363,0.7974,0.7522,0.6391,0.7108,0.7588,0.7812,0.7371,0.7222,0.7452,0.7395,0.7484,0.748,0.748,0.7483,0.7501,0.7335,0.7167,0.6989,0.7056,0.6891,0.6704,0.668,0.6289,0.5494,0.5751,0.5613,0.5279,0.531,0.5396,0.5394,0.5311,0.5172,0.4985,0.5248,0.5251,0.5036,0.2373,0.0896,0.0893,0.0843,0.0807,0.0837,0.0755,0.0725,0.0,0.0665,0.0,0.0,0.0,0.0,0.0,0.0,0.0,0.0,-0.0,-0.0,-0.0,-0.0,-0.0,-0.0,-0.0,-0.0,-0.0,-0.0,-0.0,-0.0,-0.0,-0.0,-0.0,-0.0,-0.0,-0.0,-0.0,-0.0,-0.0,-0.0,-0.0,-0.0,-0.0,-0.0,-0.0,-0.0,-0.0,-0.0,-0.0,-0.0,-0.0,-0.0,-0.0,0.0872,0.0582,-0.0,-0.0,-0.0,-0.0,-0.0,-0.0,-0.0,-0.0,-0.0,-0.0,-0.0,-0.0,-0.0,0.6785,0.6891,0.6634,0.6658,0.6868,0.6692,0.6634,0.6641,0.6609,0.6419,0.6307,0.6554,0.6531,0.6304,0.6464,0.663,0.6663,0.6671,0.6821,0.7049,0.7034,0.7173,0.7484,0.748,0.7544,0.7516,0.7431,0.7342,0.7171,0.7171,0.7013,0.67,0.6619,0.6297,0.5832,0.0,0.0,0.0,0.5248,0.5407,0.5368,0.4741,0.4417,0.4393,0.4791,0.0,0.3512,0.1816,0.0862,0.0898,0.083,0.0,0.0,0.0,0.0,0.0,0.0,0.0,0.0,0.0,0.0,0.0,0.0778,0.0461,-0.0,-0.0,-0.0,-0.0,-0.0,-0.0,-0.0,-0.0,-0.0,-0.0,-0.0,-0.0,-0.0,-0.0,-0.0,-0.0,-0.0,-0.0,-0.0,-0.0,-0.0,-0.0,-0.0,-0.0,-0.0,-0.0,-0.0,-0.0,-0.0,-0.0,-0.0,-0.0,-0.0,-0.0,-0.0,-0.0,-0.0,0.073,0.0729,-0.0,-0.0,-0.0,-0.0,-0.0,-0.0,-0.0,-0.0,-0.0,-0.0,-0.0,-0.0,0.6746,0.681,0.6807,0.6892,0.0,0.6949,0.6919,0.6895,0.6603,0.6434,0.6284,0.6363,0.6569,0.6784,0.6623,0.6707,0.6853,0.6847,0.7041,0.7195,0.7207,0.7327,0.748,0.748,0.748,0.748,0.748,0.7439,0.7358,0.735,0.7216,0.696,0.6885,0.6678,0.6431,0.6078,0.5448,0.464,0.4782,0.4788,0.4587,0.4204,0.3887,0.3645,0.3843,0.0,0.0,0.0,0.0,0.0,0.0,0.0,0.0,0.0,0.0,0.0895,0.0868,0.0858,0.0874,0.0889,0.0917,0.096,0.0784,0.0476,-0.0,-0.0,-0.0,-0.0,-0.0,-0.0,-0.0,-0.0,-0.0,-0.0,-0.0,-0.0,-0.0,-0.0,-0.0,-0.0,-0.0,-0.0,-0.0,-0.0,-0.0,-0.0,-0.0,-0.0,-0.0,-0.0,-0.0,-0.0,-0.0,-0.0,-0.0,-0.0,-0.0,-0.0,-0.0,-0.0,-0.0,0.0378,0.0605,0.0606,0.0303,-0.0,-0.0,-0.0,-0.0,-0.0,-0.0,-0.0,-0.0,-0.0,-0.0,0.6943,0.6973,0.6977,0.7115,0.7139,0.7139,0.7139,0.7122,0.6858,0.0,0.0,0.6566,0.6827,0.7177,0.6964,0.7043,0.7205,0.7175,0.7254,0.7427,0.7447,0.7476,0.748,0.7447,0.7452,0.748,0.748,0.7407,0.733,0.733,0.7183,0.6982,0.6895,0.6892,0.674,0.6149,0.531,0.4208,0.4145,0.4032,0.3924,0.3777,0.3468,0.2939,0.281,0.2654,0.2408,0.1445,0.101,0.1128,0.1043,0.1031,0.0978,0.0922,0.0935,0.0903,0.0967,0.0916,0.1002,0.1027,0.1044,0.0983,0.0737,0.0466,-0.0,-0.0,-0.0,-0.0,-0.0,-0.0,-0.0,-0.0,-0.0,-0.0,-0.0,-0.0,-0.0,-0.0,-0.0,-0.0,-0.0,-0.0,-0.0,-0.0,-0.0,-0.0,-0.0,-0.0,-0.0,-0.0,-0.0,-0.0,-0.0,-0.0,-0.0,-0.0,-0.0,-0.0,-0.0,-0.0,-0.0,-0.0,-0.0,0.0783,0.0471,-0.0,-0.0,-0.0,-0.0,-0.0,-0.0,-0.0,-0.0,-0.0,-0.0,0.6997,0.7102,0.7,0.7027,0.7139,0.7139,0.7139,0.7126,0.6966,0.6739,0.6612,0.6678,0.6764,0.6861,0.6764,0.6699,0.6669,0.6934,0.7079,0.6954,0.7084,0.7242,0.7472,0.7254,0.7262,0.7476,0.748,0.7253,0.6791,0.6714,0.6391,0.5902,0.5825,0.5838,0.5706,0.4387,0.3665,0.363,0.3458,0.3658,0.4193,0.3597,0.3111,0.2662,0.1797,0.13,0.1235,0.117,0.1105,0.1105,0.11,0.1049,0.1012,0.1013,0.1027,0.1054,0.1057,0.1059,0.1063,0.1067,0.1081,0.1106,0.1044,0.0694,-0.0,-0.0,-0.0,-0.0,-0.0,-0.0,-0.0,-0.0,-0.0,-0.0,-0.0,-0.0,-0.0,-0.0,-0.0,-0.0,-0.0,-0.0,-0.0,-0.0,-0.0,-0.0,-0.0,-0.0,-0.0,-0.0,-0.0,-0.0,-0.0,-0.0,-0.0,-0.0,-0.0,-0.0,-0.0,-0.0,-0.0,-0.0,-0.0,-0.0,-0.0,-0.0,-0.0,-0.0,-0.0,-0.0,-0.0,-0.0,-0.0,-0.0,-0.0,0.7082,0.7041,0.7068,0.7078,0.7139,0.7139,0.7139,0.7136,0.7071,0.7007,0.6857,0.6939,0.6939,0.6926,0.6951,0.6962,0.6973,0.6958,0.6984,0.7052,0.695,0.708,0.7153,0.6693,0.6475,0.6468,0.6475,0.6321,0.6093,0.586,0.5547,0.5315,0.5479,0.5573,0.5523,0.4254,0.3314,0.2976,0.3109,0.3297,0.3431,0.295,0.2457,0.2068,0.1421,0.1035,0.1036,0.1101,0.1101,0.11,0.1101,0.1107,0.1055,0.1057,0.1062,0.1074,0.1076,0.1076,0.1076,0.1091,0.1113,0.1143,0.1146,0.0937,0.0292,0.0073,-0.0,-0.0,-0.0,-0.0,-0.0,-0.0,-0.0,-0.0,-0.0,-0.0,-0.0,-0.0,-0.0,-0.0,-0.0,-0.0,-0.0,-0.0,-0.0,-0.0,-0.0,-0.0,-0.0,-0.0,-0.0,-0.0,-0.0,-0.0,-0.0,-0.0,-0.0,-0.0,-0.0,-0.0,-0.0,-0.0,-0.0,-0.0,-0.0,-0.0,-0.0,-0.0,-0.0,-0.0,-0.0,-0.0,-0.0,-0.0,-0.0,0.7139,0.7139,0.7139,0.7139,0.7139,0.7139,0.7139,0.7139,0.7139,0.7139,0.7139,0.7139,0.7139,0.7129,0.7194,0.7126,0.6933,0.6701,0.6553,0.6454,0.6271,0.6452,0.6846,0.5986,0.5301,0.4974,0.528,0.536,0.5074,0.4927,0.4691,0.4538,0.4781,0.4974,0.5196,0.427,0.3398,0.2591,0.2673,0.2701,0.2682,0.2355,0.2057,0.1645,0.143,0.1293,0.1095,0.1083,0.1079,0.1085,0.108,0.1076,0.1076,0.1082,0.1086,0.1087,0.1092,0.1165,0.1166,0.1118,0.1144,0.1174,0.1176,0.0966,0.0532,0.0228,-0.0,-0.0,-0.0,-0.0,-0.0,-0.0,-0.0,-0.0,-0.0,-0.0,-0.0,-0.0,-0.0,-0.0,-0.0,-0.0,-0.0,-0.0,-0.0,-0.0,-0.0,-0.0,-0.0,-0.0,-0.0,-0.0,-0.0,-0.0,-0.0,-0.0,-0.0,-0.0,-0.0,-0.0,-0.0,-0.0,-0.0,-0.0,-0.0,-0.0,-0.0,-0.0,-0.0,-0.0,-0.0,-0.0,-0.0,-0.0,-0.0,0.7139,0.7139,0.7139,0.7139,0.7139,0.7139,0.7139,0.7139,0.7139,0.7139,0.7143,0.7139,0.7051,0.7139,0.7034,0.6529,0.5705,0.5838,0.5373,0.4538,0.4329,0.5261,0.6637,0.5152,0.3727,0.3091,0.428,0.4454,0.3754,0.399,0.3679,0.2823,0.2744,0.3212,0.3837,0.3837,0.3359,0.2493,0.1824,0.1707,0.225,0.2243,0.2025,0.1738,0.191,0.1767,0.1151,0.1105,0.1089,0.1112,0.1091,0.1076,0.1079,0.117,0.1187,0.1117,0.1142,0.1158,0.1158,0.116,0.1175,0.1204,0.1207,0.1068,0.0624,0.0235,-0.0,-0.0,-0.0,-0.0,-0.0,-0.0,-0.0,-0.0,-0.0,-0.0,-0.0,-0.0,-0.0,-0.0,-0.0,-0.0,-0.0,-0.0,-0.0,-0.0,-0.0,-0.0,-0.0,-0.0,-0.0,-0.0,-0.0,-0.0,-0.0,-0.0,-0.0,-0.0,-0.0,-0.0,-0.0,-0.0,-0.0,-0.0,-0.0,-0.0,-0.0,-0.0,-0.0,-0.0,-0.0,-0.0,-0.0,-0.0,-0.0,0.7139,0.7139,0.7139,0.7139,0.7139,0.7139,0.7139,0.7051,0.652,0.6615,0.689,0.5897,0.5442,0.544,0.5442,0.5182,0.4699,0.472,0.4533,0.4066,0.3991,0.4508,0.5231,0.4237,0.2951,0.187,0.2944,0.3335,0.2896,0.282,0.2429,0.1883,0.1803,0.1959,0.2273,0.2352,0.2117,0.1803,0.1474,0.146,0.1673,0.1849,0.1822,0.1675,0.1659,0.1441,0.1162,0.1212,0.1207,0.1074,0.1065,0.1129,0.1129,0.1212,0.122,0.1149,0.1159,0.1174,0.1192,0.1194,0.1206,0.1236,0.1239,0.1095,0.064,0.0241,-0.0807,-0.2693,-0.1375,-0.0,-0.0,-0.0,-0.0,-0.0,-0.0,-0.0,-0.0,-0.0,-0.0,-0.0,-0.0,-0.0,-0.0,-0.2022,-0.3216,-0.3204,-0.254,-0.1729,-0.1725,-0.1723,-0.1723,-0.172,-0.1692,-0.1136,-0.0,-0.0,-0.0,-0.0,-0.0,-0.0,-0.0,-0.0,-0.0,-0.0,-0.0,-0.0,-0.0,-0.0,-0.0,-0.0,-0.0,-0.0,-0.0,-0.0,-0.0,0.7139,0.7139,0.7139,0.6959,0.6697,0.6697,0.6605,0.6248,0.5628,0.5722,0.6088,0.465,0.3751,0.3568,0.4018,0.4066,0.3725,0.3729,0.3564,0.3317,0.3186,0.3312,0.3441,0.2983,0.2143,0.1484,0.1946,0.2338,0.2272,0.1961,0.157,0.1335,0.1334,0.1333,0.1333,0.1333,0.1333,0.1333,0.1333,0.1334,0.1329,0.1518,0.1564,0.1563,0.1331,0.1182,0.1116,0.1249,0.1244,0.1178,0.1171,0.1166,0.1239,0.1247,0.1108,0.0967,0.0819,0.0675,0.0688,0.0688,0.0696,0.0711,0.0713,0.048,0.0082,-0.0,-0.1488,-0.4024,-0.2836,-0.0,-0.0822,-0.0833,-0.0588,-0.0,-0.0,-0.0,-0.0,-0.0674,-0.0,-0.1513,-0.0,-0.0825,-0.1253,-0.3487,-0.544,-0.5262,-0.4461,-0.3677,-0.3677,-0.3683,-0.3683,-0.3677,-0.3677,-0.284,-0.1231,-0.0,-0.0831,-0.0,-0.0,-0.0,-0.082,-0.0,-0.0,-0.0,-0.0,-0.0,-0.0,-0.0,-0.0,-0.0,-0.0,-0.0,-0.0,-0.0,-0.0,0.7139,0.7051,0.7051,0.6517,0.5719,0.5719,0.5272,0.4643,0.4376,0.4378,0.438,0.3401,0.2417,0.1788,0.3395,0.3714,0.2948,0.2803,0.2414,0.1631,0.1509,0.1491,0.1412,0.1304,0.1305,0.1331,0.1619,0.1849,0.188,0.157,0.1336,0.1336,0.1335,0.1335,0.1336,0.1335,0.1335,0.1335,0.1335,0.1335,0.1336,0.1332,0.1327,0.1324,0.1301,0.1299,0.1318,0.1272,0.1328,0.1284,0.1259,0.1315,0.1243,0.127,0.0916,0.0389,-0.0156,-0.047,-0.047,-0.0393,-0.0476,-0.0565,-0.073,-0.1065,-0.1338,-0.0922,-0.1511,-0.3028,-0.4464,-0.4381,-0.3037,-0.2787,-0.2112,-0.0675,-0.0,-0.0,-0.0,-0.2883,-0.516,-0.4999,-0.3716,-0.2867,-0.2864,-0.4459,-0.549,-0.5745,-0.5558,-0.5379,-0.5293,-0.5379,-0.5379,-0.5377,-0.5277,-0.4884,-0.3249,-0.2753,-0.2747,-0.2727,-0.2725,-0.2735,-0.2768,-0.0,-0.1676,-0.0722,-0.0,-0.0,-0.0,-0.0,-0.0,-0.0,-0.0,-0.0,-0.0,-0.0,-0.0,0.5894,0.5267,0.5267,0.509,0.4825,0.4823,0.4645,0.4287,0.3667,0.3762,0.3942,0.2689,0.1703,0.1434,0.215,0.2231,0.1947,0.1907,0.1709,0.1352,0.1309,0.1286,0.1284,0.1255,0.1246,0.1332,0.1402,0.148,0.149,0.1335,0.1336,0.1336,0.1336,0.1336,0.1336,0.1336,0.1336,0.1336,0.1336,0.1336,0.1336,0.1336,0.1336,0.1335,0.1325,0.1324,0.1335,0.1313,0.1306,0.1318,0.1306,0.0918,0.023,0.0077,-0.0,-0.0236,-0.0557,-0.0642,-0.0643,-0.0732,-0.0905,-0.1241,-0.166,-0.2179,-0.2732,-0.3262,-0.397,-0.4635,-0.5205,-0.53,-0.4922,-0.4646,-0.4389,-0.3685,-0.254,-0.1836,-0.2015,-0.3157,-0.4303,-0.528,-0.501,-0.4741,-0.4727,-0.5269,-0.5711,-0.5711,-0.5706,-0.5695,-0.5697,-0.57,-0.5689,-0.57,-0.5697,-0.5497,-0.4994,-0.467,-0.468,-0.4661,-0.4651,-0.4649,-0.4599,-0.4465,-0.3727,-0.3028,-0.2039,-0.0,-0.0,-0.0,-0.0,-0.0,-0.0,-0.0,-0.0,-0.0,-0.0,0.4914,0.4378,0.4289,0.4109,0.3844,0.3844,0.3666,0.3309,0.2686,0.278,0.305,0.1973,0.1436,0.1436,0.1436,0.1436,0.1431,0.1404,0.139,0.1385,0.134,0.1317,0.1312,0.1286,0.1351,0.135,0.134,0.1336,0.1336,0.1336,0.1336,0.1336,0.1336,0.1336,0.1336,0.1336,0.1336,0.1336,0.1336,0.1336,0.1337,0.1346,0.1346,0.1262,0.1036,0.1036,0.126,0.1336,0.1336,0.1337,0.1344,0.0478,-0.1043,-0.1044,-0.0964,-0.0965,-0.1221,-0.1396,-0.1561,-0.1582,-0.1852,-0.237,-0.2885,-0.3427,-0.3934,-0.5007,-0.5582,-0.5725,-0.5744,-0.5741,-0.5738,-0.5652,-0.5662,-0.5573,-0.4576,-0.3855,-0.3765,-0.3853,-0.448,-0.5379,-0.5644,-0.5654,-0.5665,-0.5654,-0.5735,-0.5741,-0.5738,-0.5735,-0.5733,-0.5733,-0.5733,-0.5733,-0.5719,-0.5711,-0.5398,-0.5284,-0.5318,-0.5381,-0.5357,-0.5611,-0.5692,-0.5729,-0.5604,-0.5087,-0.3723,-0.1608,-0.0,-0.0,-0.0,-0.0,-0.0,-0.0,-0.0,-0.0,-0.0,0.4289,0.4109,0.4289,0.3667,0.2955,0.2867,0.2331,0.1704,0.1525,0.1615,0.1705,0.1436,0.1436,0.1436,0.1436,0.1436,0.143,0.1407,0.1395,0.1391,0.1363,0.1348,0.1346,0.1317,0.1301,0.1297,0.1351,0.1337,0.1336,0.1336,0.1336,0.1336,0.1336,0.1336,0.1336,0.1336,0.1336,0.1258,0.1179,0.118,0.1262,0.1125,0.1127,0.1033,0.041,0.0328,0.1185,0.1263,0.1186,0.1029,0.1045,-0.0,-0.2084,-0.2007,-0.1677,-0.1756,-0.2267,-0.2859,-0.3193,-0.3286,-0.3415,-0.3972,-0.4506,-0.472,-0.4882,-0.5356,-0.5725,-0.5733,-0.5733,-0.5733,-0.5733,-0.5735,-0.5738,-0.5746,-0.5387,-0.5387,-0.5484,-0.5662,-0.5654,-0.5738,-0.5735,-0.5735,-0.5735,-0.5735,-0.5735,-0.5735,-0.5733,-0.5733,-0.5733,-0.5733,-0.5733,-0.5733,-0.5708,-0.5687,-0.5708,-0.5725,-0.5711,-0.5609,-0.5585,-0.5744,-0.5717,-0.5731,-0.5725,-0.5349,-0.4905,-0.0,-0.0,-0.0,-0.0,-0.0,-0.0,-0.0,-0.0,-0.0,-0.0,0.2955,0.2329,0.2329,0.2151,0.1883,0.1882,0.1704,0.1436,0.1436,0.1436,0.1436,0.1436,0.1436,0.1436,0.1436,0.1436,0.1434,0.1425,0.1421,0.1416,0.139,0.1377,0.1371,0.1348,0.1323,0.1305,0.1293,0.1277,0.134,0.1337,0.1336,0.1336,0.1336,0.1336,0.1336,0.1336,0.1336,0.1179,0.0393,0.0158,0.0482,0.0162,-0.0082,-0.0165,-0.0417,-0.0417,-0.0165,0.0741,0.0412,-0.1152,-0.1325,-0.1836,-0.2606,-0.2524,-0.2356,-0.2443,-0.2902,-0.3269,-0.3445,-0.383,-0.4218,-0.4689,-0.487,-0.5151,-0.5455,-0.5555,-0.5733,-0.5733,-0.5733,-0.5733,-0.5733,-0.5733,-0.5735,-0.5738,-0.5738,-0.5741,-0.5744,-0.5741,-0.5735,-0.5735,-0.5733,-0.5733,-0.5733,-0.5733,-0.5733,-0.5725,-0.5725,-0.5725,-0.573,-0.5719,-0.5733,-0.5733,-0.5678,-0.5542,-0.5635,-0.5621,-0.56,-0.5629,-0.5665,-0.5719,-0.5727,-0.5733,-0.5738,-0.5552,-0.5198,-0.0,-0.0,-0.0,-0.0,-0.0,-0.0,-0.0,-0.0,-0.0,-0.0,0.1973,0.1436,0.1436,0.1436,0.1436,0.1436,0.1436,0.1436,0.1436,0.1436,0.1436,0.1436,0.1436,0.1436,0.1436,0.1436,0.1436,0.1436,0.1436,0.1433,0.1417,0.1407,0.1403,0.1377,0.1348,0.1324,0.132,0.1303,0.1275,0.1273,0.1348,0.1338,0.1336,0.1336,0.1336,0.1258,0.1179,0.055,-0.0238,-0.048,-0.0325,-0.0495,-0.0752,-0.0841,-0.1025,-0.1028,-0.0766,-0.0428,-0.1025,-0.2452,-0.2965,-0.3246,-0.3358,-0.3363,-0.3274,-0.3368,-0.3571,-0.3864,-0.4047,-0.4349,-0.4743,-0.5191,-0.528,-0.5371,-0.5644,-0.5733,-0.5733,-0.5733,-0.5733,-0.5733,-0.5733,-0.5733,-0.5733,-0.5733,-0.5733,-0.5733,-0.5733,-0.5733,-0.5733,-0.5733,-0.5733,-0.5733,-0.5733,-0.5733,-0.5711,-0.5684,-0.5665,-0.5665,-0.5665,-0.5662,-0.5684,-0.5703,-0.5606,-0.5547,-0.5475,-0.5518,-0.5472,-0.5518,-0.5578,-0.5659,-0.5714,-0.5727,-0.5733,-0.5606,-0.5331,-0.444,-0.0,-0.0,-0.0,-0.0,-0.0,-0.0,-0.0,-0.0,-0.0,0.1436,0.1436,0.1436,0.1436,0.1436,0.1436,0.1436,0.1436,0.1436,0.1436,0.1436,0.1436,0.1436,0.1436,0.1436,0.1436,0.1436,0.1436,0.1436,0.1436,0.1431,0.1431,0.1426,0.1404,0.1378,0.1354,0.135,0.1331,0.1299,0.1298,0.1287,0.1339,0.1179,0.1258,0.1258,0.1336,0.0629,-0.0551,-0.0882,-0.0973,-0.0816,-0.1017,-0.1119,-0.1188,-0.1751,-0.1769,-0.1309,-0.2204,-0.2894,-0.3069,-0.371,-0.4212,-0.4372,-0.4302,-0.419,-0.4184,-0.4295,-0.4556,-0.4828,-0.5006,-0.5191,-0.5552,-0.5644,-0.5733,-0.5733,-0.5733,-0.5746,-0.5757,-0.5744,-0.5741,-0.5749,-0.5757,-0.5757,-0.5746,-0.5744,-0.5733,-0.5719,-0.5722,-0.5719,-0.5708,-0.5716,-0.5727,-0.5719,-0.5714,-0.564,-0.5597,-0.547,-0.5542,-0.5486,-0.551,-0.5539,-0.5561,-0.567,-0.561,-0.5529,-0.5415,-0.5388,-0.5496,-0.5532,-0.5572,-0.5657,-0.5678,-0.5684,-0.5561,-0.5434,-0.4472,-0.0,-0.0,-0.0,-0.0,-0.0,-0.0,-0.0,-0.0,-0.0,0.1436,0.1436,0.1436,0.1436,0.1436,0.1436,0.1436,0.1436,0.1436,0.1436,0.1436,0.1436,0.1436,0.1436,0.1436,0.1436,0.1436,0.1436,0.1436,0.1436,0.1436,0.1436,0.1435,0.1427,0.1408,0.1382,0.1376,0.1352,0.1306,0.1221,0.1287,0.1259,0.0786,0.0786,0.1179,0.1257,0.0079,-0.1735,-0.2171,-0.1968,-0.1668,-0.231,-0.2794,-0.2915,-0.3296,-0.3124,-0.2572,-0.4018,-0.4198,-0.3089,-0.3804,-0.4632,-0.5112,-0.4661,-0.4387,-0.4389,-0.4656,-0.4832,-0.501,-0.5282,-0.5552,-0.5644,-0.5733,-0.5733,-0.5733,-0.5733,-0.5773,-0.5814,-0.5793,-0.5776,-0.5839,-0.5855,-0.5855,-0.585,-0.5779,-0.5697,-0.564,-0.5585,-0.5692,-0.5589,-0.5589,-0.5643,-0.567,-0.5591,-0.5502,-0.551,-0.5474,-0.5447,-0.5496,-0.5515,-0.5534,-0.5594,-0.561,-0.5556,-0.5474,-0.5349,-0.5336,-0.5472,-0.5496,-0.5464,-0.5537,-0.5583,-0.5497,-0.5483,-0.5422,-0.4806,-0.3815,-0.0,-0.0,-0.0,-0.0,-0.0,-0.0,-0.0,-0.0,0.1436,0.1436,0.1436,0.1436,0.1436,0.1436,0.1436,0.1436,0.1436,0.1436,0.1436,0.1436,0.1436,0.1436,0.1436,0.1436,0.1436,0.1436,0.1436,0.1436,0.1436,0.1436,0.1436,0.1435,0.1426,0.141,0.1395,0.1194,0.0994,0.0899,0.0803,0.0473,0.0079,0.0157,0.0393,0.0471,-0.0471,-0.2212,-0.2916,-0.299,-0.2522,-0.3293,-0.3708,-0.3937,-0.421,-0.4026,-0.3755,-0.4924,-0.5109,-0.4387,-0.4656,-0.5196,-0.556,-0.5198,-0.4924,-0.4924,-0.5193,-0.5282,-0.5371,-0.5552,-0.5733,-0.5733,-0.5733,-0.5733,-0.5746,-0.5681,-0.5751,-0.5877,-0.5971,-0.6012,-0.595,-0.5937,-0.5885,-0.5825,-0.5771,-0.5684,-0.5564,-0.5523,-0.561,-0.5551,-0.554,-0.5486,-0.5561,-0.548,-0.5404,-0.5377,-0.533,-0.5368,-0.5431,-0.5434,-0.548,-0.557,-0.5561,-0.5496,-0.5488,-0.5398,-0.5336,-0.5455,-0.5483,-0.5439,-0.5442,-0.5494,-0.5477,-0.5461,-0.5407,-0.5063,-0.428,-0.3197,-0.0,-0.0,-0.0,-0.0,-0.0,-0.0,-0.0,0.1436,0.1436,0.1436,0.1436,0.1436,0.1436,0.1436,0.1436,0.1436,0.1436,0.1436,0.1436,0.1436,0.1436,0.1436,0.1436,0.1436,0.1436,0.1436,0.1436,0.1436,0.1436,0.1435,0.1427,0.116,0.1068,0.1226,0.0856,0.0418,0.0246,-0.0,-0.0316,-0.055,-0.0628,-0.0471,-0.0627,-0.1488,-0.2612,-0.3527,-0.368,-0.3468,-0.4013,-0.4372,-0.4383,-0.4567,-0.4565,-0.4652,-0.5282,-0.556,-0.5657,-0.5738,-0.5644,-0.5733,-0.5644,-0.5644,-0.5644,-0.5644,-0.5644,-0.5644,-0.5644,-0.5733,-0.5733,-0.5733,-0.5744,-0.5771,-0.5748,-0.5818,-0.5983,-0.6225,-0.6255,-0.6181,-0.6002,-0.5931,-0.5863,-0.5803,-0.5593,-0.5515,-0.5483,-0.5472,-0.5523,-0.5518,-0.5446,-0.5408,-0.5336,-0.5311,-0.5292,-0.5265,-0.5341,-0.5377,-0.5374,-0.5477,-0.5624,-0.5559,-0.5439,-0.545,-0.5458,-0.5423,-0.5439,-0.5458,-0.5436,-0.5393,-0.5407,-0.5377,-0.5352,-0.5349,-0.5299,-0.5024,-0.3674,-0.2216,-0.0,-0.0,-0.0,-0.0,-0.0,-0.0,0.1436,0.1436,0.1436,0.1436,0.1436,0.1436,0.1436,0.1436,0.1436,0.1436,0.1436,0.1436,0.1436,0.1436,0.1436,0.1436,0.1345,0.1345,0.1436,0.1436,0.1436,0.1435,0.1339,0.1235,0.0707,0.0177,0.0345,0.0169,-0.0251,-0.041,-0.0482,-0.063,-0.1177,-0.1097,-0.0862,-0.1568,-0.251,-0.3405,-0.3946,-0.4112,-0.4061,-0.4461,-0.4832,-0.4832,-0.5193,-0.5374,-0.5374,-0.5555,-0.5735,-0.5733,-0.5733,-0.5733,-0.5733,-0.5733,-0.5733,-0.5733,-0.5733,-0.5733,-0.5733,-0.5733,-0.5733,-0.5733,-0.5746,-0.5771,-0.586,-0.5802,-0.5911,-0.6113,-0.6328,-0.6345,-0.6285,-0.6113,-0.6067,-0.6043,-0.5896,-0.5738,-0.57,-0.5689,-0.5578,-0.5426,-0.539,-0.539,-0.5339,-0.5292,-0.523,-0.5205,-0.5257,-0.533,-0.5347,-0.5344,-0.5469,-0.5635,-0.5521,-0.5426,-0.5532,-0.5542,-0.5513,-0.5474,-0.5469,-0.5436,-0.5393,-0.5393,-0.5393,-0.536,-0.5317,-0.5282,-0.5168,-0.4566,-0.3118,-0.0,-0.0,-0.0,-0.0,-0.0,-0.0,0.1436,0.1436,0.1436,0.1436,0.1436,0.1436,0.1436,0.1436,0.1436,0.1436,0.1436,0.1436,0.1436,0.1436,0.1436,0.1436,0.1342,0.1064,0.0966,0.0961,0.114,0.1054,0.0261,-0.0173,-0.0781,-0.0797,-0.0343,-0.0505,-0.0917,-0.1139,-0.119,-0.1493,-0.1883,-0.1882,-0.1567,-0.2195,-0.2588,-0.3322,-0.4269,-0.4622,-0.448,-0.4988,-0.5371,-0.5371,-0.5552,-0.5733,-0.5644,-0.5733,-0.5733,-0.5733,-0.5733,-0.5733,-0.5733,-0.5733,-0.5733,-0.5733,-0.5733,-0.5733,-0.5733,-0.5733,-0.5733,-0.5738,-0.5776,-0.5836,-0.5928,-0.5901,-0.6024,-0.623,-0.6354,-0.6365,-0.6265,-0.6225,-0.6206,-0.614,-0.6024,-0.5882,-0.5814,-0.5719,-0.5602,-0.5426,-0.5396,-0.5404,-0.5358,-0.526,-0.5243,-0.5262,-0.5311,-0.5379,-0.5428,-0.5436,-0.5496,-0.5564,-0.5458,-0.5442,-0.5589,-0.5629,-0.5602,-0.5559,-0.5521,-0.5458,-0.5393,-0.5415,-0.5445,-0.5396,-0.5347,-0.533,-0.5202,-0.4601,-0.3865,-0.0,-0.0,-0.0,-0.0,-0.0,-0.0,0.1436,0.1436,0.1436,0.1436,0.1436,0.1436,0.1436,0.1436,0.1436,0.1436,0.1436,0.1436,0.1436,0.1436,0.1436,0.1345,0.1065,0.0785,0.0514,0.034,0.0692,0.0344,-0.0595,-0.1533,-0.1898,-0.1152,-0.0937,-0.117,-0.1569,-0.1774,-0.198,-0.2437,-0.2589,-0.243,-0.243,-0.2666,-0.2978,-0.3467,-0.4596,-0.5129,-0.4905,-0.5339,-0.5636,-0.5644,-0.5644,-0.5733,-0.5733,-0.5733,-0.5733,-0.5733,-0.5733,-0.5733,-0.5733,-0.5733,-0.5733,-0.5733,-0.5733,-0.5733,-0.5733,-0.5735,-0.5738,-0.5754,-0.5839,-0.5926,-0.5999,-0.6034,-0.6139,-0.6208,-0.635,-0.6377,-0.6306,-0.6295,-0.6246,-0.6181,-0.6138,-0.6064,-0.5953,-0.576,-0.567,-0.5526,-0.5426,-0.5382,-0.5368,-0.5309,-0.5314,-0.533,-0.5382,-0.5428,-0.548,-0.5513,-0.5556,-0.5567,-0.5483,-0.5504,-0.5643,-0.5687,-0.5662,-0.564,-0.5502,-0.5537,-0.5464,-0.5518,-0.5545,-0.5436,-0.5388,-0.5393,-0.5155,-0.4674,-0.3746,-0.2545,-0.0,-0.0,-0.0,-0.0,-0.0,0.1436,0.1436,0.1436,0.1436,0.1436,0.1436,0.1436,0.1436,0.1436,0.1436,0.1436,0.1436,0.1436,0.1435,0.1435,0.1155,0.0696,0.0341,-0.0,-0.0336,-0.0171,-0.0597,-0.1011,-0.2043,-0.2423,-0.2326,-0.1934,-0.1897,-0.2298,-0.251,-0.2631,-0.2915,-0.2982,-0.2902,-0.2898,-0.3132,-0.3761,-0.418,-0.5004,-0.5288,-0.5426,-0.5507,-0.5733,-0.5733,-0.5733,-0.5733,-0.5733,-0.5733,-0.5733,-0.5733,-0.5733,-0.5733,-0.573,-0.573,-0.5725,-0.5733,-0.5733,-0.5733,-0.5714,-0.5725,-0.5779,-0.5847,-0.589,-0.6015,-0.6143,-0.6144,-0.6216,-0.6278,-0.6412,-0.6426,-0.6412,-0.6391,-0.6399,-0.6352,-0.6285,-0.6222,-0.6168,-0.6048,-0.5847,-0.5643,-0.5491,-0.5382,-0.5401,-0.5401,-0.539,-0.5436,-0.5515,-0.5534,-0.5556,-0.5564,-0.5483,-0.548,-0.5456,-0.5605,-0.57,-0.5714,-0.5711,-0.5706,-0.5678,-0.5678,-0.564,-0.5676,-0.5648,-0.5499,-0.5395,-0.5438,-0.5102,-0.4751,-0.3554,-0.2256,-0.0,-0.0,-0.0,-0.0,-0.0,0.1436,0.1436,0.1436,0.1436,0.1436,0.1436,0.1436,0.1436,0.1436,0.1436,0.1436,0.1436,0.1436,0.1431,0.1416,0.1041,0.0422,-0.0416,-0.0738,-0.1063,-0.1326,-0.1589,-0.1657,-0.2368,-0.256,-0.2732,-0.2615,-0.2665,-0.2974,-0.2938,-0.3134,-0.339,-0.3452,-0.337,-0.3287,-0.3522,-0.4229,-0.4912,-0.5243,-0.5463,-0.5566,-0.57,-0.5719,-0.5733,-0.5733,-0.5733,-0.5733,-0.5733,-0.5733,-0.5733,-0.5733,-0.5733,-0.5719,-0.5687,-0.5673,-0.5716,-0.5725,-0.5697,-0.5563,-0.5643,-0.5598,-0.5798,-0.5866,-0.6018,-0.6208,-0.6317,-0.6275,-0.6415,-0.6437,-0.6437,-0.6431,-0.6437,-0.6437,-0.6429,-0.6382,-0.6331,-0.6276,-0.6214,-0.6018,-0.5782,-0.5676,-0.5594,-0.5443,-0.5432,-0.548,-0.5537,-0.5638,-0.5662,-0.5659,-0.5646,-0.5555,-0.5537,-0.5534,-0.5654,-0.5716,-0.5725,-0.5733,-0.5733,-0.5733,-0.5733,-0.5733,-0.573,-0.564,-0.5504,-0.5454,-0.5523,-0.514,-0.4674,-0.3327,-0.2302,-0.0,-0.0,-0.0,-0.0,-0.1167,0.1436,0.1436,0.1436,0.1436,0.1436,0.1436,0.1436,0.1436,0.1436,0.1436,0.1436,0.1346,0.1256,0.1158,0.0871,0.0591,-0.0081,-0.1134,-0.1518,-0.1828,-0.2179,-0.2521,-0.2601,-0.272,-0.2841,-0.3096,-0.3115,-0.3405,-0.3352,-0.3385,-0.3635,-0.3812,-0.394,-0.3995,-0.4068,-0.4148,-0.4543,-0.4846,-0.5243,-0.546,-0.5658,-0.5711,-0.5733,-0.5733,-0.5733,-0.5733,-0.5733,-0.5733,-0.5733,-0.5733,-0.5733,-0.5733,-0.5716,-0.564,-0.5624,-0.5678,-0.5673,-0.5605,-0.5553,-0.547,-0.5547,-0.579,-0.5882,-0.6062,-0.6244,-0.6377,-0.6431,-0.6437,-0.6437,-0.6437,-0.6437,-0.6437,-0.6437,-0.6437,-0.6429,-0.6407,-0.6347,-0.6282,-0.6211,-0.6032,-0.5901,-0.5763,-0.5563,-0.5596,-0.5657,-0.5665,-0.5763,-0.585,-0.5839,-0.5776,-0.5757,-0.5725,-0.5711,-0.5711,-0.573,-0.573,-0.5733,-0.5733,-0.5733,-0.5733,-0.5733,-0.5733,-0.5635,-0.5564,-0.5502,-0.5465,-0.507,-0.4882,-0.4322,-0.3826,-0.3659,-0.3489,-0.3408,-0.332,-0.3142,0.1436,0.1436,0.1436,0.1436,0.1436,0.1436,0.1436,0.1436,0.1436,0.1436,0.1346,0.1345,0.0986,0.0177,-0.0258,-0.075,-0.1218,-0.1514,-0.1892,-0.2283,-0.2404,-0.2491,-0.2544,-0.2665,-0.3117,-0.3458,-0.3376,-0.3311,-0.3503,-0.3837,-0.4112,-0.4428,-0.4418,-0.4462,-0.4623,-0.4701,-0.4937,-0.5061,-0.5257,-0.5474,-0.5643,-0.5711,-0.573,-0.5733,-0.5733,-0.5733,-0.5733,-0.5733,-0.5733,-0.5733,-0.5733,-0.5733,-0.573,-0.5727,-0.5651,-0.5572,-0.5483,-0.5409,-0.542,-0.5496,-0.5632,-0.5812,-0.5958,-0.617,-0.6331,-0.641,-0.6437,-0.6437,-0.6437,-0.6437,-0.6437,-0.6437,-0.6437,-0.6437,-0.6434,-0.6434,-0.6404,-0.6366,-0.6293,-0.6341,-0.6102,-0.5968,-0.5791,-0.5782,-0.5841,-0.5855,-0.5882,-0.5966,-0.5988,-0.5904,-0.5839,-0.5798,-0.5741,-0.5733,-0.5733,-0.5733,-0.5733,-0.5733,-0.5733,-0.5733,-0.5733,-0.5733,-0.5733,-0.5684,-0.5692,-0.5579,-0.5365,-0.5287,-0.5343,-0.5186,-0.4746,-0.4933,-0.5394,-0.5216,-0.4761,0.1436,0.1436,0.1436,0.1436,0.1436,0.1436,0.1436,0.1436,0.1436,0.1166,0.0987,0.1256,0.0354,-0.1124,-0.1352,-0.1318,-0.16,-0.1891,-0.2196,-0.2431,-0.2538,-0.2474,-0.2489,-0.259,-0.3019,-0.362,-0.3808,-0.3916,-0.4095,-0.4214,-0.4475,-0.479,-0.4729,-0.4781,-0.5018,-0.5018,-0.498,-0.5079,-0.5349,-0.5556,-0.5689,-0.5733,-0.5733,-0.5733,-0.5733,-0.5733,-0.5733,-0.5733,-0.5733,-0.5733,-0.5733,-0.5733,-0.5714,-0.5673,-0.5597,-0.547,-0.5439,-0.5379,-0.5388,-0.5485,-0.5635,-0.5779,-0.5934,-0.6105,-0.6344,-0.6437,-0.6437,-0.6437,-0.6437,-0.6437,-0.6437,-0.6437,-0.6437,-0.6437,-0.6437,-0.6437,-0.6437,-0.6431,-0.6391,-0.635,-0.6393,-0.6175,-0.5998,-0.5947,-0.6005,-0.5994,-0.6002,-0.6045,-0.6032,-0.595,-0.5893,-0.5852,-0.579,-0.5733,-0.5733,-0.5733,-0.5733,-0.5733,-0.5733,-0.5733,-0.5733,-0.5733,-0.5733,-0.5733,-0.5719,-0.5604,-0.5574,-0.559,-0.5542,-0.5646,-0.5657,-0.5749,-0.5749,-0.5662,-0.5333,0.1436,0.1436,0.1436,0.1436,0.1436,0.1436,0.1436,0.1346,0.1166,0.0897,0.0537,0.0445,-0.0695,-0.2186,-0.2078,-0.1873,-0.1885,-0.2273,-0.2431,-0.251,-0.2515,-0.2537,-0.2633,-0.2739,-0.3162,-0.38,-0.4001,-0.4258,-0.4577,-0.471,-0.4795,-0.5056,-0.4959,-0.5021,-0.5018,-0.5029,-0.5072,-0.5246,-0.5521,-0.5689,-0.5708,-0.5733,-0.5733,-0.5733,-0.5733,-0.5733,-0.5733,-0.5733,-0.5733,-0.5733,-0.5733,-0.5733,-0.5722,-0.5673,-0.5602,-0.548,-0.5496,-0.5472,-0.5469,-0.5513,-0.5521,-0.5741,-0.5926,-0.6159,-0.6372,-0.6437,-0.6437,-0.6437,-0.6437,-0.6437,-0.6437,-0.6437,-0.6437,-0.6437,-0.6437,-0.6437,-0.6437,-0.6434,-0.6431,-0.6401,-0.6361,-0.6333,-0.6206,-0.6179,-0.6168,-0.614,-0.614,-0.6149,-0.6089,-0.6015,-0.5939,-0.5893,-0.5795,-0.5738,-0.5733,-0.5733,-0.5733,-0.5733,-0.5733,-0.5733,-0.5733,-0.5733,-0.5733,-0.5733,-0.5733,-0.5722,-0.5697,-0.5716,-0.5735,-0.5738,-0.5741,-0.5738,-0.5738,-0.5752,-0.5831,0.1436,0.1436,0.1346,0.1346,0.1436,0.1436,0.1436,0.1256,0.0718,0.0448,0.0178,-0.0878,-0.179,-0.2472,-0.2532,-0.2418,-0.2431,-0.251,-0.251,-0.251,-0.2511,-0.2595,-0.2844,-0.3319,-0.3787,-0.3955,-0.4132,-0.4525,-0.4896,-0.4928,-0.5018,-0.5148,-0.5072,-0.5034,-0.4969,-0.5012,-0.5192,-0.5432,-0.5684,-0.5709,-0.5703,-0.5733,-0.5733,-0.5733,-0.5733,-0.5733,-0.5733,-0.5733,-0.5733,-0.5733,-0.5733,-0.5733,-0.5725,-0.5708,-0.5651,-0.5518,-0.5632,-0.5602,-0.5575,-0.5564,-0.5624,-0.5793,-0.6005,-0.6238,-0.6412,-0.6437,-0.6437,-0.6437,-0.6437,-0.6437,-0.6437,-0.6437,-0.6437,-0.6437,-0.6437,-0.6437,-0.6437,-0.6437,-0.6434,-0.6431,-0.641,-0.6382,-0.6374,-0.632,-0.6287,-0.626,-0.6279,-0.6285,-0.6192,-0.6111,-0.5999,-0.5915,-0.5801,-0.5744,-0.5735,-0.5733,-0.5733,-0.5733,-0.5733,-0.5733,-0.5733,-0.5733,-0.5733,-0.5733,-0.5733,-0.5733,-0.5733,-0.5733,-0.5733,-0.5733,-0.5735,-0.5744,-0.5798,-0.5844,-0.5934,0.1436,0.1346,0.0987,0.0987,0.1436,0.1436,0.1166,0.0807,0.0538,0.0089,-0.0352,-0.1654,-0.2461,-0.2546,-0.2598,-0.2568,-0.2516,-0.251,-0.2668,-0.2668,-0.2668,-0.2824,-0.3372,-0.3999,-0.4553,-0.4465,-0.4543,-0.4621,-0.4945,-0.5018,-0.5034,-0.5067,-0.5097,-0.5044,-0.5066,-0.5062,-0.5285,-0.5546,-0.5675,-0.5695,-0.5711,-0.5733,-0.5733,-0.5733,-0.5733,-0.5733,-0.5733,-0.5733,-0.5733,-0.5733,-0.5733,-0.5733,-0.5733,-0.5733,-0.5706,-0.5574,-0.5714,-0.5697,-0.5588,-0.5582,-0.5749,-0.5926,-0.6092,-0.6238,-0.641,-0.6437,-0.6437,-0.6437,-0.6437,-0.6437,-0.6437,-0.6437,-0.6437,-0.6437,-0.6437,-0.6437,-0.6437,-0.6437,-0.6437,-0.6434,-0.6434,-0.6423,-0.6423,-0.6423,-0.6399,-0.6382,-0.6404,-0.6396,-0.6282,-0.6165,-0.6043,-0.5923,-0.5806,-0.5746,-0.5735,-0.5733,-0.5733,-0.5733,-0.5733,-0.5733,-0.5733,-0.5733,-0.5733,-0.5733,-0.5733,-0.5733,-0.5733,-0.5733,-0.5733,-0.5733,-0.5746,-0.5765,-0.5836,-0.5934,-0.604,0.1256,0.1076,0.0628,0.0718,0.1076,0.0897,0.0538,0.009,-0.0179,-0.0709,-0.139,-0.2417,-0.2702,-0.2538,-0.2576,-0.2555,-0.2518,-0.2668,-0.2824,-0.2981,-0.3057,-0.3292,-0.3919,-0.447,-0.4865,-0.494,-0.4781,-0.4779,-0.5018,-0.5018,-0.5026,-0.5059,-0.5121,-0.5154,-0.5178,-0.5194,-0.5408,-0.5615,-0.5739,-0.573,-0.5733,-0.5733,-0.5733,-0.5733,-0.5733,-0.5733,-0.5733,-0.5733,-0.5733,-0.5733,-0.5733,-0.5733,-0.5733,-0.5733,-0.5733,-0.5733,-0.5733,-0.5733,-0.5738,-0.579,-0.5871,-0.6029,-0.6124,-0.6257,-0.6374,-0.6437,-0.6437,-0.6437,-0.6437,-0.6437,-0.6437,-0.6437,-0.6437,-0.6437,-0.6437,-0.6437,-0.6437,-0.6437,-0.6437,-0.6437,-0.6437,-0.6437,-0.6437,-0.6437,-0.6429,-0.6412,-0.642,-0.6388,-0.6282,-0.6165,-0.6043,-0.5923,-0.5809,-0.5765,-0.5733,-0.5733,-0.5733,-0.5733,-0.5733,-0.5733,-0.5733,-0.5735,-0.5735,-0.5733,-0.5733,-0.5733,-0.5738,-0.5741,-0.5738,-0.5733,-0.5768,-0.5817,-0.5947,-0.6051,-0.6135,0.0987,0.0448,0.0359,0.0359,0.0269,-0.0359,-0.0628,-0.0717,-0.1343,-0.2034,-0.2596,-0.2719,-0.2659,-0.2593,-0.2544,-0.2522,-0.2672,-0.2904,-0.3139,-0.3294,-0.3444,-0.3752,-0.4068,-0.4623,-0.5021,-0.5018,-0.494,-0.4937,-0.5018,-0.5018,-0.5018,-0.5048,-0.5116,-0.525,-0.539,-0.5595,-0.571,-0.5675,-0.5728,-0.5711,-0.5733,-0.5733,-0.5733,-0.5733,-0.5733,-0.5733,-0.5733,-0.5733,-0.5733,-0.5733,-0.5733,-0.5733,-0.5733,-0.5733,-0.5733,-0.5733,-0.5733,-0.5733,-0.5738,-0.5836,-0.5947,-0.6064,-0.6146,-0.6271,-0.6393,-0.6437,-0.6437,-0.6437,-0.6437,-0.6437,-0.6437,-0.6437,-0.6437,-0.6437,-0.6437,-0.6437,-0.6437,-0.6437,-0.6437,-0.6437,-0.6437,-0.6437,-0.6437,-0.6437,-0.6437,-0.6434,-0.6437,-0.6377,-0.6279,-0.6165,-0.6043,-0.5923,-0.5812,-0.5763,-0.5733,-0.5733,-0.5733,-0.5733,-0.5741,-0.5746,-0.5746,-0.5746,-0.5744,-0.5744,-0.5768,-0.5798,-0.5773,-0.5749,-0.5814,-0.5885,-0.5858,-0.5909,-0.6045,-0.6154,-0.6225,-0.009,-0.0359,-0.0897,-0.1076,-0.0987,-0.0807,-0.0987,-0.1522,-0.2121,-0.2606,-0.2804,-0.2741,-0.2598,-0.2546,-0.2605,-0.2668,-0.2904,-0.2982,-0.3217,-0.3917,-0.391,-0.4148,-0.4543,-0.4779,-0.5018,-0.5018,-0.5018,-0.5018,-0.5018,-0.5018,-0.5018,-0.5045,-0.5055,-0.5173,-0.5269,-0.5389,-0.5344,-0.5608,-0.5703,-0.5733,-0.5733,-0.5733,-0.5733,-0.5733,-0.5733,-0.5733,-0.5733,-0.573,-0.5733,-0.573,-0.573,-0.5733,-0.5733,-0.5733,-0.5733,-0.5733,-0.5733,-0.5733,-0.576,-0.5839,-0.5956,-0.6056,-0.6143,-0.6257,-0.6396,-0.6434,-0.6437,-0.6437,-0.6437,-0.6437,-0.6437,-0.6437,-0.6437,-0.6437,-0.6437,-0.6437,-0.6437,-0.6437,-0.6437,-0.6437,-0.6437,-0.6437,-0.6437,-0.6437,-0.6437,-0.6437,-0.6437,-0.6377,-0.6282,-0.6165,-0.6043,-0.5923,-0.582,-0.5765,-0.5733,-0.5733,-0.5733,-0.5733,-0.5752,-0.5776,-0.5773,-0.5757,-0.5828,-0.5866,-0.5866,-0.5863,-0.5882,-0.5915,-0.601,-0.6062,-0.6007,-0.6002,-0.6111,-0.6208,-0.6282,-0.0802,-0.1166,-0.1615,-0.1974,-0.2064,-0.1705,-0.1795,-0.2238,-0.2653,-0.2867,-0.2892,-0.2745,-0.2602,-0.2555,-0.2678,-0.2746,-0.3139,-0.3452,-0.3684,-0.4384,-0.4307,-0.4543,-0.4859,-0.5018,-0.5018,-0.5018,-0.5018,-0.5018,-0.5018,-0.5018,-0.5045,-0.5094,-0.5151,-0.5226,-0.5368,-0.537,-0.5394,-0.564,-0.5689,-0.5733,-0.5733,-0.5733,-0.5733,-0.5733,-0.5733,-0.573,-0.5725,-0.5725,-0.5727,-0.5725,-0.5727,-0.5733,-0.5733,-0.5733,-0.5733,-0.5733,-0.5733,-0.5733,-0.576,-0.5782,-0.5907,-0.6067,-0.6111,-0.6238,-0.6391,-0.6434,-0.6437,-0.6437,-0.6437,-0.6437,-0.6437,-0.6437,-0.6437,-0.6437,-0.6437,-0.6437,-0.6437,-0.6437,-0.6437,-0.6437,-0.6437,-0.6437,-0.6437,-0.6437,-0.6437,-0.6437,-0.6437,-0.6363,-0.6293,-0.6181,-0.6064,-0.5942,-0.5847,-0.5798,-0.5757,-0.5733,-0.5733,-0.5733,-0.5752,-0.5776,-0.5771,-0.5757,-0.5874,-0.5969,-0.5934,-0.5934,-0.6026,-0.6092,-0.6119,-0.613,-0.6111,-0.6132,-0.6192,-0.6263,-0.6344,-0.1143,-0.1788,-0.1793,-0.2241,-0.278,-0.2685,-0.2778,-0.2873,-0.2868,-0.2921,-0.2865,-0.279,-0.2721,-0.2753,-0.3013,-0.3141,-0.3374,-0.3997,-0.4309,-0.4543,-0.4701,-0.4859,-0.494,-0.5018,-0.5018,-0.5018,-0.5018,-0.5018,-0.5018,-0.5018,-0.5069,-0.5159,-0.5283,-0.5355,-0.5485,-0.5578,-0.5597,-0.5648,-0.5692,-0.5727,-0.5733,-0.5819,-0.5908,-0.5908,-0.5813,-0.5708,-0.5885,-0.6163,-0.6068,-0.5888,-0.5714,-0.5725,-0.573,-0.5733,-0.5733,-0.5733,-0.5733,-0.5733,-0.5741,-0.5763,-0.5885,-0.6064,-0.6187,-0.6211,-0.6393,-0.6437,-0.6437,-0.6437,-0.6437,-0.6437,-0.6437,-0.6437,-0.6437,-0.6437,-0.6437,-0.6437,-0.6437,-0.6437,-0.6437,-0.6437,-0.6437,-0.6437,-0.6437,-0.6437,-0.6437,-0.6437,-0.6431,-0.6401,-0.6325,-0.623,-0.6111,-0.5977,-0.5893,-0.5836,-0.5798,-0.5768,-0.5771,-0.5784,-0.5744,-0.5752,-0.5746,-0.5784,-0.5888,-0.5958,-0.5956,-0.601,-0.6154,-0.6181,-0.6149,-0.6165,-0.6217,-0.6222,-0.6268,-0.6339,-0.641,-0.2248,-0.2409,-0.257,-0.2671,-0.2813,-0.2809,-0.2834,-0.2867,-0.2831,-0.2883,-0.2865,-0.2673,-0.2868,-0.3406,-0.3252,-0.3538,-0.3919,-0.4309,-0.4545,-0.4779,-0.4937,-0.5018,-0.5018,-0.5018,-0.5018,-0.5018,-0.5018,-0.5018,-0.5018,-0.5018,-0.5075,-0.5173,-0.5341,-0.5401,-0.5523,-0.5725,-0.5747,-0.5857,-0.5891,-0.5902,-0.5997,-0.6257,-0.6346,-0.6428,-0.6057,-0.5951,-0.6039,-0.7676,-0.758,-0.6219,-0.5874,-0.5706,-0.5703,-0.5722,-0.5733,-0.5733,-0.5733,-0.5735,-0.5749,-0.5809,-0.5918,-0.6059,-0.6189,-0.6314,-0.6399,-0.6437,-0.6437,-0.6437,-0.6437,-0.6437,-0.6437,-0.6437,-0.6437,-0.6437,-0.6437,-0.6437,-0.6437,-0.6437,-0.6437,-0.6437,-0.6437,-0.6437,-0.6437,-0.6437,-0.6437,-0.6437,-0.6429,-0.6407,-0.6372,-0.6282,-0.6187,-0.6056,-0.5961,-0.5912,-0.585,-0.5812,-0.5825,-0.5828,-0.5793,-0.5776,-0.5812,-0.5858,-0.5923,-0.6007,-0.6105,-0.6211,-0.6331,-0.6317,-0.6263,-0.6317,-0.6366,-0.6347,-0.6347,-0.6401,-0.6437,-0.2704,-0.2704,-0.2768,-0.2781,-0.2755,-0.2773,-0.2796,-0.28,-0.2788,-0.2849,-0.2877,-0.2744,-0.2855,-0.32,-0.3317,-0.3686,-0.4073,-0.4465,-0.4781,-0.4859,-0.5018,-0.5018,-0.5018,-0.5018,-0.5018,-0.5018,-0.5018,-0.5018,-0.5018,-0.5029,-0.5075,-0.5189,-0.5224,-0.5428,-0.5631,-0.5733,-0.6154,-0.6432,-0.6621,-0.6529,-0.67,-0.6956,-0.7132,-0.7126,-0.6656,-0.6558,-0.6731,-0.9012,-0.874,-0.7369,-0.7115,-0.6404,-0.6404,-0.6419,-0.6346,-0.6346,-0.6169,-0.5997,-0.5833,-0.5782,-0.5918,-0.6051,-0.6162,-0.6274,-0.6374,-0.6437,-0.6437,-0.6437,-0.6437,-0.6437,-0.6437,-0.6437,-0.6437,-0.6437,-0.6437,-0.6437,-0.6437,-0.6437,-0.6437,-0.6437,-0.6437,-0.6437,-0.6437,-0.6437,-0.6437,-0.6437,-0.6437,-0.6429,-0.6407,-0.6361,-0.6279,-0.6176,-0.6078,-0.5996,-0.5937,-0.589,-0.5907,-0.5904,-0.5852,-0.585,-0.5882,-0.592,-0.5975,-0.6138,-0.6323,-0.6385,-0.641,-0.642,-0.6401,-0.6437,-0.6437,-0.6407,-0.6388,-0.6407,-0.6434,-0.2631,-0.2673,-0.2684,-0.2694,-0.2699,-0.2743,-0.2734,-0.2695,-0.2738,-0.2796,-0.2887,-0.2744,-0.2699,-0.311,-0.3465,-0.3845,-0.4233,-0.4704,-0.4859,-0.5018,-0.5018,-0.5018,-0.5018,-0.5018,-0.5018,-0.5018,-0.5018,-0.5018,-0.5018,-0.5026,-0.5067,-0.5178,-0.511,-0.5215,-0.5576,-0.5689,-0.6373,-0.7863,-0.7952,-0.7856,-0.7665,-0.7742,-0.7918,-0.7918,-0.791,-0.7994,-0.8257,-0.9087,-1.0027,-0.9459,-0.8844,-0.786,-0.7698,-0.7214,-0.7044,-0.6779,-0.652,-0.6171,-0.5847,-0.5806,-0.5918,-0.6029,-0.6111,-0.6257,-0.6382,-0.6437,-0.6437,-0.6437,-0.6437,-0.6437,-0.6437,-0.6437,-0.6437,-0.6437,-0.6437,-0.6437,-0.6437,-0.6437,-0.6437,-0.6437,-0.6437,-0.6437,-0.6437,-0.6437,-0.6437,-0.6437,-0.6437,-0.6437,-0.6429,-0.6407,-0.6344,-0.6263,-0.6146,-0.6059,-0.6051,-0.6013,-0.601,-0.5988,-0.5942,-0.5926,-0.5958,-0.5991,-0.6024,-0.6192,-0.6358,-0.6404,-0.6434,-0.6437,-0.6437,-0.6437,-0.6437,-0.6437,-0.6434,-0.6431,-0.6431,-0.2583,-0.2559,-0.2604,-0.2649,-0.2684,-0.2658,-0.2639,-0.2624,-0.2638,-0.2737,-0.2828,-0.2717,-0.2933,-0.3449,-0.3704,-0.4075,-0.4626,-0.4784,-0.494,-0.5018,-0.5018,-0.5018,-0.5018,-0.5018,-0.5018,-0.5018,-0.5018,-0.5096,-0.5093,-0.5098,-0.5257,-0.5614,-0.5414,-0.5375,-0.565,-0.5846,-0.7163,-0.8999,-0.9165,-0.8723,-0.8101,-0.8448,-0.8627,-0.8803,-0.8973,-0.924,-0.9506,-0.9699,-0.9979,-0.9795,-0.9696,-0.94,-0.9345,-0.7916,-0.7139,-0.6779,-0.652,-0.6171,-0.595,-0.5946,-0.5988,-0.6102,-0.6211,-0.6333,-0.6418,-0.6431,-0.6437,-0.6437,-0.6437,-0.6437,-0.6437,-0.6437,-0.6437,-0.6437,-0.6437,-0.6437,-0.6437,-0.6437,-0.6437,-0.6437,-0.6437,-0.6437,-0.6437,-0.6437,-0.6437,-0.6437,-0.6437,-0.6437,-0.6437,-0.642,-0.6377,-0.6293,-0.6173,-0.6105,-0.6116,-0.6138,-0.6135,-0.6119,-0.6083,-0.6062,-0.6043,-0.6092,-0.6149,-0.6236,-0.6347,-0.6401,-0.6437,-0.6437,-0.6437,-0.6437,-0.6437,-0.6437,-0.6437,-0.6434,-0.6437,-0.2541,-0.2519,-0.2576,-0.2604,-0.2609,-0.2604,-0.2587,-0.2564,-0.2561,-0.266,-0.2775,-0.2844,-0.3233,-0.3848,-0.3938,-0.4231,-0.4779,-0.494,-0.5018,-0.5018,-0.5018,-0.5018,-0.5018,-0.5018,-0.5018,-0.5018,-0.5326,-0.5401,-0.5401,-0.5786,-0.6099,-0.6268,-0.5988,-0.5947,-0.6223,-0.7017,-0.8199,-0.9892,-0.999,-0.9456,-0.869,-0.9152,-0.9419,-0.9593,-0.9772,-1.0038,-1.0081,-1.01,-1.0119,-1.009,-1.0074,-1.0023,-0.9753,-0.9037,-0.8193,-0.7746,-0.7221,-0.652,-0.6323,-0.6167,-0.6136,-0.614,-0.6241,-0.6336,-0.6423,-0.6437,-0.6437,-0.6437,-0.6437,-0.6437,-0.6437,-0.6437,-0.6437,-0.6437,-0.6437,-0.6437,-0.6437,-0.6437,-0.6437,-0.6437,-0.6437,-0.6437,-0.6437,-0.6437,-0.6437,-0.6437,-0.6437,-0.6437,-0.6437,-0.6437,-0.6391,-0.6347,-0.6244,-0.6192,-0.6206,-0.6238,-0.6265,-0.6246,-0.6214,-0.6189,-0.617,-0.6219,-0.6276,-0.6336,-0.638,-0.6412,-0.6437,-0.6437,-0.6437,-0.6437,-0.6437,-0.6437,-0.6437,-0.6437,-0.6437,-0.2511,-0.2518,-0.2567,-0.264,-0.2602,-0.2645,-0.272,-0.2675,-0.2669,-0.2671,-0.2761,-0.3207,-0.3588,-0.3949,-0.4231,-0.4387,-0.4543,-0.4859,-0.5018,-0.5018,-0.5018,-0.5018,-0.5018,-0.5018,-0.5018,-0.5171,-0.5553,-0.5709,-0.5786,-0.6325,-0.6718,-0.6972,-0.7003,-0.6987,-0.7682,-0.869,-0.9927,-0.98,-0.9762,-0.9952,-0.9938,-0.9941,-0.9946,-0.9946,-1.0038,-1.0038,-1.01,-1.0148,-1.0181,-1.0323,-1.0348,-1.0133,-0.9957,-0.9477,-0.9174,-0.854,-0.7834,-0.7238,-0.6857,-0.6438,-0.629,-0.6116,-0.6219,-0.632,-0.6415,-0.6437,-0.6437,-0.6437,-0.6437,-0.6437,-0.6437,-0.6437,-0.6437,-0.6437,-0.6437,-0.6437,-0.6437,-0.6437,-0.6437,-0.6437,-0.6437,-0.6437,-0.6437,-0.6437,-0.6437,-0.6437,-0.6437,-0.6437,-0.6437,-0.6437,-0.6418,-0.6404,-0.6363,-0.6328,-0.6309,-0.6317,-0.635,-0.6339,-0.6306,-0.6295,-0.6295,-0.6323,-0.6352,-0.6396,-0.6434,-0.6437,-0.6437,-0.6437,-0.6437,-0.6437,-0.6437,-0.6437,-0.6437,-0.6437,-0.6437,-0.251,-0.2512,-0.2523,-0.2679,-0.2986,-0.3,-0.3229,-0.3532,-0.3528,-0.3448,-0.3374,-0.3847,-0.4399,-0.4784,-0.4465,-0.4543,-0.4781,-0.5018,-0.5018,-0.5018,-0.5018,-0.5018,-0.5093,-0.5246,-0.5096,-0.5323,-0.5786,-0.5864,-0.6325,-0.6784,-0.7169,-0.7565,-0.748,-0.7774,-0.8489,-0.9327,-0.9685,-0.9497,-0.9667,-0.988,-0.9762,-0.9847,-1.0024,-1.0038,-1.0038,-1.0038,-1.0057,-1.0076,-1.0445,-1.0609,-1.042,-1.0216,-0.9962,-0.9662,-0.9262,-0.8978,-0.8273,-0.762,-0.7075,-0.6679,-0.6532,-0.6173,-0.6282,-0.6382,-0.6437,-0.6437,-0.6437,-0.6437,-0.6437,-0.6437,-0.6437,-0.6437,-0.6437,-0.6437,-0.6437,-0.6437,-0.6437,-0.6437,-0.6437,-0.6437,-0.6437,-0.6437,-0.6437,-0.6437,-0.6437,-0.6437,-0.6437,-0.6437,-0.6437,-0.6437,-0.6437,-0.6437,-0.6437,-0.6437,-0.6407,-0.6388,-0.6404,-0.6399,-0.6393,-0.6372,-0.6372,-0.6401,-0.6431,-0.6437,-0.6437,-0.6437,-0.6437,-0.6437,-0.6437,-0.6437,-0.6437,-0.6437,-0.6437,-0.6437,-0.6437]},{"header":{"parameterUnit":"m.s-1","parameterCategory":1,"la1":31.0,"la2":29.5877,"lo1":-88.7671,"lo2":-86.6584,"dy":0.0162,"dx":0.0185,"nx":115,"ny":88,"refTime":"2025-07-05T12:00:00:Z","depth":0,"parameterNumber":3,"parameterNumberName":"V-component_of_WINDS"},"data":[0.0,0.0,0.0,0.0,0.0,0.0,0.0,0.0,0.0,0.0,0.0,0.0,0.0,0.0,0.0,0.0,0.0,0.0,0.0,0.0,0.0,0.0,0.0,0.0,0.0,0.0,0.0,0.0,0.0,0.0,0.0,0.0,0.0,0.0,0.0,0.0,0.0,0.0,0.0,0.0,0.0,0.0,0.0,0.0,0.0,0.0,0.0,0.0,0.0,0.0,0.0,0.0,0.0,0.0,0.0,0.0,0.0,0.0,0.0,0.0,0.0,0.0,0.0,0.0,0.0,0.0,0.0,0.0,0.0,0.0,0.0,0.0,0.0,0.0,0.0,0.0,0.0,0.0,0.0,0.0,0.0,0.0,0.0,0.0,0.0,0.0,0.0,0.0,0.0,0.0,0.0,0.0,0.0,0.0,0.0,0.0,0.0,0.0,0.0,0.0,0.0,0.0,0.0,0.0,0.0,0.0,0.0,0.0,0.0,0.0,0.0,0.0,0.0,0.0,0.0,0.0,0.0,0.0,0.0,0.0,0.0,0.0,0.0,0.0,0.0,0.0,0.0,0.0,0.0,0.0,0.0,0.0,0.0,0.0,0.0,0.0,0.0,0.0,0.0,0.0,0.0,0.0,0.0,0.0,0.0,0.0,0.0,0.0,0.0,0.0,0.0,0.0,0.0,0.0,0.0,0.0,0.0,0.0,0.0,0.0,0.0,0.0,0.0,0.0,0.0,0.0,0.0,0.0,0.0,0.0,0.0,0.0,0.0,0.0,0.0,0.0,0.0,0.0,0.0,0.0,0.0,0.0,0.0,0.0,0.0,0.0,0.0,0.0,0.0,0.0,0.0,0.0,0.0,0.0,0.0,0.0,0.0,0.0,0.0,0.0,0.0,0.0,0.0,0.0,0.0,0.0,0.0,0.0,0.0,0.0,0.0,0.0,0.0,0.0,0.0,0.0,0.0,0.0,0.0,0.0,0.0,0.0,0.0,0.0,0.0,0.0,0.0,0.0,0.0,0.0,0.0,0.0,0.0,0.0,0.0,0.0,0.0,0.0,0.0,0.0,0.0,0.0,0.0,0.0,0.0,0.0,0.0,0.0,0.0,0.0,0.0,0.0,0.0,0.0,0.0,0.0,0.0,0.0,0.0,0.0,0.0,0.0,0.0,0.0,0.0,0.0,0.0,0.0,0.0,0.0,0.0,0.0,0.0,0.0,0.0,0.0,0.0,0.0,0.0,0.0,0.0,0.0,0.0,0.0,0.0,0.0,0.0,0.0,0.0,0.0,0.0,0.0,0.0,0.0,0.0,0.0,0.0,0.0,0.0,0.0,0.0,0.0,0.0,0.0,0.0,0.0,0.0,0.0,0.0,0.0,0.0,0.0,0.0,0.0,0.0,0.0,0.0,0.0,0.0,0.0,0.0,0.0,0.0,0.0,0.0,0.0,0.0,0.0,0.0,0.0,0.0,0.0,0.0,0.0,0.0,0.0,0.0,0.0,0.0,0.0,0.0,0.0,0.0,0.0,0.0,0.0,0.0,0.0,0.0,0.0,0.0,0.0,0.0,0.0,0.0,0.0,0.0,0.0,0.0,0.0,0.0,0.0,0.0,0.0,0.0,0.0,0.0,0.0,0.0,0.0,0.0,0.0,0.0,0.0,0.0,0.0,0.0,0.0,0.0,0.0,0.0,0.0,0.0,0.0,0.0,0.0,0.0,0.0,0.0,0.0,0.0,0.0,0.0,0.0,0.0,0.0,0.0,0.0,0.0,0.0,0.0,0.0,0.0,0.0,0.0,0.0,0.0,0.0,0.0,0.0,0.0,0.0,0.0,0.0,0.0,0.0,0.0,0.0,0.0,0.0,0.0,0.0,0.0,0.0,0.0,0.0,0.0,0.0,0.0,0.0,0.0,0.0,0.0,0.0,0.0,0.0,0.0,0.0,0.0,0.0,0.0,0.0,0.0,0.0,0.0,0.0,0.0,0.0,0.0,0.0,0.0,0.0,0.0,0.0,0.0,0.0,0.0,0.0,0.0,0.0,0.0,0.0,0.0,0.0,0.0,0.0,0.0,0.0,0.0,0.0,0.0,0.0,0.0,0.0,0.0,0.0,0.0,0.0,0.0,0.0,0.0,0.0,0.0,0.0,0.0,0.0,0.0,0.0,0.0,0.0,0.0,0.0,0.0,0.0,0.0,0.0,0.0,0.0,0.0,0.0,0.0,0.0,0.0,0.0,0.0,0.0,0.0,0.0,0.0,0.0,0.0,0.0,0.0,0.0,0.0,0.0,0.0,0.0,0.0,0.0,0.0,0.0,0.0,0.0,0.0,0.0,0.0,0.0,0.0,0.0,0.0,0.0,0.0,0.0,0.0,0.0,0.0,0.0,0.0,0.0,0.0,0.0,0.0,0.0,0.0,0.0,0.0,0.0,0.0,0.0,0.0,0.0,0.0,0.0,0.0,0.0,0.0,0.0,0.0,0.0,0.0,0.0,0.0,0.0,0.0,0.0,0.0,0.0,0.0,0.0,0.0,0.0,0.0,0.0,0.0,0.0,0.0,0.0,0.0,0.0,0.0,0.0,0.0,0.0,0.0,0.0,0.0,0.0,0.0,0.0,0.0,0.0,0.0,0.0,0.0,0.0,0.0,0.0,0.0,0.0,0.0,0.0,0.0,0.0,0.0,0.0,0.0,0.0,0.0,0.0,0.0,0.0,0.0,0.0,0.0,0.0,0.0,0.0,0.0,0.0,0.0,0.0,0.0,0.0,0.0,0.0,0.0,0.0,0.0,0.0,0.0,0.0,0.0,0.0,0.0,0.0,0.0,0.0,0.0,0.0,0.0,0.0,0.0,0.0,0.0,0.0,0.0,0.0,0.0,0.0,0.0,0.0,0.0,0.0,0.0,0.0,0.0,0.0,0.0,0.0,0.0,0.0,0.0,0.0,0.0,0.0,0.0,0.0,0.0,0.0,0.0,0.0,0.0,0.0,0.0,0.0,0.0,0.0,0.0,0.0,0.0,0.0,0.0,0.0,0.0,0.0,0.0,0.0,0.0,0.0,0.0,0.0,0.0,0.0,0.0,0.0,0.0,0.0,0.0,0.0,0.0,0.0,0.0,0.0,0.0,0.0,0.0,0.0,0.0,0.0,0.0,0.0,0.0,0.0,0.0,0.0,0.0,0.0,0.0,0.0,0.0,0.0,0.0,0.0,0.0,0.0,0.0,0.0,0.0,0.0,0.0,0.0,0.0,0.0,0.0,0.0,0.0,0.0,0.0,0.0,0.0,0.0,0.0,0.0,0.0,0.0,0.0,0.0,0.0,0.0,0.0,0.0,0.0,0.0,0.0,0.0,0.0,0.0,0.0,0.0,0.0,0.0,0.0,0.0,0.0,0.0,0.0,0.0,0.0,0.0,0.0,0.0,0.0,0.0,0.0,0.0,0.0,0.0,0.0,0.0,0.0,0.0,0.0,0.0,0.0,0.0,0.0,0.0,0.0,0.0,0.0,0.0,0.0,0.0,0.0,0.0,0.0,0.0,0.0,0.0,0.0,0.0,0.0,0.0,0.0,0.0,0.0,0.0,0.0,0.0,0.0,0.0,0.0,0.0,0.0,0.0,0.0,0.0,0.0,0.0,0.0,0.0,0.0,0.0,0.0,0.0,0.0,0.0,0.0,0.0,0.0,0.0,0.0,0.0,0.0,0.0,0.0,0.0,0.0,0.0,0.0,0.0,0.0,0.0,0.0,0.0,0.0,0.0,0.0,0.0,0.0,0.0,0.0,0.0,0.0,0.0,0.0,0.0,0.0,0.0,0.0,0.0,0.0,0.0,0.0,0.0,0.0,0.0,0.0,0.0,0.0,0.0,0.0,0.0,0.0,0.0,0.0,0.0,0.0,0.0,0.0,0.0,0.0,0.0,0.0,0.0,0.0,0.0,0.0,0.0,0.0,0.0,0.0,0.0,0.0,0.0,0.0,0.0,0.0,0.0,0.0,0.0,0.0,0.0,0.0,0.0,0.0,0.0,0.0,0.0,0.0,0.0,0.0,0.0,0.0,0.0,0.0,0.0,0.0,0.0,0.0,0.0,0.0,0.0,0.0,0.0,0.0,0.0,0.0,0.0,0.0,0.0,0.0,0.0,0.0,0.0,0.0,0.0,0.0,0.0,0.0,0.0,0.0,0.0,0.0,0.0,0.0,0.0,0.0,0.0,0.0,0.0,0.0,0.0,0.0,0.0,0.0,0.0,0.0,0.0,0.0,0.0,0.0,0.0,0.0,0.0,-1.0311,0.0,0.0,0.0,0.0,0.0,0.0,0.0,0.0,0.0,0.0,0.0,0.0,0.0,0.0,0.0,0.0,0.0,0.0,0.0,0.0,0.0,0.0,0.0,0.0,0.0,0.0,0.0,0.0,0.0,0.0,0.0,0.0,0.0,0.0,0.0,0.0,0.0,0.0,0.0,0.0,0.0,0.0,0.0,0.0,0.0,0.0,0.0,0.0,0.0,0.0,0.0,0.0,0.0,0.0,0.0,0.0,0.0,0.0,0.0,0.0,0.0,0.0,0.0,0.0,0.0,0.0,0.0,0.0,0.0,0.0,0.0,0.0,0.0,0.0,0.0,0.0,0.0,0.0,0.0,0.0,0.0,0.0,0.0,0.0,0.0,0.0,0.0,0.0,0.0,0.0,0.0,0.0,0.0,0.0,0.0,0.0,0.0,0.0,0.0,0.0,0.0,0.0,0.0,0.0,0.0,0.0,0.0,0.0,0.0,0.0,-1.0323,-1.0304,-1.0252,-1.025,-1.0263,0.0,0.0,0.0,0.0,0.0,0.0,0.0,0.0,0.0,0.0,0.0,0.0,0.0,0.0,0.0,0.0,0.0,0.0,0.0,0.0,0.0,0.0,0.0,0.0,0.0,0.0,0.0,0.0,0.0,0.0,0.0,0.0,0.0,0.0,0.0,0.0,0.0,0.0,0.0,0.0,0.0,0.0,0.0,0.0,0.0,0.0,0.0,0.0,0.0,0.0,0.0,0.0,0.0,0.0,0.0,0.0,0.0,0.0,0.0,0.0,0.0,0.0,0.0,0.0,0.0,0.0,0.0,0.0,0.0,0.0,0.0,0.0,0.0,0.0,0.0,0.0,0.0,0.0,0.0,0.0,0.0,0.0,0.0,0.0,0.0,0.0,0.0,0.0,0.0,0.0,0.0,0.0,0.0,0.0,0.0,0.0,0.0,0.0,0.0,0.0,0.0,0.0,0.0,0.0,0.0,0.0,0.0,0.0,0.0,0.0,0.0,0.0,-1.0336,-1.0222,-1.0199,0.0,0.0,0.0,0.0,0.0,0.0,0.0,0.0,0.0,0.0,0.0,0.0,0.0,0.0,0.0,0.0,0.0,0.0,0.0,0.0,0.0,0.0,0.0,0.0,0.0,0.0,0.0,0.0,0.0,0.0,0.0,0.0,0.0,0.0,0.0,0.0,0.0,0.0,0.0,0.0,0.0,0.0,0.0,0.0,0.0,0.0,0.0,0.0,0.0,0.0,0.0,0.0,0.0,0.0,0.0,0.0,0.0,0.0,0.0,0.0,0.0,0.0,0.0,0.0,0.0,0.0,0.0,0.0,0.0,0.0,0.0,0.0,0.0,0.0,0.0,0.0,0.0,0.0,0.0,0.0,0.0,0.0,0.0,0.0,0.0,0.0,0.0,0.0,0.0,0.0,0.0,0.0,0.0,0.0,0.0,0.0,0.0,0.0,0.0,0.0,0.0,0.0,0.0,0.0,0.0,0.0,0.0,0.0,0.0,0.0,-1.067,-1.1438,-1.0717,0.0,-1.0215,0.0,0.0,0.0,0.0,0.0,0.0,0.0,0.0,0.0,0.0,0.0,0.0,0.0,0.0,0.0,0.0,0.0,0.0,0.0,0.0,0.0,0.0,0.0,0.0,0.0,0.0,0.0,0.0,0.0,0.0,0.0,0.0,0.0,0.0,0.0,0.0,0.0,0.0,0.0,0.0,0.0,0.0,0.0,0.0,0.0,0.0,0.0,0.0,0.0,0.0,0.0,0.0,0.0,0.0,0.0,0.0,0.0,0.0,0.0,0.0,0.0,0.0,0.0,0.0,0.0,0.0,0.0,0.0,0.0,0.0,0.0,0.0,0.0,0.0,0.0,0.0,0.0,0.0,0.0,0.0,0.0,0.0,0.0,0.0,0.0,0.0,0.0,0.0,0.0,0.0,0.0,0.0,0.0,0.0,0.0,0.0,0.0,0.0,0.0,0.0,0.0,0.0,0.0,0.0,0.0,0.0,0.0,0.0,0.0,0.0,-1.1169,-1.1534,-1.1208,-1.0736,0.0,0.0,0.0,0.0,0.0,0.0,0.0,0.0,0.0,0.0,0.0,0.0,0.0,0.0,0.0,0.0,0.0,0.0,0.0,0.0,0.0,0.0,0.0,0.0,0.0,0.0,0.0,0.0,0.0,0.0,0.0,0.0,0.0,0.0,0.0,0.0,0.0,0.0,0.0,0.0,0.0,0.0,0.0,0.0,0.0,0.0,0.0,0.0,0.0,0.0,0.0,0.0,0.0,0.0,0.0,0.0,0.0,0.0,0.0,0.0,0.0,0.0,0.0,0.0,0.0,0.0,0.0,0.0,0.0,0.0,0.0,0.0,0.0,0.0,0.0,0.0,0.0,0.0,0.0,0.0,0.0,0.0,0.0,0.0,0.0,0.0,0.0,0.0,0.0,0.0,0.0,0.0,0.0,0.0,0.0,0.0,0.0,0.0,0.0,0.0,0.0,0.0,0.0,0.0,0.0,0.0,0.0,0.0,0.0,0.0,-1.1321,-1.1512,-1.1497,-1.1247,-1.0842,-1.0215,0.0,0.0,0.0,0.0,0.0,0.0,0.0,0.0,0.0,0.0,0.0,0.0,0.0,0.0,0.0,0.0,0.0,0.0,0.0,0.0,0.0,0.0,0.0,0.0,0.0,0.0,0.0,0.0,0.0,0.0,0.0,0.0,0.0,0.0,0.0,0.0,0.0,0.0,0.0,0.0,0.0,0.0,0.0,0.0,0.0,0.0,0.0,0.0,0.0,0.0,0.0,0.0,0.0,0.0,0.0,0.0,0.0,0.0,0.0,0.0,0.0,0.0,0.0,0.0,0.0,0.0,0.0,0.0,0.0,0.0,0.0,0.0,0.0,0.0,0.0,0.0,0.0,0.0,0.0,0.0,0.0,0.0,0.0,0.0,0.0,0.0,0.0,0.0,0.0,0.0,0.0,0.0,0.0,0.0,0.0,0.0,0.0,0.0,0.0,0.0,0.0,0.0,0.0,0.0,0.0,0.0,0.0,0.0,-1.2535,-1.1906,-1.1505,-1.1482,-1.0692,-1.0241,0.0,0.0,0.0,0.0,0.0,0.0,0.0,0.0,0.0,0.0,0.0,0.0,0.0,0.0,0.0,0.0,0.0,0.0,0.0,0.0,0.0,0.0,0.0,0.0,0.0,0.0,0.0,0.0,0.0,0.0,0.0,0.0,0.0,0.0,0.0,0.0,0.0,0.0,0.0,0.0,0.0,0.0,0.0,0.0,0.0,0.0,0.0,0.0,0.0,0.0,0.0,0.0,0.0,0.0,0.0,0.0,0.0,0.0,0.0,0.0,0.0,0.0,0.0,0.0,0.0,0.0,0.0,0.0,0.0,0.0,0.0,0.0,0.0,0.0,0.0,0.0,0.0,0.0,0.0,0.0,0.0,0.0,0.0,0.0,0.0,0.0,0.0,0.0,0.0,0.0,0.0,0.0,0.0,0.0,0.0,0.0,0.0,0.0,0.0,0.0,0.0,0.0,0.0,0.0,0.0,0.0,0.0,0.0,0.0,-1.1111,-1.1366,-1.1501,-1.1481,-1.1184,-1.0763,0.0,0.0,0.0,0.0,0.0,0.0,0.0,0.0,0.0,0.0,0.0,0.0,0.0,0.0,0.0,0.0,0.0,0.0,0.0,0.0,0.0,0.0,0.0,0.0,0.0,0.0,0.0,0.0,0.0,0.0,0.0,0.0,0.0,0.0,0.0,0.0,0.0,0.0,0.0,0.0,0.0,0.0,0.0,0.0,0.0,0.0,0.0,0.0,0.0,0.0,0.0,0.0,0.0,0.0,0.0,0.0,0.0,0.0,0.0,0.0,0.0,0.0,0.0,0.0,0.0,0.0,0.0,0.0,0.0,0.0,0.0,0.0,0.0,0.0,0.0,0.0,0.0,0.0,0.0,0.0,0.0,0.0,0.0,0.0,0.0,0.0,0.0,0.0,0.0,0.0,0.0,0.0,0.0,0.0,0.0,0.0,0.0,0.0,0.0,0.0,0.0,0.0,0.0,0.0,0.0,0.0,0.0,0.0,0.0,-1.0622,0.0,-1.1511,-1.1492,-1.123,-1.0802,0.0,0.0,0.0,0.0,0.0,0.0,0.0,0.0,0.0,0.0,0.0,0.0,0.0,0.0,0.0,0.0,0.0,0.0,0.0,0.0,0.0,0.0,0.0,0.0,0.0,0.0,0.0,0.0,0.0,0.0,0.0,0.0,0.0,0.0,0.0,0.0,0.0,0.0,0.0,0.0,0.0,0.0,0.0,0.0,0.0,0.0,0.0,0.0,0.0,0.0,0.0,0.0,0.0,0.0,0.0,0.0,0.0,0.0,0.0,0.0,0.0,0.0,0.0,0.0,0.0,0.0,0.0,0.0,0.0,0.0,0.0,0.0,0.0,0.0,0.0,0.0,0.0,0.0,0.0,0.0,0.0,0.0,0.0,0.0,0.0,0.0,0.0,0.0,0.0,0.0,0.0,0.0,0.0,0.0,0.0,0.0,0.0,0.0,0.0,0.0,0.0,0.0,0.0,0.0,0.0,0.0,0.0,0.0,-1.0641,-1.1415,-1.1473,-1.1511,-1.1492,-1.068,-1.0235,0.0,0.0,0.0,0.0,0.0,0.0,0.0,0.0,0.0,0.0,0.0,0.0,0.0,0.0,0.0,0.0,0.0,0.0,0.0,0.0,0.0,0.0,0.0,0.0,0.0,0.0,0.0,0.0,0.0,0.0,0.0,0.0,0.0,0.0,0.0,0.0,0.0,0.0,0.0,0.0,0.0,0.0,0.0,0.0,0.0,0.0,0.0,0.0,0.0,0.0,0.0,0.0,0.0,0.0,0.0,0.0,0.0,0.0,0.0,0.0,0.0,0.0,0.0,0.0,0.0,0.0,0.0,0.0,0.0,0.0,0.0,0.0,0.0,0.0,0.0,0.0,0.0,0.0,0.0,0.0,0.0,0.0,0.0,0.0,0.0,0.0,0.0,0.0,0.0,0.0,0.0,0.0,0.0,0.0,0.0,0.0,0.0,0.0,0.0,0.0,0.0,0.0,0.0,0.0,0.0,0.0,0.0,0.0,0.0,-1.0622,-1.1202,-1.1511,-1.1473,-1.066,-1.0486,0.0,0.0,0.0,0.0,0.0,0.0,0.0,0.0,0.0,0.0,0.0,0.0,0.0,0.0,0.0,0.0,0.0,0.0,0.0,0.0,0.0,0.0,0.0,0.0,0.0,0.0,0.0,0.0,0.0,0.0,0.0,0.0,0.0,0.0,0.0,0.0,0.0,0.0,0.0,0.0,0.0,0.0,0.0,0.0,0.0,0.0,0.0,0.0,0.0,0.0,0.0,0.0,0.0,0.0,0.0,0.0,0.0,0.0,0.0,0.0,0.0,0.0,0.0,0.0,0.0,0.0,0.0,0.0,0.0,0.0,0.0,0.0,0.0,0.0,0.0,0.0,0.0,0.0,0.0,0.0,0.0,0.0,0.0,0.0,0.0,0.0,0.0,0.0,0.0,0.0,0.0,0.0,0.0,0.0,0.0,0.0,0.0,0.0,0.0,0.0,0.0,0.0,0.0,0.0,0.0,0.0,0.0,0.0,0.0,-1.1682,-1.2146,-1.2417,-1.2436,-1.1589,-1.1241,-1.1434,0.0,0.0,0.0,0.0,0.0,0.0,0.0,0.0,0.0,0.0,0.0,0.0,0.0,0.0,0.0,0.0,0.0,0.0,0.0,0.0,0.0,0.0,0.0,0.0,0.0,0.0,0.0,0.0,0.0,0.0,0.0,0.0,0.0,0.0,0.0,0.0,0.0,0.0,0.0,0.0,0.0,0.0,0.0,0.0,0.0,0.0,0.0,0.0,0.0,0.0,0.0,0.0,0.0,0.0,0.0,0.0,0.0,0.0,0.0,0.0,0.0,0.0,0.0,0.0,0.0,0.0,0.0,0.0,0.0,0.0,0.0,0.0,0.0,0.0,0.0,0.0,0.0,0.0,0.0,0.0,0.0,0.0,0.0,0.0,0.0,0.0,0.0,0.0,0.0,0.0,0.0,0.0,0.0,0.0,0.0,0.0,0.0,0.0,0.0,0.0,0.0,0.0,0.0,0.0,0.0,0.0,0.0,0.0,-1.4308,-1.4385,-1.4385,-1.4211,-1.3326,-1.2425,0.0,0.0,0.0,0.0,0.0,0.0,0.0,0.0,0.0,0.0,0.0,0.0,0.0,0.0,0.0,0.0,0.0,0.0,0.0,0.0,0.0,0.0,0.0,0.0,0.0,0.0,0.0,0.0,0.0,0.0,0.0,0.0,0.0,0.0,0.0,0.0,0.0,0.0,0.0,0.0,0.0,0.0,0.0,0.0,0.0,0.0,0.0,0.0,0.0,0.0,0.0,0.0,0.0,0.0,0.0,0.0,0.0,0.0,0.0,0.0,0.0,0.0,0.0,0.0,0.0,0.0,0.0,0.0,0.0,0.0,0.0,0.0,0.0,0.0,0.0,0.0,0.0,0.0,0.0,0.0,0.0,0.0,0.0,0.0,0.0,0.0,0.0,0.0,0.0,0.0,0.0,0.0,0.0,0.0,0.0,0.0,0.0,0.0,0.0,0.0,0.0,0.0,0.0,0.0,0.0,0.0,0.0,0.0,0.0,-1.7769,-1.9012,-1.8761,-1.6865,-1.5399,-1.4229,0.0,0.0,0.0,0.0,0.0,0.0,0.0,0.0,0.0,0.0,0.0,0.0,0.0,0.0,0.0,0.0,0.0,0.0,0.0,0.0,0.0,0.0,0.0,0.0,0.0,0.0,0.0,0.0,0.0,0.0,0.0,0.0,0.0,0.0,0.0,0.0,0.0,0.0,0.0,0.0,0.0,0.0,0.0,0.0,0.0,0.0,0.0,0.0,0.0,0.0,0.0,0.0,0.0,0.0,0.0,0.0,0.0,0.0,0.0,0.0,0.0,0.0,0.0,0.0,0.0,0.0,0.0,0.0,0.0,0.0,0.0,0.0,0.0,0.0,0.0,0.0,0.0,0.0,0.0,0.0,0.0,0.0,0.0,0.0,0.0,0.0,0.0,0.0,0.0,0.0,0.0,0.0,0.0,0.0,0.0,0.0,0.0,0.0,0.0,0.0,0.0,0.0,0.0,0.0,0.0,0.0,0.0,0.0,-1.8003,-1.9103,-2.1488,-2.2017,-2.0521,-1.8153,-1.6126,0.0,0.0,0.0,0.0,0.0,0.0,0.0,0.0,0.0,0.0,0.0,0.0,0.0,0.0,0.0,0.0,0.0,0.0,0.0,0.0,0.0,0.0,0.0,0.0,0.0,0.0,0.0,0.0,0.0,0.0,0.0,0.0,0.0,0.0,0.0,0.0,0.0,0.0,0.0,0.0,0.0,0.0,0.0,0.0,0.0,0.0,0.0,0.0,0.0,0.0,0.0,0.0,0.0,0.0,0.0,0.0,0.0,0.0,0.0,0.0,0.0,0.0,0.0,0.0,0.0,0.0,0.0,0.0,0.0,0.0,0.0,0.0,0.0,0.0,0.0,0.0,0.0,0.0,0.0,0.0,0.0,0.0,0.0,0.0,0.0,0.0,0.0,0.0,0.0,0.0,0.0,0.0,0.0,0.0,0.0,0.0,0.0,0.0,0.0,0.0,0.0,0.0,0.0,0.0,0.0,0.0,0.0,0.0,-1.9259,-1.9535,-2.2668,-2.4292,-2.4099,-2.0985,-1.8042,0.0,0.0,0.0,0.0,0.0,0.0,0.0,0.0,0.0,0.0,0.0,0.0,0.0,0.0,0.0,0.0,0.0,0.0,0.0,0.0,0.0,0.0,0.0,0.0,0.0,0.0,0.0,0.0,0.0,0.0,0.0,0.0,0.0,0.0,0.0,0.0,0.0,0.0,0.0,0.0,0.0,0.0,0.0,0.0,0.0,0.0,0.0,0.0,0.0,0.0,0.0,0.0,0.0,0.0,0.0,0.0,0.0,0.0,0.0,0.0,0.0,0.0,0.0,0.0,0.0,0.0,0.0,0.0,0.0,0.0,0.0,0.0,0.0,0.0,0.0,0.0,0.0,0.0,0.0,0.0,0.0,0.0,0.0,0.0,0.0,0.0,0.0,0.0,0.0,0.0,0.0,0.0,0.0,0.0,0.0,0.0,0.0,0.0,0.0,0.0,0.0,0.0,0.0,0.0,0.0,0.0,0.0,0.0,-2.0689,-2.2088,-2.4138,-2.4892,-2.4196,-2.1499,-1.9136,0.0,0.0,0.0,0.0,0.0,0.0,0.0,0.0,0.0,0.0,0.0,0.0,0.0,0.0,0.0,0.0,0.0,0.0,0.0,0.0,0.0,0.0,0.0,0.0,0.0,0.0,0.0,0.0,0.0,0.0,0.0,0.0,0.0,0.0,0.0,0.0,0.0,0.0,0.0,0.0,0.0,0.0,0.0,0.0,0.0,0.0,0.0,0.0,-1.0841,0.0,0.0,0.0,0.0,0.0,0.0,0.0,0.0,0.0,0.0,0.0,0.0,0.0,0.0,0.0,0.0,0.0,0.0,0.0,0.0,0.0,0.0,0.0,0.0,0.0,0.0,0.0,0.0,0.0,0.0,0.0,0.0,0.0,0.0,0.0,0.0,0.0,0.0,0.0,0.0,0.0,0.0,0.0,0.0,0.0,0.0,0.0,0.0,0.0,0.0,0.0,0.0,0.0,0.0,0.0,0.0,0.0,0.0,0.0,-2.1116,-2.2766,-2.451,-2.5157,-2.4572,-2.2508,-2.0415,0.0,0.0,0.0,0.0,0.0,0.0,0.0,0.0,0.0,0.0,0.0,0.0,0.0,0.0,0.0,0.0,0.0,0.0,0.0,0.0,0.0,0.0,0.0,0.0,0.0,0.0,0.0,0.0,0.0,0.0,0.0,0.0,0.0,0.0,0.0,0.0,0.0,0.0,0.0,0.0,0.0,0.0,0.0,0.0,0.0,0.0,0.0,0.0,0.0,0.0,0.0,0.0,0.0,0.0,0.0,0.0,0.0,0.0,0.0,0.0,0.0,0.0,0.0,0.0,0.0,0.0,0.0,0.0,0.0,0.0,0.0,0.0,0.0,0.0,0.0,0.0,0.0,0.0,0.0,0.0,0.0,0.0,0.0,0.0,0.0,0.0,0.0,0.0,0.0,0.0,0.0,0.0,0.0,0.0,0.0,0.0,0.0,0.0,0.0,0.0,0.0,0.0,0.0,0.0,0.0,0.0,0.0,-1.878,-2.1184,-2.3036,-2.4504,-2.5203,-2.5046,-2.3458,-2.1515,-1.9196,0.0,0.0,0.0,0.0,0.0,0.0,0.0,0.0,0.0,0.0,0.0,0.0,0.0,0.0,0.0,0.0,0.0,0.0,0.0,0.0,0.0,0.0,0.0,0.0,0.0,0.0,0.0,0.0,0.0,0.0,0.0,0.0,0.0,0.0,0.0,0.0,0.0,0.0,-1.0161,-1.0038,0.0,0.0,0.0,0.0,0.0,0.0,0.0,0.0,-1.088,0.0,0.0,0.0,0.0,0.0,0.0,0.0,0.0,0.0,0.0,0.0,0.0,0.0,0.0,0.0,0.0,0.0,0.0,0.0,0.0,0.0,0.0,0.0,0.0,0.0,0.0,0.0,0.0,0.0,0.0,0.0,0.0,0.0,0.0,0.0,0.0,0.0,0.0,0.0,0.0,0.0,0.0,0.0,0.0,0.0,0.0,0.0,0.0,0.0,0.0,0.0,0.0,0.0,0.0,0.0,0.0,-1.9119,-1.9809,-2.164,-2.4629,-2.4979,-2.5096,-2.4972,-2.3389,-2.1662,-1.9772,0.0,0.0,0.0,0.0,0.0,0.0,0.0,0.0,0.0,0.0,0.0,0.0,0.0,0.0,0.0,0.0,0.0,0.0,0.0,0.0,0.0,0.0,0.0,0.0,0.0,0.0,0.0,0.0,0.0,0.0,0.0,0.0,0.0,0.0,0.0,0.0,0.0,0.0,0.0,-1.0827,-1.0578,0.0,0.0,0.0,0.0,0.0,0.0,0.0,0.0,-1.1652,0.0,0.0,0.0,0.0,0.0,0.0,0.0,0.0,0.0,0.0,0.0,0.0,0.0,0.0,0.0,0.0,0.0,0.0,0.0,0.0,0.0,0.0,0.0,0.0,0.0,0.0,0.0,0.0,0.0,0.0,0.0,0.0,0.0,0.0,0.0,0.0,0.0,0.0,0.0,0.0,0.0,0.0,0.0,0.0,0.0,0.0,0.0,0.0,0.0,0.0,0.0,0.0,0.0,0.0,0.0,-1.9119,-2.0252,-2.2088,-2.4839,-2.4968,-2.4891,-2.4762,-2.3229,-2.1538,0.0,0.0,0.0,0.0,0.0,0.0,0.0,0.0,0.0,0.0,0.0,0.0,0.0,0.0,0.0,0.0,0.0,0.0,0.0,0.0,0.0,0.0,0.0,0.0,0.0,0.0,0.0,0.0,0.0,0.0,0.0,0.0,0.0,0.0,0.0,0.0,0.0,0.0,0.0,0.0,-1.2446,-1.2418,-1.3679,0.0,0.0,0.0,0.0,0.0,0.0,-1.2202,-1.2063,0.0,0.0,0.0,0.0,0.0,0.0,0.0,0.0,0.0,0.0,0.0,0.0,0.0,0.0,0.0,0.0,0.0,0.0,0.0,0.0,0.0,0.0,0.0,0.0,0.0,0.0,0.0,0.0,0.0,0.0,0.0,0.0,0.0,0.0,0.0,0.0,0.0,0.0,0.0,0.0,0.0,0.0,0.0,0.0,0.0,0.0,0.0,0.0,0.0,0.0,0.0,0.0,0.0,0.0,0.0,-1.8848,-2.0487,-2.2454,-2.4726,-2.4823,-2.4785,-2.4654,-2.3145,-2.1485,0.0,0.0,0.0,0.0,0.0,0.0,0.0,0.0,0.0,0.0,0.0,0.0,0.0,0.0,0.0,0.0,0.0,0.0,0.0,0.0,0.0,0.0,0.0,0.0,0.0,0.0,0.0,0.0,0.0,0.0,0.0,0.0,0.0,0.0,0.0,0.0,0.0,0.0,0.0,0.0,0.0,-1.406,-1.4782,-1.3731,0.0,0.0,0.0,0.0,-1.2443,-1.2911,0.0,0.0,0.0,0.0,0.0,0.0,0.0,0.0,0.0,0.0,0.0,0.0,0.0,0.0,0.0,0.0,0.0,0.0,0.0,0.0,0.0,0.0,0.0,0.0,0.0,0.0,0.0,0.0,0.0,0.0,0.0,0.0,0.0,0.0,0.0,0.0,0.0,0.0,0.0,0.0,0.0,0.0,0.0,0.0,0.0,0.0,0.0,0.0,0.0,0.0,0.0,0.0,0.0,0.0,0.0,0.0,-1.9606,-2.0784,-2.2482,-2.4809,-2.4968,-2.4949,-2.4936,-2.3322,-2.1626,0.0,0.0,0.0,0.0,0.0,0.0,0.0,0.0,0.0,0.0,0.0,0.0,0.0,0.0,0.0,0.0,0.0,0.0,0.0,0.0,0.0,0.0,0.0,0.0,0.0,0.0,0.0,0.0,0.0,0.0,0.0,0.0,0.0,0.0,0.0,0.0,0.0,0.0,0.0,0.0,0.0,-1.3806,-1.3875,-1.3792,-1.3733,0.0,0.0,-1.5163,-1.5859,-1.6062,0.0,0.0,0.0,0.0,0.0,0.0,0.0,0.0,0.0,0.0,0.0,0.0,0.0,0.0,0.0,0.0,0.0,0.0,0.0,0.0,0.0,0.0,0.0,0.0,0.0,0.0,0.0,0.0,0.0,0.0,0.0,0.0,0.0,0.0,0.0,0.0,0.0,0.0,0.0,0.0,0.0,0.0,0.0,0.0,0.0,0.0,0.0,0.0,0.0,0.0,0.0,0.0,0.0,0.0,0.0,-1.6215,-1.9802,-2.1233,-2.288,-2.4807,-2.4888,-2.4861,-2.4818,-2.2836,-2.0932,0.0,0.0,0.0,0.0,0.0,0.0,0.0,0.0,0.0,0.0,0.0,0.0,0.0,0.0,0.0,0.0,0.0,0.0,0.0,0.0,0.0,0.0,0.0,0.0,0.0,0.0,0.0,0.0,0.0,0.0,0.0,0.0,0.0,0.0,0.0,0.0,0.0,0.0,0.0,0.0,0.0,0.0,-1.6598,-1.6343,0.0,0.0,0.0,-1.6381,-1.5834,0.0,0.0,0.0,0.0,0.0,0.0,0.0,0.0,0.0,0.0,0.0,0.0,0.0,0.0,0.0,0.0,0.0,0.0,0.0,0.0,0.0,0.0,0.0,0.0,0.0,0.0,0.0,0.0,0.0,0.0,0.0,0.0,0.0,0.0,0.0,0.0,0.0,0.0,0.0,0.0,0.0,0.0,0.0,0.0,0.0,0.0,0.0,0.0,0.0,0.0,0.0,0.0,0.0,0.0,0.0,0.0,0.0,-1.9848,-2.1737,-2.3391,-2.4766,-2.4837,-2.4818,-2.4766,-2.2905,0.0,0.0,0.0,0.0,0.0,0.0,0.0,0.0,0.0,0.0,0.0,0.0,0.0,0.0,0.0,0.0,0.0,0.0,0.0,0.0,0.0,0.0,0.0,0.0,0.0,0.0,0.0,-0.7958,0.0,0.0,0.0,0.0,0.0,0.0,0.0,0.0,0.0,0.0,0.0,0.0,0.0,0.0,-1.8179,-1.8839,-1.8645,-1.8725,0.0,0.0,-1.7845,-1.6625,-1.8215,-1.815,0.0,0.0,0.0,0.0,0.0,0.0,0.0,0.0,0.0,0.0,0.0,0.0,0.0,0.0,0.0,0.0,0.0,0.0,0.0,0.0,0.0,0.0,0.0,0.0,0.0,0.0,0.0,0.0,0.0,0.0,0.0,0.0,0.0,0.0,0.0,0.0,0.0,0.0,0.0,0.0,0.0,0.0,0.0,0.0,0.0,0.0,0.0,0.0,0.0,0.0,0.0,0.0,0.0,0.0,-1.7274,-1.978,-2.2253,-2.3971,-2.4869,-2.4903,-2.4949,-2.5038,-2.4208,-2.2153,0.0,0.0,0.0,0.0,0.0,0.0,0.0,0.0,0.0,0.0,0.0,0.0,0.0,0.0,0.0,0.0,0.0,0.0,0.0,0.0,0.0,0.0,0.0,0.0,0.0,0.0,0.0,0.0,0.0,0.0,0.0,0.0,0.0,0.0,0.0,0.0,0.0,0.0,0.0,0.0,0.0,-1.8936,-1.8995,-1.9636,-2.046,0.0,-2.0745,-2.0106,-2.0057,-2.0843,-2.0025,-1.5716,0.0,0.0,0.0,0.0,0.0,0.0,0.0,0.0,0.0,0.0,0.0,0.0,0.0,0.0,0.0,0.0,0.0,0.0,0.0,0.0,0.0,0.0,0.0,0.0,0.0,0.0,0.0,0.0,0.0,0.0,0.0,0.0,0.0,0.0,0.0,0.0,0.0,0.0,0.0,0.0,0.0,0.0,0.0,0.0,0.0,0.0,0.0,0.0,0.0,0.0,0.0,0.0,0.0,-1.7444,-1.9922,-2.2994,-2.4991,-2.5799,-2.6352,-2.6378,-2.591,-2.5154,-2.2901,0.0,0.0,0.0,0.0,0.0,0.0,0.0,0.0,0.0,0.0,0.0,0.0,0.0,0.0,0.0,0.0,0.0,0.0,0.0,0.0,0.0,0.0,0.0,0.0,0.0,0.0,0.0,0.0,-1.1115,-1.1158,-1.0929,0.0,0.0,0.0,0.0,0.0,0.0,0.0,0.0,0.0,0.0,-2.0171,-2.1174,-2.1678,0.0,0.0,-2.248,-2.1738,-2.1275,-2.1495,-2.0405,-1.6676,-1.5623,0.0,0.0,0.0,0.0,0.0,0.0,0.0,0.0,0.0,0.0,0.0,0.0,0.0,0.0,0.0,0.0,0.0,0.0,0.0,0.0,0.0,0.0,0.0,0.0,0.0,0.0,0.0,0.0,0.0,0.0,0.0,0.0,0.0,0.0,0.0,0.0,0.0,0.0,0.0,0.0,0.0,0.0,0.0,0.0,0.0,0.0,0.0,0.0,0.0,0.0,0.0,0.0,-1.7831,-2.0308,-2.3757,-2.5888,-2.6696,-2.7287,-2.7338,-2.6759,-2.6025,-2.3868,0.0,0.0,0.0,0.0,0.0,0.0,0.0,0.0,0.0,0.0,0.0,0.0,0.0,0.0,0.0,0.0,0.0,0.0,0.0,0.0,0.0,0.0,0.0,0.0,0.0,0.0,0.0,0.0,-1.2011,-1.2096,-1.1489,0.0,0.0,0.0,0.0,0.0,0.0,0.0,0.0,0.0,0.0,-2.1485,-2.2655,-2.2859,-2.3216,-2.408,-2.3267,-2.2443,-2.2114,-2.2056,-2.0992,-1.7852,0.0,0.0,0.0,0.0,0.0,0.0,0.0,0.0,0.0,0.0,0.0,0.0,0.0,0.0,0.0,0.0,0.0,0.0,0.0,0.0,0.0,0.0,0.0,0.0,0.0,0.0,0.0,-0.9819,0.0,0.0,-0.9875,0.0,0.0,0.0,0.0,0.0,0.0,0.0,0.0,0.0,0.0,0.0,0.0,0.0,0.0,0.0,0.0,0.0,0.0,0.0,0.0,0.0,0.0,-1.8526,-2.1075,-2.4441,-2.6579,-2.7367,-2.7428,-2.7499,-2.7561,-2.6816,-2.5184,-2.2642,0.0,0.0,0.0,0.0,0.0,0.0,0.0,0.0,0.0,0.0,0.0,0.0,0.0,0.0,0.0,0.0,0.0,0.0,0.0,0.0,0.0,0.0,0.0,0.0,0.0,0.0,-1.1643,-1.1547,-1.1585,0.0,0.0,0.0,0.0,0.0,0.0,0.0,0.0,0.0,-2.0149,-2.1763,-2.2861,-2.2939,-2.2919,-2.3306,-2.4118,-2.2842,-2.2036,-2.2803,-2.2861,-2.201,0.0,0.0,0.0,0.0,0.0,0.0,0.0,0.0,0.0,0.0,0.0,0.0,0.0,0.0,0.0,0.0,0.0,0.0,0.0,0.0,0.0,0.0,0.0,0.0,0.0,0.0,0.0,-1.4598,-1.3833,0.0,0.0,0.0,0.0,0.0,0.0,0.0,0.0,0.0,0.0,0.0,-2.099,-2.1801,0.0,0.0,0.0,0.0,0.0,0.0,0.0,0.0,0.0,0.0,0.0,0.0,-1.8736,-2.1287,-2.5244,-2.7704,-2.8516,-2.9098,-2.9142,-2.8603,-2.8345,-2.6461,-2.2796,0.0,0.0,0.0,0.0,0.0,0.0,0.0,0.0,0.0,0.0,0.0,0.0,0.0,0.0,0.0,0.0,0.0,0.0,0.0,0.0,0.0,0.0,0.0,0.0,0.0,-1.3461,0.0,0.0,0.0,0.0,0.0,0.0,0.0,0.0,0.0,0.0,0.0,-2.1306,-2.2697,-2.3388,-2.3964,-2.4544,-2.4641,-2.4931,0.0,0.0,0.0,0.0,0.0,0.0,0.0,0.0,0.0,0.0,0.0,0.0,0.0,0.0,-2.0959,-1.7536,-1.6901,-1.7068,-1.7598,0.0,0.0,0.0,0.0,0.0,0.0,0.0,0.0,0.0,0.0,0.0,0.0,0.0,0.0,-1.7756,-1.6753,-1.6511,0.0,0.0,0.0,0.0,0.0,0.0,0.0,0.0,-2.2914,-2.4013,-2.4133,-2.4926,-2.4884,-2.4113,-2.3515,-2.1072,0.0,0.0,0.0,0.0,0.0,0.0,0.0,0.0,-1.9687,-2.2257,-2.6236,-2.8729,-2.9525,-3.0102,-3.0121,-2.9563,-2.8994,-2.7089,-2.3698,-2.1482,-1.9249,0.0,0.0,0.0,0.0,0.0,0.0,0.0,0.0,0.0,0.0,0.0,0.0,0.0,0.0,0.0,0.0,0.0,0.0,0.0,0.0,0.0,0.0,0.0,-1.3704,0.0,0.0,0.0,0.0,0.0,0.0,0.0,0.0,0.0,-2.1553,-2.2441,-2.3439,-2.4505,-2.4919,-2.5105,-2.5078,0.0,0.0,0.0,0.0,0.0,0.0,0.0,-2.3063,-2.305,-2.2869,-2.2856,-2.335,-2.4633,-2.5403,-2.4791,0.0,0.0,-2.1203,-2.023,-2.0185,-2.0704,-2.1266,-2.1821,-2.24,-2.3195,-2.3929,0.0,0.0,0.0,0.0,-1.8636,0.0,0.0,0.0,-2.0808,-2.0241,0.0,-1.9507,0.0,0.0,0.0,0.0,-1.902,-2.2725,0.0,0.0,-2.7451,-2.8952,-2.7566,-2.8288,-2.8198,-2.7339,-2.7248,-2.601,-2.3592,-2.0502,0.0,0.0,0.0,0.0,0.0,0.0,-2.1377,-2.3986,-2.7336,-2.9529,-3.034,-3.0379,-3.0398,-3.034,-2.8814,-2.7182,-2.5437,-2.3794,-2.2106,-2.0432,-1.8006,0.0,0.0,0.0,0.0,0.0,0.0,0.0,0.0,0.0,0.0,0.0,0.0,0.0,0.0,0.0,0.0,0.0,0.0,0.0,0.0,-1.2901,0.0,0.0,0.0,0.0,0.0,0.0,0.0,0.0,0.0,0.0,-2.3825,-2.478,-2.5517,-2.5542,0.0,0.0,0.0,0.0,-2.5372,-2.4619,-2.3724,-2.3528,-2.4413,-2.5135,-2.5615,-2.5641,0.0,0.0,-2.7228,-2.7679,-2.7729,-2.6086,-2.7148,-2.7649,-2.5928,-2.4815,-2.4292,-2.435,-2.4409,-2.4389,-2.4486,-2.5279,-2.5801,-2.543,0.0,0.0,0.0,0.0,-2.3832,-2.5281,-2.7417,-2.7083,-2.6005,-2.4432,-2.4085,0.0,0.0,0.0,0.0,0.0,0.0,-2.4739,-2.6029,-2.7475,-2.8514,-2.9247,-2.9511,-2.9558,-2.941,-2.9254,-2.8927,-2.83,-2.6694,-2.3644,-1.9305,0.0,0.0,0.0,0.0,-2.3197,-2.5738,-2.7958,-2.9529,-3.0379,-3.0398,-3.0398,-3.0398,-2.9337,-2.8241,-2.7178,-2.6101,-2.4457,-2.2192,-2.0794,0.0,0.0,0.0,0.0,0.0,0.0,0.0,0.0,0.0,0.0,0.0,0.0,0.0,0.0,0.0,0.0,0.0,0.0,0.0,-1.4571,-1.5176,-1.564,0.0,0.0,0.0,0.0,0.0,0.0,0.0,0.0,0.0,-2.5901,-2.573,-2.5811,0.0,0.0,-2.5775,-2.5284,-2.597,-2.6661,-2.7021,-2.688,0.0,-2.7799,-2.7147,-2.6729,-2.7361,-2.8544,-2.924,-2.8777,-2.9399,-2.9833,-2.9274,-2.9638,-2.9778,-2.927,-2.7948,-2.7194,-2.7658,-2.7832,-2.8045,-2.8625,-2.8973,-2.9108,-3.0109,-2.7905,-2.697,-2.7079,-2.7862,-2.7862,-2.9194,-3.1277,-3.0689,-2.9723,-2.8492,-2.8219,-2.6486,-2.3694,-2.3899,0.0,0.0,0.0,-2.7807,-2.9546,-2.9543,-3.0092,-3.1068,-3.1092,-3.0956,-3.0708,-3.0577,-3.0395,-3.0163,-2.9251,-2.6898,-2.3163,0.0,-2.1537,-2.2059,-2.3439,-2.5101,-2.6991,-2.8737,-2.9867,-3.0379,-3.0398,-3.0398,-3.0379,-2.9548,-2.8875,-2.8387,-2.7227,-2.59,-2.4399,-2.287,-2.061,0.0,0.0,0.0,0.0,0.0,0.0,0.0,0.0,0.0,0.0,0.0,-1.3396,-1.1901,0.0,0.0,0.0,-1.4783,-1.5432,-1.636,-1.6881,0.0,0.0,0.0,0.0,0.0,0.0,0.0,-2.3309,-2.5301,-2.6864,-2.7381,-2.6987,-2.6987,-2.7813,-2.7478,-2.7021,-2.671,0.0,-2.8025,-2.822,-2.824,-2.8416,-2.8879,-2.8413,-2.8262,-2.914,-2.9667,-2.9979,-2.9999,-3.0465,-3.0755,-3.0771,-3.0751,-3.0734,-3.0731,-2.9807,-2.921,-2.9726,-2.9863,-3.0037,-3.054,-3.0636,-3.0636,-3.4062,-3.3142,-3.1017,-3.0615,-3.1393,-3.1452,-3.1908,-3.2557,-3.2336,-3.1813,-3.1172,-3.1632,-3.0588,-2.8472,-2.8651,0.0,-3.0167,-3.1085,-3.1929,-3.2804,-3.2801,-3.2814,-3.2774,-3.2771,-3.2316,-3.1416,-3.1401,-3.0978,-3.0136,-2.9398,-2.8635,-2.7877,-2.6223,-2.5347,-2.5256,-2.6052,-2.6987,-2.7896,-2.949,-3.0302,-3.0398,-3.0398,-3.0398,-3.0379,-2.9625,-2.9133,-2.896,-2.7544,-2.6679,-2.6526,-2.4372,-2.2317,-2.0579,0.0,0.0,0.0,0.0,0.0,0.0,0.0,0.0,0.0,0.0,0.0,0.0,0.0,0.0,0.0,-1.7096,0.0,-1.8437,-1.8457,0.0,0.0,0.0,-2.1201,-2.2218,-2.445,-2.5905,-2.5905,0.0,0.0,-2.8405,-2.8451,-2.8813,-2.9602,-2.9532,-2.9152,-2.8494,-2.9043,-2.9336,-2.8691,-2.8535,-2.8516,-2.8769,-2.9238,-2.9844,-3.0586,-3.0918,-3.0859,-3.084,-3.0879,-3.0898,-3.0898,-3.0841,-3.0794,-3.0793,-3.0691,-3.07,-3.066,-3.0673,-3.0683,-3.0692,-3.0692,-3.0681,-3.3826,-3.3775,-3.3851,-3.3572,-3.3086,-3.3732,-3.413,-3.4226,-3.3545,-3.3127,-3.2919,-3.2455,-3.2005,-3.16,-3.1661,-3.1851,-3.2204,-3.2442,-3.262,-3.2804,-3.2799,-3.2771,-3.2718,-3.2718,-3.261,-3.2378,-3.2355,-3.1947,-3.1155,-3.0954,-3.0142,-2.8759,-2.83,-2.7426,-2.6247,-2.7033,-2.7908,-2.8775,-2.919,-2.9733,-3.0359,-3.0398,-3.0398,-3.0398,-3.0206,-2.9509,-2.8322,-2.7862,-2.7089,-2.5842,-2.521,-2.3851,-2.1581,-1.96,0.0,0.0,0.0,0.0,0.0,0.0,0.0,0.0,0.0,-1.6924,-1.4298,0.0,-1.8893,0.0,-2.0482,-2.1991,-2.2812,-2.2285,0.0,0.0,-2.3886,-2.4355,-2.6523,-2.7322,-2.7691,-2.7672,-2.8628,-2.9293,-2.9276,-2.9863,-3.0605,-3.1392,-2.9824,-2.8763,-2.9199,-2.9453,-2.9785,-3.0176,-3.0273,-3.0293,-3.0293,-3.0449,-3.0684,-3.0859,-3.0937,-3.0918,-3.0918,-3.0918,-3.0918,-3.0918,-3.0878,-3.0891,-3.0918,-3.0859,-3.0862,-3.0831,-3.0787,-3.0709,-3.0709,-3.0709,-3.0709,-3.4914,-3.5092,-3.6071,-3.6096,-3.5553,-3.5272,-3.5367,-3.5615,-3.4729,-3.4318,-3.4245,-3.3344,-3.3202,-3.3661,-3.3347,-3.3433,-3.3834,-3.393,-3.3935,-3.3857,-3.3876,-3.3827,-3.3818,-3.3824,-3.3639,-3.3296,-3.3287,-3.284,-3.2067,-3.2019,-3.1365,-3.0138,-3.0092,-2.9238,-2.7662,-2.7731,-2.8037,-2.8507,-2.8902,-2.9529,-3.034,-3.0398,-3.0206,-2.9852,-2.986,-2.9267,-2.8042,-2.7266,-2.6461,-2.5583,-2.481,-2.3617,-2.1917,-2.0533,-1.899,0.0,0.0,0.0,0.0,0.0,0.0,0.0,0.0,0.0,0.0,0.0,-2.0935,-2.0519,-2.3257,-2.5039,-2.498,-2.4902,-2.5527,-2.7246,-2.7012,-2.7441,-2.9258,-2.9805,-3.0039,-3.0039,-3.0762,-3.1289,-3.1309,-3.1699,-3.2187,-3.2676,-3.1484,-3.0742,-3.1172,-3.1289,-3.1465,-3.1934,-3.2031,-3.2012,-3.2012,-3.2012,-3.2012,-3.2012,-3.2012,-3.2012,-3.2027,-3.2011,-3.2012,-3.2012,-3.2012,-3.2012,-3.2031,-3.2007,-3.1934,-3.1599,-3.1716,-3.1599,-3.0955,-3.1092,-3.1365,-3.6504,-3.6673,-3.7487,-3.7969,-3.8046,-3.6488,-3.6219,-3.6801,-3.5707,-3.5184,-3.5015,-3.42,-3.4282,-3.4908,-3.4171,-3.4227,-3.4878,-3.5054,-3.5105,-3.5057,-3.5168,-3.5209,-3.519,-3.519,-3.483,-3.4187,-3.4143,-3.3719,-3.2879,-3.2844,-3.242,-3.1541,-3.1427,-3.0571,-2.8936,-2.8268,-2.7898,-2.7804,-2.8653,-2.9471,-3.0206,-3.0121,-2.9709,-2.9008,-2.9021,-2.8683,-2.7849,-2.6456,-2.5648,-2.557,-2.4145,-2.3111,-2.2563,-2.1627,-2.0749,0.0,-1.9031,0.0,0.0,0.0,0.0,0.0,0.0,0.0,0.0,-2.2734,-2.248,-2.2715,-2.5723,-2.7285,-2.6445,-2.7051,-2.8144,-2.9726,-2.9941,-3.0273,-3.1133,-3.1894,-3.2363,-3.2363,-3.2969,-3.3379,-3.3301,-3.3476,-3.3555,-3.3574,-3.3633,-3.3594,-3.3672,-3.3437,-3.3242,-3.3516,-3.3457,-3.3203,-3.3242,-3.3301,-3.3301,-3.334,-3.3262,-3.3379,-3.3289,-3.3315,-3.334,-3.334,-3.3281,-3.332,-3.3379,-3.334,-3.3125,-3.248,-3.2832,-3.2773,-3.1601,-3.1777,-3.2305,-3.706,-3.7636,-3.7147,-3.7757,-3.895,-3.795,-3.7623,-3.7661,-3.6099,-3.5062,-3.4447,-3.4937,-3.524,-3.5301,-3.4457,-3.4108,-3.428,-3.4319,-3.4289,-3.4263,-3.4963,-3.5254,-3.5209,-3.519,-3.5117,-3.4983,-3.4961,-3.4541,-3.3738,-3.3738,-3.2993,-3.1522,-3.1479,-3.0609,-2.8989,0.0,0.0,0.0,-2.8664,-2.9171,-2.9317,-2.8713,-2.829,-2.8136,-2.8249,0.0,-2.7137,-2.6813,-2.6333,-2.5707,-2.5357,0.0,0.0,0.0,0.0,0.0,0.0,0.0,0.0,0.0,0.0,0.0,-2.3776,-2.3472,-2.4102,-2.4648,-2.5566,-2.6973,-2.8184,-2.9141,-2.9844,-3.0059,-3.0586,-3.1562,-3.1699,-3.2031,-3.2832,-3.3066,-3.3164,-3.3184,-3.332,-3.3398,-3.3516,-3.3984,-3.4434,-3.4512,-3.5059,-3.5469,-3.5469,-3.4297,-3.3711,-3.4238,-3.3945,-3.3457,-3.3379,-3.3457,-3.3555,-3.3379,-3.3379,-3.3437,-3.3496,-3.3469,-3.3429,-3.3457,-3.3379,-3.3437,-3.3437,-3.3379,-3.3457,-3.3184,-3.332,-3.3105,-3.2187,-3.2598,-3.3164,-3.8257,-3.8623,-3.8604,-3.9084,0.0,-3.9411,-3.9238,-3.9104,-3.745,-3.6488,-3.6098,-3.6084,-3.6325,-3.6603,-3.5302,-3.4908,-3.5258,-3.4423,-3.4225,-3.4592,-3.4649,-3.4843,-3.519,-3.519,-3.519,-3.519,-3.519,-3.4999,-3.4617,-3.4579,-3.3949,-3.2745,-3.2741,-3.2106,-3.092,-3.0554,-2.9759,-2.8492,-2.8963,-2.9398,-2.9805,-2.9447,-2.9038,-2.8656,-2.8709,0.0,0.0,0.0,0.0,0.0,0.0,0.0,0.0,0.0,0.0,-2.5629,-2.4848,-2.4575,-2.5024,-2.5453,-2.6253,-2.7503,-2.7626,-2.7261,-2.6406,-2.7519,-2.8633,-2.9512,-3.0605,-3.1328,-3.1523,-3.1894,-3.2305,-3.2734,-3.2793,-3.2988,-3.3359,-3.3789,-3.4043,-3.4101,-3.4414,-3.4687,-3.4687,-3.5019,-3.5332,-3.5371,-3.5703,-3.6016,-3.5937,-3.5273,-3.4902,-3.5273,-3.5019,-3.4687,-3.4668,-3.4687,-3.4668,-3.4687,-3.4687,-3.4687,-3.4687,-3.4685,-3.4682,-3.4702,-3.4686,-3.4687,-3.4687,-3.4687,-3.4551,-3.4199,-3.4394,-3.4375,-3.3652,-3.3769,-3.4043,-3.9373,-3.9546,-4.0081,-4.0354,-4.0489,-4.0489,-4.0489,-4.0392,-3.8892,0.0,0.0,-3.7238,-3.729,-3.7801,-3.6251,-3.5818,-3.6224,-3.4875,-3.4499,-3.4942,-3.4298,-3.4432,-3.519,-3.5037,-3.5057,-3.519,-3.519,-3.5226,-3.5242,-3.5242,-3.4913,-3.4316,-3.4274,-3.3876,-3.313,-3.239,-3.1311,-2.994,-2.9495,-2.9629,-3.0313,-3.0214,-2.9858,-2.9188,-2.9181,-2.8882,-2.8237,-2.7579,-2.7208,-2.7203,-2.6542,-2.623,-2.6369,-2.639,-2.6761,-2.7583,-2.7678,-2.7993,-2.8693,-2.9396,-2.9884,-3.0023,-3.0694,-3.0504,-2.9062,-3.0332,-3.123,-3.1348,-3.2695,-3.3242,-3.248,-3.2988,-3.3476,-3.3594,-3.3613,-3.3672,-3.3887,-3.4473,-3.4922,-3.5019,-3.5508,-3.5996,-3.5937,-3.5937,-3.6016,-3.5996,-3.5976,-3.6016,-3.6016,-3.5937,-3.5859,-3.5898,-3.5801,-3.5918,-3.5976,-3.5918,-3.6016,-3.5859,-3.5918,-3.6016,-3.6016,-3.6016,-3.6016,-3.587,-3.6012,-3.5937,-3.5976,-3.5879,-3.5762,-3.5059,-3.5469,-3.5801,-3.5137,-3.4922,-3.4941,-3.9681,-4.0277,-3.97,-3.9854,-4.0489,-4.0489,-4.0489,-4.0412,-3.9508,-3.8715,-3.7983,-3.7873,-3.7877,-3.7939,-3.6944,-3.6142,-3.5552,-3.5262,-3.4795,-3.4182,-3.4056,-3.4442,-3.5152,-3.4499,-3.4538,-3.5171,-3.519,-3.5258,-3.535,-3.5364,-3.5345,-3.5271,-3.5284,-3.4886,-3.4096,-3.3326,-3.2804,-3.2493,-3.035,-2.9264,-2.937,-2.878,-2.8404,-2.8293,-2.8361,-2.8349,-2.8293,-2.8198,-2.8123,-2.8123,-2.8006,-2.8262,-2.8986,-2.9006,-2.9416,-3.0177,-3.0274,-3.0333,-3.0431,-3.0567,-3.0958,-3.166,-3.1877,-3.1809,-3.1621,-3.2051,-3.2559,-3.3008,-3.375,-3.3926,-3.334,-3.3379,-3.3789,-3.4394,-3.4512,-3.4785,-3.5449,-3.5664,-3.5762,-3.5762,-3.5898,-3.5976,-3.5996,-3.5976,-3.5918,-3.5976,-3.5781,-3.5918,-3.584,-3.6016,-3.6016,-3.6016,-3.6016,-3.6016,-3.5918,-3.5996,-3.5898,-3.6016,-3.5898,-3.5801,-3.5781,-3.5781,-3.5781,-3.5957,-3.582,-3.5898,-3.5937,-3.6016,-3.5879,-3.5684,-3.5918,-3.5898,-3.5723,-3.5723,-3.5742,-4.0162,-4.0446,-4.0085,-4.0142,-4.0489,-4.0489,-4.0489,-4.0469,-4.0104,-3.9738,-3.9388,-3.9354,-3.9354,-3.9277,-3.8439,-3.7563,-3.6727,-3.5795,-3.5113,-3.4661,-3.3785,-3.4037,-3.5159,-3.4434,-3.4515,-3.5331,-3.5369,-3.5397,-3.5457,-3.5496,-3.5526,-3.5562,-3.5596,-3.5186,-3.4383,-3.4032,-3.3646,-3.3187,-3.1566,-3.0722,-3.0707,-2.9953,-2.9566,-2.9576,-2.9575,-2.963,-2.9669,-2.9667,-2.9667,-2.9647,-2.9667,-2.9843,-3.0216,-3.0255,-3.0411,-3.0762,-3.0801,-3.0801,-3.0801,-3.1231,-3.1875,-3.2734,-3.2812,-3.3014,-3.3475,-3.3515,-3.3496,-3.3457,-3.4473,-3.4922,-3.4219,-3.4531,-3.4961,-3.5371,-3.541,-3.5566,-3.5898,-3.6016,-3.6016,-3.5957,-3.5586,-3.5488,-3.5937,-3.5586,-3.5293,-3.5273,-3.4961,-3.4648,-3.4648,-3.4629,-3.498,-3.5781,-3.6016,-3.5762,-3.541,-3.5293,-3.5117,-3.4687,-3.4609,-3.459,-3.459,-3.4609,-3.4609,-3.4609,-3.4629,-3.4805,-3.5156,-3.5273,-3.5469,-3.5957,-3.6016,-3.6016,-3.6016,-3.6016,-3.6016,-4.0489,-4.0489,-4.0489,-4.0489,-4.0489,-4.0489,-4.0489,-4.0489,-4.0489,-4.0489,-4.0489,-4.0489,-4.0489,-4.0431,-3.9784,-3.8923,-3.7867,-3.6599,-3.5792,-3.5254,-3.3838,-3.3983,-3.522,-3.4385,-3.4438,-3.5394,-3.533,-3.5338,-3.5538,-3.5618,-3.563,-3.5669,-3.5716,-3.5394,-3.477,-3.4778,-3.4501,-3.3866,-3.3037,-3.2505,-3.2272,-3.169,-3.1378,-3.1383,-3.1198,-3.1184,-3.1348,-3.1016,-3.0899,-3.1075,-3.0919,-3.0801,-3.0801,-3.0997,-3.1094,-3.1114,-3.127,-3.1385,-3.1424,-3.2012,-3.2773,-3.3612,-3.369,-3.4049,-3.4859,-3.4804,-3.4492,-3.4219,-3.5215,-3.5684,-3.5195,-3.5547,-3.6016,-3.6016,-3.6016,-3.5976,-3.6016,-3.6016,-3.6016,-3.5918,-3.5391,-3.5293,-3.5684,-3.543,-3.5098,-3.5,-3.4394,-3.4004,-3.3984,-3.3984,-3.4629,-3.543,-3.5703,-3.5137,-3.4512,-3.4394,-3.4141,-3.3457,-3.3457,-3.3672,-3.375,-3.3652,-3.3594,-3.3809,-3.3828,-3.4141,-3.4609,-3.4941,-3.5312,-3.5898,-3.6016,-3.6016,-3.6016,-3.6016,-3.6016,-4.0489,-4.0489,-4.0489,-4.0489,-4.0489,-4.0489,-4.0489,-4.0489,-4.0489,-4.0489,-4.0508,-4.0489,-4.0504,-4.0489,-4.0408,-3.9543,-3.817,-3.7932,-3.7054,-3.5669,-3.4633,-3.4681,-3.5379,-3.3967,-3.4035,-3.5334,-3.4855,-3.5011,-3.5721,-3.5715,-3.5749,-3.5866,-3.5872,-3.5813,-3.5752,-3.5752,-3.5702,-3.5655,-3.4796,-3.3981,-3.3225,-3.3108,-3.3102,-3.3158,-3.2385,-3.2374,-3.2968,-3.1641,-3.1192,-3.1836,-3.125,-3.0821,-3.0899,-3.1541,-3.199,-3.1992,-3.2695,-3.3163,-3.3163,-3.3222,-3.3651,-3.4471,-3.4569,-3.4945,-3.5776,-3.5859,-3.582,-3.582,-3.5918,-3.5996,-3.5898,-3.6035,-3.6191,-3.625,-3.6191,-3.6016,-3.6133,-3.6016,-3.6016,-3.6016,-3.6016,-3.5937,-3.6133,-3.5996,-3.5879,-3.5879,-3.5605,-3.541,-3.5449,-3.5469,-3.5508,-3.5625,-3.4805,-3.3906,-3.3691,-3.3555,-3.3613,-3.3457,-3.3359,-3.3594,-3.3906,-3.3828,-3.3613,-3.4199,-3.459,-3.4668,-3.498,-3.5293,-3.5898,-3.6269,-3.6309,-3.6113,-3.6035,-3.6172,-3.623,-4.0489,-4.0489,-4.0489,-4.0489,-4.0489,-4.0489,-4.0489,-4.0504,-4.0593,-4.0617,-4.0631,-4.0668,-4.0653,-4.0633,-4.0653,-4.0037,-3.8975,-3.8442,-3.7599,-3.6395,-3.5027,-3.4827,-3.5535,-3.4506,-3.4601,-3.5674,-3.5425,-3.5449,-3.5801,-3.5827,-3.5855,-3.5927,-3.5912,-3.5884,-3.5885,-3.588,-3.5895,-3.5892,-3.5536,-3.5204,-3.4823,-3.3875,-3.3368,-3.3356,-3.3044,-3.3015,-3.328,-3.2673,-3.2517,-3.2814,-3.2541,-3.2343,-3.2343,-3.2673,-3.2868,-3.289,-3.3202,-3.3632,-3.4139,-3.4178,-3.4549,-3.5408,-3.5467,-3.5843,-3.6654,-3.6776,-3.6964,-3.7344,-3.7064,-3.6777,-3.6816,-3.7226,-3.7519,-3.7539,-3.7539,-3.7519,-3.7539,-3.7519,-3.7539,-3.75,-3.707,-3.6992,-3.7324,-3.7035,-3.6754,-3.6618,-3.6317,-3.5994,-3.5916,-3.5877,-3.5877,-3.5818,-3.5233,-3.4688,-3.4277,-3.418,-3.3965,-3.3496,-3.2988,-3.3008,-3.3769,-3.3711,-3.3672,-3.459,-3.5137,-3.5664,-3.625,-3.6445,-3.6855,-3.7129,-3.7519,-3.7539,-3.7539,-3.7539,-3.7539,-4.0489,-4.0489,-4.0489,-4.05,-4.0564,-4.0564,-4.0559,-4.0596,-4.0687,-4.0713,-4.0739,-4.081,-4.0824,-4.0782,-4.0799,-4.0382,-3.9591,-3.8727,-3.7879,-3.698,-3.5521,-3.5196,-3.5733,-3.4971,-3.5032,-3.577,-3.565,-3.5666,-3.5866,-3.5923,-3.5962,-3.5971,-3.5952,-3.5932,-3.5913,-3.5932,-3.5932,-3.5913,-3.5913,-3.5952,-3.5815,-3.4771,-3.4124,-3.4085,-3.388,-3.3846,-3.4103,-3.3668,-3.3532,-3.3729,-3.3534,-3.3378,-3.3395,-3.361,-3.3849,-3.4088,-3.4111,-3.4388,-3.5013,-3.5052,-3.5423,-3.6204,-3.6321,-3.6696,-3.7422,-3.7617,-3.7861,-3.8285,-3.8156,-3.793,-3.7686,-3.8174,-3.8531,-3.8555,-3.8594,-3.8574,-3.8555,-3.8588,-3.8516,-3.8505,-3.791,-3.7803,-3.828,-3.7946,-3.7518,-3.7444,-3.6998,-3.6514,-3.6514,-3.6573,-3.6573,-3.6514,-3.6514,-3.608,-3.5252,-3.498,-3.4638,-3.4297,-3.373,-3.3789,-3.415,-3.4277,-3.4394,-3.5664,-3.6074,-3.6406,-3.6855,-3.7246,-3.7793,-3.834,-3.8613,-3.8613,-3.8379,-3.8555,-3.8691,-4.0489,-4.0504,-4.0504,-4.0574,-4.0694,-4.0694,-4.0734,-4.0752,-4.0781,-4.0801,-4.082,-4.0933,-4.0983,-4.0957,-4.0855,-4.0416,-3.9676,-3.8864,-3.8107,-3.7367,-3.6375,-3.5946,-3.5929,-3.5132,-3.5171,-3.5874,-3.5314,-3.5284,-3.5869,-3.5962,-3.601,-3.601,-3.5991,-3.5991,-3.601,-3.5991,-3.5991,-3.5991,-3.5991,-3.5991,-3.601,-3.5893,-3.5776,-3.5678,-3.5073,-3.4995,-3.5522,-3.4273,-3.3802,-3.4605,-3.3941,-3.347,-3.3512,-3.4215,-3.4988,-3.5662,-3.5839,-3.5876,-3.5915,-3.5994,-3.6325,-3.6988,-3.7161,-3.7524,-3.8316,-3.8407,-3.8466,-3.8475,-3.918,-3.9209,-3.8592,-3.865,-3.8692,-3.8685,-3.8613,-3.8672,-3.8691,-3.8799,-3.8543,-3.8623,-3.8591,-3.8585,-3.8546,-3.8394,-3.8458,-3.844,-3.833,-3.8276,-3.8268,-3.8276,-3.8276,-3.8257,-3.8152,-3.7732,-3.6222,-3.5988,-3.5911,-3.5638,-3.5618,-3.5755,-3.6183,-3.6484,-3.6563,-3.679,-3.7305,-3.7578,-3.7539,-3.7871,-3.8516,-3.8945,-3.9004,-3.8984,-3.9258,-3.8809,-3.9004,-4.0649,-4.0696,-4.0696,-4.0718,-4.077,-4.0751,-4.0771,-4.0791,-4.089,-4.0941,-4.0943,-4.1025,-4.1058,-4.1069,-4.1018,-4.0857,-4.0539,-3.97,-3.9142,-3.8726,-3.7477,-3.6833,-3.6755,-3.5935,-3.5681,-3.5893,-3.5695,-3.5672,-3.5926,-3.5971,-3.601,-3.601,-3.601,-3.601,-3.601,-3.601,-3.601,-3.601,-3.601,-3.601,-3.601,-3.601,-3.601,-3.5991,-3.5718,-3.5678,-3.5991,-3.5386,-3.521,-3.5522,-3.521,-3.5066,-3.5097,-3.5351,-3.5644,-3.5995,-3.648,-3.6772,-3.683,-3.7297,-3.7684,-3.7909,-3.8011,-3.8376,-3.9065,-3.9259,-3.9429,-3.9907,-4.0211,-4.0258,-4.0089,-4.0004,-4.0073,-4.0104,-4.0095,-4.0036,-4.0125,-4.011,-4.0102,-4.0103,-4.0079,-4.0052,-3.9936,-4.0026,-4.0004,-4.0004,-3.9966,-3.9888,-3.9908,-3.9927,-3.985,-3.9927,-3.9908,-3.9739,-3.9254,-3.8035,-3.7443,-3.7288,-3.721,-3.7191,-3.7453,-3.7725,-3.7844,-3.8475,-3.8911,-3.9238,-3.9336,-3.9453,-3.9941,-4.0,-4.0019,-3.9883,-4.0293,-3.9902,-4.0137,-4.0759,-4.0801,-4.081,-4.0809,-4.0855,-4.0855,-4.0871,-4.0901,-4.0986,-4.1039,-4.1039,-4.1085,-4.1108,-4.1108,-4.1108,-4.1108,-4.0991,-4.021,-3.98,-3.9663,-3.8375,-3.7711,-3.7575,-3.6833,-3.6401,-3.6381,-3.6108,-3.601,-3.601,-3.601,-3.601,-3.601,-3.601,-3.601,-3.601,-3.601,-3.601,-3.601,-3.601,-3.601,-3.603,-3.6284,-3.6264,-3.615,-3.6509,-3.6528,-3.6072,-3.601,-3.601,-3.603,-3.6225,-3.652,-3.6762,-3.6802,-3.6804,-3.6862,-3.7304,-3.7611,-3.7643,-3.8131,-3.8549,-3.8756,-3.8819,-3.9167,-3.9943,-4.0059,-4.0358,-4.0732,-4.0868,-4.0848,-4.0829,-4.0861,-4.0938,-4.0951,-4.0956,-4.0971,-4.098,-4.0952,-4.0908,-4.0858,-4.0803,-4.088,-4.0958,-4.088,-4.081,-4.0848,-4.0829,-4.081,-4.079,-4.079,-4.079,-4.079,-4.0694,-4.0636,-4.0324,-3.9472,-3.9073,-3.8907,-3.8733,-3.8697,-3.8665,-3.8916,-3.925,-3.999,-4.0513,-4.0925,-4.1133,-4.1191,-4.1191,-4.1191,-4.0976,-4.0684,-4.0918,-4.1074,-4.1016,-4.081,-4.0809,-4.081,-4.089,-4.0968,-4.0994,-4.1047,-4.1078,-4.1104,-4.1101,-4.1097,-4.1108,-4.1108,-4.1108,-4.1108,-4.1108,-4.0952,-4.0288,-3.9937,-3.9839,-3.9019,-3.859,-3.8551,-3.7711,-3.7243,-3.7145,-3.642,-3.603,-3.601,-3.601,-3.601,-3.601,-3.601,-3.601,-3.601,-3.601,-3.601,-3.6013,-3.6016,-3.6035,-3.613,-3.6819,-3.6877,-3.6411,-3.7556,-3.7616,-3.6211,-3.6169,-3.6231,-3.6255,-3.6841,-3.7598,-3.8166,-3.8287,-3.8401,-3.83,-3.8449,-3.8468,-3.8422,-3.8532,-3.9031,-3.9449,-3.9549,-3.9878,-4.0488,-4.0684,-4.0732,-4.079,-4.079,-4.079,-4.079,-4.081,-4.0829,-4.0887,-4.0916,-4.0916,-4.0963,-4.0938,-4.088,-4.0829,-4.081,-4.081,-4.081,-4.081,-4.081,-4.081,-4.079,-4.079,-4.079,-4.079,-4.079,-4.079,-4.0616,-4.0462,-4.0616,-4.0732,-4.0636,-4.0551,-4.0377,-4.0236,-4.0043,-4.014,-4.0101,-4.0626,-4.0682,-4.1035,-4.1113,-4.1152,-4.1191,-4.1191,-4.1191,-4.1191,-4.1191,-4.1191,-4.1191,-4.0968,-4.1008,-4.1008,-4.1037,-4.107,-4.1051,-4.1078,-4.1108,-4.1108,-4.1108,-4.1108,-4.1108,-4.1108,-4.1108,-4.1108,-4.1108,-4.1069,-4.0795,-4.0698,-4.0542,-3.98,-3.9429,-3.9273,-3.859,-3.7887,-3.736,-3.7028,-3.656,-3.6108,-3.603,-3.601,-3.601,-3.601,-3.601,-3.601,-3.601,-3.601,-3.6016,-3.6013,-3.6269,-3.6833,-3.7109,-3.7363,-3.7753,-3.824,-3.8201,-3.7753,-3.7727,-3.7732,-3.7697,-3.7946,-3.8218,-3.8466,-3.8511,-3.8522,-3.8555,-3.9052,-3.9337,-3.9381,-3.9777,-4.013,-4.0373,-4.0391,-4.0494,-4.075,-4.0815,-4.079,-4.079,-4.079,-4.079,-4.079,-4.079,-4.081,-4.0829,-4.0829,-4.0848,-4.0868,-4.0848,-4.081,-4.081,-4.079,-4.079,-4.079,-4.079,-4.079,-4.0732,-4.0732,-4.0732,-4.0771,-4.0694,-4.079,-4.079,-4.0404,-4.0068,-4.0094,-3.9997,-3.9843,-4.0055,-4.0307,-4.0694,-4.0752,-4.079,-4.0829,-4.0796,-4.0862,-4.0937,-4.1016,-4.1133,-4.1172,-4.1191,-4.1191,-4.1191,-4.1191,-4.1191,-4.1191,-4.1066,-4.1108,-4.1108,-4.1108,-4.1108,-4.1108,-4.1108,-4.1108,-4.1108,-4.1108,-4.1108,-4.1108,-4.1108,-4.1108,-4.1108,-4.1108,-4.1108,-4.1108,-4.1108,-4.1049,-4.0581,-4.0288,-4.0171,-3.9429,-3.8609,-3.7926,-3.7789,-3.7321,-3.6521,-3.6462,-3.6323,-3.6069,-3.601,-3.601,-3.601,-3.6013,-3.6016,-3.6031,-3.6308,-3.6696,-3.7264,-3.7848,-3.8274,-3.8565,-3.9127,-3.9264,-3.9016,-3.9236,-3.9127,-3.8711,-3.8754,-3.9064,-3.9369,-3.9427,-3.9395,-3.9485,-3.9821,-4.0127,-4.0187,-4.0529,-4.0839,-4.0804,-4.0792,-4.08,-4.0803,-4.079,-4.079,-4.079,-4.079,-4.079,-4.079,-4.079,-4.079,-4.079,-4.079,-4.079,-4.079,-4.079,-4.079,-4.079,-4.079,-4.079,-4.079,-4.079,-4.0636,-4.0442,-4.0307,-4.0307,-4.0307,-4.0288,-4.0442,-4.0578,-4.0532,-4.0106,-3.9584,-3.9262,-3.8934,-3.9262,-3.9688,-4.0268,-4.0655,-4.0752,-4.079,-4.0532,-4.049,-4.0539,-4.0605,-4.0996,-4.1152,-4.1172,-4.1191,-4.1191,-4.1191,-4.1191,-4.1191,-4.1108,-4.1108,-4.1108,-4.1108,-4.1108,-4.1108,-4.1108,-4.1108,-4.1108,-4.1108,-4.1108,-4.1108,-4.1108,-4.1108,-4.1108,-4.1108,-4.1108,-4.1108,-4.1108,-4.1108,-4.0991,-4.0971,-4.0834,-4.021,-3.9449,-3.8765,-3.8668,-3.8121,-3.7184,-3.7165,-3.6852,-3.6088,-3.6016,-3.6013,-3.6013,-3.601,-3.601,-3.6109,-3.6747,-3.7175,-3.7413,-3.8834,-3.9457,-3.8868,-4.0098,-4.0528,-3.9998,-4.0369,-4.013,-3.9,-3.9435,-4.0072,-4.0743,-4.0927,-4.0722,-4.0664,-4.0869,-4.0781,-4.0789,-4.0768,-4.0804,-4.0796,-4.0803,-4.079,-4.079,-4.079,-4.0887,-4.0965,-4.0868,-4.0848,-4.0906,-4.0965,-4.0965,-4.0887,-4.0868,-4.079,-4.0694,-4.0713,-4.0694,-4.0616,-4.0674,-4.0752,-4.0694,-4.0655,-4.0133,-3.9823,-3.9545,-3.9437,-3.9661,-3.9835,-4.0048,-4.0203,-4.0346,-3.992,-3.934,-3.8528,-3.8334,-3.9108,-3.9359,-3.9649,-4.0249,-4.0404,-4.0442,-4.0203,-3.9925,-4.0024,-4.0273,-4.0605,-4.0976,-4.1152,-4.1172,-4.1191,-4.1191,-4.1191,-4.1191,-4.1108,-4.1108,-4.1108,-4.1108,-4.1108,-4.1108,-4.1108,-4.1108,-4.1108,-4.1108,-4.1108,-4.1108,-4.1108,-4.1108,-4.1108,-4.1108,-4.1108,-4.1108,-4.1108,-4.1108,-4.1108,-4.1108,-4.1088,-4.0873,-4.0307,-3.9585,-3.939,-3.8726,-3.7399,-3.7304,-3.6852,-3.6052,-3.6007,-3.6007,-3.6016,-3.5994,-3.6015,-3.6111,-3.6811,-3.7546,-3.8206,-3.917,-3.9961,-4.0422,-4.0746,-4.0838,-4.0602,-4.0799,-4.08,-4.037,-4.0427,-4.0655,-4.0893,-4.0907,-4.0878,-4.0898,-4.0868,-4.0828,-4.0807,-4.0812,-4.0796,-4.0803,-4.079,-4.079,-4.079,-4.079,-4.1081,-4.1371,-4.1216,-4.11,-4.1545,-4.1661,-4.1661,-4.1622,-4.1119,-4.0539,-4.0133,-4.0377,-4.05,-3.9765,-3.9765,-4.0152,-4.0346,-3.9785,-3.9146,-3.9204,-3.8953,-3.876,-3.9108,-3.9243,-3.9379,-3.9804,-3.992,-3.9533,-3.8953,-3.8063,-3.7967,-3.8934,-3.9108,-3.8876,-3.9398,-3.9727,-3.9739,-3.9642,-3.9197,-3.914,-3.9621,-4.0059,-4.0488,-4.0801,-4.0703,-4.0547,-4.1035,-4.1191,-4.1191,-4.1108,-4.1108,-4.1108,-4.1108,-4.1108,-4.1108,-4.1108,-4.1108,-4.1108,-4.1108,-4.1108,-4.1108,-4.1108,-4.1108,-4.1108,-4.1108,-4.1108,-4.1108,-4.1108,-4.1108,-4.1108,-4.1108,-4.1108,-4.1088,-4.0834,-4.0366,-3.9956,-3.9064,-3.7956,-3.747,-3.6808,-3.6149,-3.6015,-3.6015,-3.5994,-3.5954,-3.5973,-3.6163,-3.7053,-3.7988,-3.8472,-3.9629,-4.0357,-4.0885,-4.0917,-4.0876,-4.0863,-4.0837,-4.0873,-4.0878,-4.0868,-4.0843,-4.0854,-4.0862,-4.0837,-4.0837,-4.0823,-4.0812,-4.08,-4.0796,-4.079,-4.079,-4.079,-4.079,-4.0887,-4.1074,-4.1577,-4.1816,-4.1822,-4.2112,-4.2338,-4.2241,-4.1874,-4.1448,-4.1061,-4.0442,-3.9591,-3.9932,-3.992,-3.9495,-3.9417,-3.9661,-4.0203,-3.8992,-3.845,-3.8257,-3.7928,-3.8199,-3.8644,-3.8663,-3.8992,-3.963,-3.9572,-3.9108,-3.905,-3.8411,-3.7967,-3.8818,-3.9011,-3.8702,-3.8721,-3.9088,-3.8972,-3.8856,-3.847,-3.8457,-3.9083,-3.9519,-3.9629,-3.9805,-3.9805,-4.0254,-4.084,-4.1191,-4.1191,-4.1108,-4.1108,-4.1108,-4.1108,-4.1108,-4.1108,-4.1108,-4.1108,-4.1108,-4.1108,-4.1108,-4.1108,-4.1108,-4.1108,-4.1108,-4.1108,-4.1108,-4.1108,-4.1108,-4.1108,-4.1108,-4.1108,-4.1088,-4.0873,-4.0901,-4.0767,-4.0137,-3.9248,-3.8337,-3.7636,-3.6836,-3.619,-3.5992,-3.5991,-3.5954,-3.5912,-3.5887,-3.6214,-3.7491,-3.8222,-3.8673,-3.9857,-4.0743,-4.084,-4.0878,-4.0859,-4.0829,-4.0812,-4.0854,-4.09,-4.0829,-4.0803,-4.079,-4.0803,-4.0803,-4.0803,-4.0803,-4.0803,-4.0803,-4.0803,-4.079,-4.079,-4.079,-4.0868,-4.1061,-4.1557,-4.206,-4.257,-4.293,-4.3143,-4.3291,-4.2705,-4.2202,-4.1719,-4.1293,-4.0435,-3.9874,-3.9642,-3.9565,-3.9301,-3.9262,-3.9371,-3.91,-3.8578,-3.7793,-3.7657,-3.7464,-3.8005,-3.8257,-3.8237,-3.8972,-4.0017,-3.9553,-3.8702,-3.8779,-3.8837,-3.8586,-3.8702,-3.8837,-3.8682,-3.8373,-3.847,-3.8257,-3.8083,-3.8063,-3.8307,-3.8817,-3.9046,-3.9019,-3.959,-4.0098,-4.0527,-4.0937,-4.1113,-4.1191,-4.1108,-4.1108,-4.1108,-4.1108,-4.1108,-4.1108,-4.1108,-4.1108,-4.1108,-4.1108,-4.1108,-4.1108,-4.1108,-4.1108,-4.1108,-4.1108,-4.1091,-4.1072,-4.1108,-4.1108,-4.1108,-4.1088,-4.0896,-4.0411,-4.0482,-4.0585,-3.951,-3.873,-3.8319,-3.7576,-3.6813,-3.6108,-3.5957,-3.5921,-3.5908,-3.5903,-3.5889,-3.6188,-3.7547,-3.8315,-3.8635,-3.9927,-4.0828,-4.0828,-4.0823,-4.082,-4.082,-4.0815,-4.081,-4.079,-4.079,-4.079,-4.079,-4.079,-4.079,-4.079,-4.079,-4.079,-4.079,-4.079,-4.079,-4.079,-4.0887,-4.1061,-4.1699,-4.1944,-4.2738,-4.3498,-4.3645,-4.3761,-4.4026,-4.3498,-4.3169,-4.2995,-4.1951,-4.0829,-4.0558,-4.0481,-3.9688,-3.8605,-3.8353,-3.8353,-3.7986,-3.7657,-3.7212,-3.7038,-3.7406,-3.7928,-3.8044,-3.8025,-3.8914,-4.0094,-3.9282,-3.8605,-3.9359,-3.9437,-3.9224,-3.8953,-3.8914,-3.8682,-3.8373,-3.8373,-3.8373,-3.8141,-3.7831,-3.8191,-3.8601,-3.8578,-3.8546,-3.9492,-4.0312,-4.0605,-4.084,-4.1035,-4.1191,-4.1108,-4.1108,-4.1108,-4.1108,-4.1108,-4.1108,-4.1108,-4.1108,-4.1108,-4.1108,-4.1108,-4.1108,-4.1108,-4.1108,-4.1108,-4.1108,-4.0994,-4.0631,-4.0242,-4.0047,-4.0179,-4.026,-3.9843,-3.9628,-3.9758,-4.0598,-3.9334,-3.859,-3.8212,-3.7287,-3.6348,-3.6004,-3.5927,-3.5908,-3.5884,-3.589,-3.5883,-3.6156,-3.7472,-3.8336,-3.8569,-3.9904,-4.08,-4.08,-4.0796,-4.079,-4.0803,-4.079,-4.079,-4.079,-4.079,-4.079,-4.079,-4.079,-4.079,-4.079,-4.079,-4.079,-4.079,-4.079,-4.079,-4.0829,-4.11,-4.1525,-4.2183,-4.266,-4.355,-4.433,-4.451,-4.4587,-4.4581,-4.4291,-4.4156,-4.3692,-4.286,-4.1854,-4.1371,-4.0694,-3.9862,-3.8605,-3.8392,-3.845,-3.8121,-3.7425,-3.7309,-3.7444,-3.7793,-3.8276,-3.8624,-3.8682,-3.9108,-3.9591,-3.8837,-3.8721,-3.9765,-4.0055,-3.9862,-3.9553,-3.9282,-3.8837,-3.8373,-3.8528,-3.874,-3.8392,-3.8044,-3.7928,-3.8222,-3.8161,-3.838,-3.8945,-3.9648,-4.0254,-4.0781,-4.1074,-4.1191,-4.1108,-4.1108,-4.1108,-4.1108,-4.1108,-4.1108,-4.1108,-4.1108,-4.1108,-4.1108,-4.1108,-4.1108,-4.1108,-4.1108,-4.1108,-4.1072,-4.067,-3.9992,-3.9293,-3.8924,-3.9623,-3.9452,-3.896,-3.9013,-3.9505,-4.0609,-3.9051,-3.8302,-3.7819,-3.693,-3.6274,-3.5972,-3.5903,-3.5875,-3.5875,-3.5878,-3.5833,-3.6005,-3.7434,-3.831,-3.8556,-3.9879,-4.0745,-4.0803,-4.0803,-4.079,-4.079,-4.079,-4.079,-4.079,-4.079,-4.079,-4.079,-4.079,-4.079,-4.079,-4.079,-4.079,-4.079,-4.081,-4.0829,-4.0945,-4.1545,-4.2164,-4.2686,-4.3628,-4.4382,-4.4885,-4.5181,-4.5374,-4.4871,-4.4794,-4.4446,-4.3982,-4.3672,-4.315,-4.2357,-4.0984,-4.0346,-3.9321,-3.8605,-3.8295,-3.8199,-3.7773,-3.7812,-3.7928,-3.8295,-3.8624,-3.8992,-3.9224,-3.9533,-3.9611,-3.9011,-3.9166,-4.0152,-4.0462,-4.0288,-4.0133,-3.9777,-3.9398,-3.8876,-3.9262,-3.9456,-3.8682,-3.8334,-3.8373,-3.8504,-3.8762,-3.8902,-3.8823,-3.9434,-4.0527,-4.0976,-4.1172,-4.1191,-4.1108,-4.1108,-4.1108,-4.1108,-4.1108,-4.1108,-4.1108,-4.1108,-4.1108,-4.1108,-4.1108,-4.1108,-4.1108,-4.1088,-4.1088,-4.0706,-3.9877,-3.908,-3.8574,-3.8455,-3.9121,-3.9116,-3.86,-3.8989,-3.9613,-3.9443,-3.8506,-3.7765,-3.7566,-3.7063,-3.6487,-3.6035,-3.5892,-3.5879,-3.582,-3.5801,-3.5779,-3.5988,-3.7381,-3.823,-3.8605,-3.9816,-4.079,-4.079,-4.079,-4.079,-4.079,-4.079,-4.079,-4.079,-4.079,-4.079,-4.0771,-4.0771,-4.0732,-4.079,-4.079,-4.079,-4.0655,-4.0732,-4.1119,-4.1603,-4.1912,-4.2802,-4.3711,-4.4421,-4.4943,-4.5388,-4.5626,-4.5722,-4.5626,-4.5471,-4.5529,-4.52,-4.4717,-4.4272,-4.3885,-4.3034,-4.1603,-4.0152,-3.9069,-3.8295,-3.8431,-3.8431,-3.8353,-3.8682,-3.9243,-3.9379,-3.9533,-3.9591,-3.9642,-3.9623,-3.9449,-3.9881,-4.0558,-4.0655,-4.0636,-4.0597,-4.0404,-4.0404,-4.0133,-4.0384,-4.0191,-3.9127,-3.9004,-3.9313,-3.9417,-3.9402,-3.9626,-3.9721,-4.0351,-4.0976,-4.1074,-4.1152,-4.1172,-4.1108,-4.1108,-4.1108,-4.1108,-4.1108,-4.1108,-4.1108,-4.1108,-4.1108,-4.1108,-4.1108,-4.1108,-4.1108,-4.0991,-4.0561,-3.9752,-3.865,-3.8103,-3.759,-3.7485,-3.7985,-3.8307,-3.7952,-3.8717,-3.9057,-3.9065,-3.8603,-3.811,-3.7793,-3.7326,-3.6742,-3.6032,-3.585,-3.5818,-3.5767,-3.5764,-3.5727,-3.6093,-3.7309,-3.8264,-3.8388,-3.9927,-4.0694,-4.079,-4.079,-4.079,-4.079,-4.079,-4.079,-4.079,-4.079,-4.079,-4.0694,-4.0462,-4.0365,-4.0674,-4.0732,-4.0539,-4.0222,-4.0152,-4.0474,-4.1255,-4.1738,-4.2821,-4.4175,-4.4949,-4.5369,-4.5645,-4.58,-4.58,-4.5761,-4.58,-4.58,-4.5742,-4.5413,-4.5045,-4.4659,-4.4214,-4.2821,-4.1139,-4.0384,-3.9804,-3.9352,-3.9274,-3.8992,-3.9398,-4.0113,-4.0288,-4.0268,-4.0172,-4.0164,-4.0029,-4.001,-4.023,-4.0674,-4.0732,-4.079,-4.079,-4.079,-4.079,-4.079,-4.0771,-4.0133,-3.9166,-3.9429,-3.9932,-3.9708,-3.949,-4.0038,-4.054,-4.0742,-4.0937,-4.1035,-4.1094,-4.1136,-4.1108,-4.1108,-4.1108,-4.1108,-4.1108,-4.1108,-4.1108,-4.1108,-4.1108,-4.1108,-4.1108,-4.1111,-4.1114,-4.0823,-3.9932,-3.8726,-3.7305,-3.7131,-3.659,-3.6399,-3.6947,-3.7219,-3.7194,-3.7714,-3.8234,-3.8273,-3.8507,-3.8914,-3.8311,-3.7739,-3.6911,-3.6265,-3.5976,-3.5754,-3.5706,-3.5717,-3.5708,-3.62,-3.7309,-3.8245,-3.9025,-4.0004,-4.079,-4.079,-4.079,-4.079,-4.079,-4.079,-4.079,-4.079,-4.079,-4.079,-4.0674,-4.0133,-4.0017,-4.0404,-4.0365,-3.9881,-3.9514,-3.9545,-4.0106,-4.1197,-4.1854,-4.3131,-4.4427,-4.5374,-4.5761,-4.58,-4.58,-4.58,-4.58,-4.58,-4.58,-4.58,-4.5742,-4.5587,-4.5162,-4.4697,-4.4194,-4.2918,-4.199,-4.1003,-4.0222,-4.0455,-4.0249,-4.0307,-4.1003,-4.1622,-4.1545,-4.11,-4.0965,-4.0732,-4.0636,-4.0636,-4.0771,-4.0771,-4.079,-4.079,-4.079,-4.079,-4.079,-4.079,-4.0094,-3.9591,-3.9777,-4.0157,-3.9854,-3.976,-4.0276,-4.066,-4.0793,-4.0906,-4.1011,-4.1038,-4.1071,-4.1108,-4.1108,-4.1108,-4.1108,-4.1108,-4.1108,-4.1108,-4.1108,-4.1108,-4.1108,-4.1111,-4.1091,-4.1082,-4.0605,-3.9355,-3.8176,-3.7207,-3.6492,-3.6103,-3.6041,-3.6679,-3.6771,-3.6376,-3.6955,-3.7507,-3.7634,-3.7642,-3.7844,-3.8121,-3.8108,-3.7549,-3.6726,-3.598,-3.5699,-3.5718,-3.5707,-3.5695,-3.6013,-3.7406,-3.8953,-4.0152,-4.0636,-4.0771,-4.079,-4.079,-4.079,-4.079,-4.079,-4.079,-4.079,-4.079,-4.079,-4.0771,-4.0752,-4.021,-3.9649,-3.9011,-3.8489,-3.8566,-3.9108,-4.0075,-4.1351,-4.2396,-4.3904,-4.5045,-4.5606,-4.58,-4.58,-4.58,-4.58,-4.58,-4.58,-4.58,-4.58,-4.578,-4.578,-4.5568,-4.5297,-4.4775,-4.4413,-4.3421,-4.1803,-4.0565,-4.1139,-4.1564,-4.1661,-4.1854,-4.2454,-4.2609,-4.2009,-4.1545,-4.1255,-4.0848,-4.079,-4.079,-4.079,-4.079,-4.079,-4.079,-4.079,-4.079,-4.079,-4.079,-4.0442,-4.05,-4.0339,-4.0072,-4.0161,-4.0587,-4.0765,-4.0858,-4.0915,-4.0974,-4.0998,-4.0994,-4.1108,-4.1108,-4.1108,-4.1108,-4.1108,-4.1108,-4.1108,-4.1108,-4.1108,-4.1116,-4.1101,-4.1094,-4.0604,-3.9632,-3.8726,-3.7731,-3.6645,-3.6083,-3.5909,-3.5894,-3.6298,-3.6518,-3.6752,-3.7038,-3.7319,-3.7599,-3.7816,-3.8061,-3.816,-3.7714,-3.7114,-3.6385,-3.592,-3.5716,-3.5704,-3.5704,-3.6005,-3.6721,-3.8063,-3.9533,-4.0481,-4.079,-4.079,-4.079,-4.079,-4.079,-4.079,-4.079,-4.079,-4.079,-4.079,-4.079,-4.0655,-4.0365,-3.9823,-3.9545,-3.8702,-3.8276,-3.8334,-3.903,-4.0094,-4.1119,-4.2222,-4.344,-4.5142,-4.58,-4.58,-4.58,-4.58,-4.58,-4.58,-4.58,-4.58,-4.58,-4.58,-4.58,-4.58,-4.5761,-4.5471,-4.5181,-4.478,-4.3253,-4.2015,-4.2318,-4.2725,-4.2647,-4.2705,-4.3015,-4.2918,-4.2338,-4.1932,-4.1641,-4.1197,-4.079,-4.079,-4.079,-4.079,-4.079,-4.079,-4.079,-4.079,-4.079,-4.079,-4.079,-4.0694,-4.0513,-4.03,-4.0416,-4.0718,-4.0822,-4.09,-4.0906,-4.0906,-4.0938,-4.1199,-4.1108,-4.1108,-4.1108,-4.1108,-4.1108,-4.1108,-4.1108,-4.1111,-4.1116,-4.1103,-4.1032,-4.0818,-3.9799,-3.8493,-3.8068,-3.7297,-3.5966,-3.5885,-3.5894,-3.5889,-3.5967,-3.6279,-3.6507,-3.6851,-3.7072,-3.7739,-3.7286,-3.7375,-3.7279,-3.7026,-3.6424,-3.5974,-3.585,-3.5723,-3.5704,-3.5781,-3.6091,-3.7328,-3.867,-3.985,-4.0616,-4.079,-4.079,-4.079,-4.079,-4.079,-4.079,-4.079,-4.079,-4.079,-4.079,-4.079,-4.0713,-4.0365,-3.9862,-3.9623,-3.9108,-3.8934,-3.8914,-3.9224,-3.9913,-4.0848,-4.2164,-4.3827,-4.5336,-4.58,-4.58,-4.58,-4.58,-4.58,-4.58,-4.58,-4.58,-4.58,-4.58,-4.58,-4.58,-4.578,-4.5761,-4.5548,-4.5258,-4.5065,-4.4156,-4.3962,-4.3885,-4.3692,-4.3692,-4.375,-4.3324,-4.2802,-4.226,-4.1932,-4.1235,-4.0829,-4.079,-4.079,-4.079,-4.079,-4.079,-4.079,-4.079,-4.079,-4.079,-4.079,-4.079,-4.0713,-4.0539,-4.0674,-4.081,-4.0829,-4.0848,-4.0829,-4.0829,-4.0926,-4.1487,-4.1108,-4.1108,-4.1111,-4.1111,-4.1108,-4.1108,-4.1108,-4.1114,-4.1107,-4.1072,-4.0859,-4.0244,-3.9041,-3.7712,-3.7375,-3.6893,-3.5894,-3.5889,-3.5889,-3.5889,-3.5908,-3.5981,-3.6138,-3.6117,-3.6032,-3.6112,-3.6269,-3.6203,-3.5977,-3.6209,-3.6276,-3.6632,-3.6091,-3.582,-3.5927,-3.6237,-3.6942,-3.8052,-3.9199,-3.9985,-4.0578,-4.079,-4.079,-4.079,-4.079,-4.079,-4.079,-4.079,-4.079,-4.079,-4.079,-4.079,-4.0732,-4.0616,-4.021,-3.9894,-4.0075,-3.9862,-3.9669,-3.9591,-4.0017,-4.1216,-4.2725,-4.4388,-4.5626,-4.58,-4.58,-4.58,-4.58,-4.58,-4.58,-4.58,-4.58,-4.58,-4.58,-4.58,-4.58,-4.58,-4.578,-4.5761,-4.5606,-4.5413,-4.5355,-4.4968,-4.4736,-4.4543,-4.4678,-4.4717,-4.4059,-4.3479,-4.2686,-4.2086,-4.1274,-4.0868,-4.081,-4.079,-4.079,-4.079,-4.079,-4.079,-4.079,-4.079,-4.079,-4.079,-4.079,-4.079,-4.079,-4.079,-4.079,-4.079,-4.081,-4.0868,-4.1255,-4.1583,-4.2222,-4.1108,-4.1111,-4.1101,-4.1101,-4.1108,-4.1108,-4.1116,-4.1105,-4.111,-4.0762,-4.0291,-3.9868,-3.8848,-3.759,-3.7155,-3.6727,-3.5986,-3.5889,-3.5897,-3.5897,-3.5897,-3.5885,-3.5838,-3.5793,-3.5786,-3.5718,-3.5708,-3.5698,-3.5753,-3.5704,-3.582,-3.6052,-3.6265,-3.6469,-3.6624,-3.7196,-3.821,-3.8844,-3.9753,-4.052,-4.0636,-4.079,-4.079,-4.079,-4.079,-4.079,-4.079,-4.079,-4.079,-4.079,-4.079,-4.079,-4.079,-4.079,-4.0597,-4.03,-4.0655,-4.0539,-4.0397,-4.0358,-4.0906,-4.2164,-4.3343,-4.4388,-4.5606,-4.58,-4.58,-4.58,-4.58,-4.58,-4.58,-4.58,-4.58,-4.58,-4.58,-4.58,-4.58,-4.58,-4.58,-4.578,-4.578,-4.5703,-4.5703,-4.5703,-4.5529,-4.5413,-4.5568,-4.551,-4.4697,-4.3866,-4.2995,-4.2144,-4.1313,-4.0887,-4.081,-4.079,-4.079,-4.079,-4.079,-4.079,-4.079,-4.079,-4.079,-4.079,-4.079,-4.079,-4.079,-4.079,-4.079,-4.079,-4.0887,-4.1023,-4.1525,-4.2222,-4.2976,-4.1114,-4.1099,-4.1108,-4.1107,-4.1099,-4.1103,-4.111,-4.1113,-4.1113,-4.0619,-3.98,-3.9516,-3.8636,-3.7473,-3.6844,-3.6532,-3.6006,-3.5897,-3.5885,-3.5872,-3.5846,-3.5826,-3.5782,-3.5757,-3.5745,-3.5715,-3.5716,-3.5697,-3.5704,-3.5704,-3.5762,-3.5994,-3.6439,-3.6671,-3.6845,-3.8164,-3.91,-3.9328,-4.0198,-4.0771,-4.079,-4.079,-4.079,-4.079,-4.079,-4.079,-4.079,-4.079,-4.079,-4.079,-4.079,-4.079,-4.079,-4.079,-4.079,-4.079,-4.079,-4.079,-4.0829,-4.1197,-4.1777,-4.2899,-4.3576,-4.4523,-4.5355,-4.58,-4.58,-4.58,-4.58,-4.58,-4.58,-4.58,-4.58,-4.58,-4.58,-4.58,-4.58,-4.58,-4.58,-4.58,-4.58,-4.58,-4.58,-4.58,-4.5742,-4.5626,-4.5684,-4.5452,-4.4697,-4.3866,-4.2995,-4.2144,-4.1332,-4.1023,-4.079,-4.079,-4.079,-4.079,-4.079,-4.079,-4.079,-4.081,-4.081,-4.079,-4.079,-4.079,-4.0829,-4.0848,-4.0829,-4.079,-4.1042,-4.139,-4.2318,-4.3053,-4.3653,-4.1101,-4.1111,-4.1112,-4.1112,-4.1112,-4.1112,-4.1108,-4.1087,-4.1013,-4.0496,-3.9602,-3.8889,-3.8032,-3.7077,-3.6376,-3.6064,-3.5955,-3.5898,-3.5878,-3.5845,-3.5772,-3.5702,-3.5706,-3.5718,-3.5723,-3.5704,-3.5715,-3.5695,-3.5704,-3.5704,-3.5704,-3.5916,-3.64,-3.6775,-3.6064,-3.7436,-3.8208,-3.8549,-4.012,-4.0636,-4.079,-4.079,-4.079,-4.079,-4.079,-4.079,-4.079,-4.079,-4.079,-4.079,-4.079,-4.079,-4.079,-4.079,-4.079,-4.079,-4.079,-4.079,-4.0829,-4.1525,-4.2318,-4.315,-4.373,-4.462,-4.549,-4.58,-4.58,-4.58,-4.58,-4.58,-4.58,-4.58,-4.58,-4.58,-4.58,-4.58,-4.58,-4.58,-4.58,-4.58,-4.58,-4.58,-4.58,-4.58,-4.58,-4.578,-4.58,-4.5374,-4.4678,-4.3866,-4.2995,-4.2144,-4.1351,-4.1003,-4.079,-4.079,-4.079,-4.079,-4.0848,-4.0887,-4.0887,-4.0887,-4.0868,-4.0868,-4.1042,-4.1255,-4.1081,-4.0906,-4.1371,-4.1874,-4.168,-4.2048,-4.3015,-4.3788,-4.4291,-4.1113,-4.1112,-4.1103,-4.1099,-4.1101,-4.1105,-4.1101,-4.1007,-4.0472,-3.9758,-3.8883,-3.8007,-3.7155,-3.6415,-3.6117,-3.5897,-3.5898,-3.5892,-3.5872,-3.5763,-3.5704,-3.5717,-3.5708,-3.5697,-3.5704,-3.5704,-3.5704,-3.5704,-3.5704,-3.5704,-3.5704,-3.5897,-3.6547,-3.7398,-3.8094,-3.8965,-3.9267,-3.9901,-4.0578,-4.079,-4.079,-4.079,-4.079,-4.079,-4.079,-4.079,-4.079,-4.0771,-4.079,-4.0771,-4.0771,-4.079,-4.079,-4.079,-4.079,-4.079,-4.079,-4.079,-4.0984,-4.1545,-4.2376,-4.3092,-4.3711,-4.4523,-4.551,-4.578,-4.58,-4.58,-4.58,-4.58,-4.58,-4.58,-4.58,-4.58,-4.58,-4.58,-4.58,-4.58,-4.58,-4.58,-4.58,-4.58,-4.58,-4.58,-4.58,-4.58,-4.58,-4.5374,-4.4697,-4.3866,-4.2995,-4.2144,-4.1409,-4.1023,-4.079,-4.079,-4.079,-4.079,-4.0926,-4.11,-4.1081,-4.0965,-4.1467,-4.1738,-4.1738,-4.1719,-4.1854,-4.2086,-4.2763,-4.3131,-4.2744,-4.2705,-4.3479,-4.4175,-4.4697,-4.0832,-4.1097,-4.1101,-4.1105,-4.11,-4.1097,-4.1113,-4.0994,-4.0479,-3.976,-3.8916,-3.8065,-3.7214,-3.6532,-3.6033,-3.5891,-3.5878,-3.585,-3.5807,-3.5708,-3.5718,-3.5708,-3.5706,-3.5704,-3.5704,-3.5704,-3.5704,-3.5704,-3.5704,-3.5704,-3.5897,-3.6245,-3.6651,-3.7785,-3.881,-3.946,-3.9635,-4.0133,-4.0481,-4.079,-4.079,-4.079,-4.079,-4.079,-4.079,-4.0771,-4.0732,-4.0732,-4.0752,-4.0732,-4.0752,-4.079,-4.079,-4.079,-4.079,-4.079,-4.079,-4.079,-4.0984,-4.1139,-4.2028,-4.3169,-4.3479,-4.4388,-4.5471,-4.578,-4.58,-4.58,-4.58,-4.58,-4.58,-4.58,-4.58,-4.58,-4.58,-4.58,-4.58,-4.58,-4.58,-4.58,-4.58,-4.58,-4.58,-4.58,-4.58,-4.58,-4.58,-4.5278,-4.4775,-4.3982,-4.315,-4.228,-4.1603,-4.1255,-4.0965,-4.079,-4.079,-4.079,-4.0926,-4.11,-4.1061,-4.0965,-4.1796,-4.2473,-4.2222,-4.2222,-4.2879,-4.3343,-4.3537,-4.3614,-4.3479,-4.3634,-4.4059,-4.4562,-4.5142,-4.0277,-4.0957,-4.1074,-4.1052,-4.1039,-4.0967,-4.1019,-4.1091,-4.1013,-4.05,-3.9721,-3.8688,-3.7734,-3.7046,-3.6262,-3.5898,-3.5857,-3.5773,-3.5737,-3.5708,-3.5707,-3.5706,-3.5715,-3.5704,-3.5704,-3.5704,-3.5704,-3.5704,-3.5704,-3.5704,-3.6071,-3.6709,-3.7007,-3.8102,-3.903,-3.9688,-3.9823,-4.0191,-4.05,-4.0752,-4.079,-4.0759,-4.0746,-4.0746,-4.072,-4.0616,-4.0591,-4.0629,-4.0604,-4.061,-4.0655,-4.0732,-4.0771,-4.079,-4.079,-4.079,-4.079,-4.079,-4.0848,-4.1003,-4.1874,-4.315,-4.402,-4.4904,-4.549,-4.58,-4.58,-4.58,-4.58,-4.58,-4.58,-4.58,-4.58,-4.58,-4.58,-4.58,-4.58,-4.58,-4.58,-4.58,-4.58,-4.58,-4.58,-4.58,-4.58,-4.58,-4.5761,-4.5548,-4.5007,-4.433,-4.3479,-4.2531,-4.1932,-4.1525,-4.1255,-4.1042,-4.1061,-4.1158,-4.0868,-4.0926,-4.0887,-4.1158,-4.1893,-4.2396,-4.2376,-4.2763,-4.3788,-4.3982,-4.375,-4.3866,-4.4233,-4.4272,-4.4601,-4.5104,-4.5606,-3.9585,-3.9379,-4.0563,-4.0752,-4.0234,-4.0175,-4.0526,-4.0994,-4.0487,-3.9974,-3.9721,-3.8227,-3.7488,-3.707,-3.6261,-3.592,-3.5782,-3.5737,-3.5728,-3.5697,-3.5695,-3.5704,-3.5704,-3.5704,-3.5704,-3.5704,-3.5704,-3.5704,-3.5704,-3.5704,-3.611,-3.6806,-3.7414,-3.8431,-3.9301,-4.0101,-4.0256,-4.0398,-4.063,-4.0707,-4.0733,-4.0654,-4.064,-4.0588,-4.0526,-4.0424,-4.041,-4.043,-4.0408,-4.0403,-4.0514,-4.0597,-4.0578,-4.0713,-4.079,-4.079,-4.079,-4.081,-4.0906,-4.1332,-4.2106,-4.3111,-4.404,-4.4929,-4.5529,-4.58,-4.58,-4.58,-4.58,-4.58,-4.58,-4.58,-4.58,-4.58,-4.58,-4.58,-4.58,-4.58,-4.58,-4.58,-4.58,-4.58,-4.58,-4.58,-4.58,-4.58,-4.5742,-4.5587,-4.5336,-4.4697,-4.402,-4.3092,-4.2415,-4.2067,-4.1622,-4.1351,-4.1448,-4.1467,-4.1216,-4.11,-4.1351,-4.168,-4.2144,-4.2744,-4.344,-4.4194,-4.5045,-4.4949,-4.4562,-4.4949,-4.5297,-4.5162,-4.5162,-4.5548,-4.58,-3.8675,-3.8675,-3.9591,-3.9766,-3.9396,-3.9649,-3.998,-4.0039,-3.9864,-3.9507,-3.8721,-3.8046,-3.7313,-3.6579,-3.6098,-3.5826,-3.5745,-3.5718,-3.5716,-3.5706,-3.5704,-3.5704,-3.5704,-3.5704,-3.5704,-3.5704,-3.5704,-3.5704,-3.5704,-3.5781,-3.611,-3.6922,-3.7765,-3.8624,-3.9444,-4.0159,-4.0571,-4.0607,-4.0656,-4.0651,-4.0583,-4.0481,-4.045,-4.0412,-4.0314,-4.027,-4.0222,-4.0233,-4.0253,-4.0249,-4.0354,-4.0433,-4.0433,-4.053,-4.064,-4.064,-4.0668,-4.0733,-4.0855,-4.1139,-4.2106,-4.3053,-4.3846,-4.4639,-4.5355,-4.58,-4.58,-4.58,-4.58,-4.58,-4.58,-4.58,-4.58,-4.58,-4.58,-4.58,-4.58,-4.58,-4.58,-4.58,-4.58,-4.58,-4.58,-4.58,-4.58,-4.58,-4.58,-4.5742,-4.5587,-4.5258,-4.4678,-4.3943,-4.3247,-4.2667,-4.2241,-4.1912,-4.2028,-4.2009,-4.1641,-4.1622,-4.1854,-4.2125,-4.2512,-4.3672,-4.4987,-4.5432,-4.5606,-4.5684,-4.5548,-4.58,-4.58,-4.5587,-4.5452,-4.5587,-4.578,-3.7623,-3.8227,-3.8383,-3.8519,-3.8597,-3.9221,-3.9104,-3.8539,-3.9162,-3.8766,-3.7741,-3.8046,-3.7422,-3.6469,-3.5986,-3.5829,-3.5766,-3.5727,-3.5706,-3.5704,-3.5704,-3.5704,-3.5704,-3.5704,-3.5704,-3.5704,-3.5704,-3.5704,-3.5704,-3.5762,-3.6052,-3.6845,-3.7544,-3.8319,-3.9057,-3.985,-4.024,-4.0454,-4.0436,-4.0415,-4.0372,-4.0298,-4.0264,-4.0264,-4.0226,-4.0189,-4.0136,-4.0157,-4.0214,-4.0171,-4.0311,-4.0435,-4.0545,-4.0396,-4.0466,-4.0511,-4.0593,-4.0687,-4.0952,-4.1313,-4.2106,-4.2899,-4.3479,-4.4523,-4.5413,-4.58,-4.58,-4.58,-4.58,-4.58,-4.58,-4.58,-4.58,-4.58,-4.58,-4.58,-4.58,-4.58,-4.58,-4.58,-4.58,-4.58,-4.58,-4.58,-4.58,-4.58,-4.58,-4.58,-4.5742,-4.5587,-4.5142,-4.4562,-4.373,-4.3111,-4.3053,-4.2783,-4.2763,-4.2609,-4.228,-4.2164,-4.2396,-4.2628,-4.286,-4.4059,-4.5239,-4.5568,-4.578,-4.58,-4.58,-4.58,-4.58,-4.58,-4.578,-4.5761,-4.5761,-3.6941,-3.659,-3.7233,-3.7876,-3.8383,-3.8013,-3.774,-3.7525,-3.772,-3.7948,-3.8059,-3.7675,-3.7267,-3.6654,-3.6001,-3.5765,-3.5737,-3.5736,-3.5715,-3.5704,-3.5704,-3.5704,-3.5704,-3.5704,-3.5704,-3.5704,-3.5704,-3.5693,-3.5673,-3.5712,-3.5709,-3.5951,-3.6772,-3.7646,-3.8375,-3.9116,-3.9611,-4.0176,-4.0099,-4.0177,-4.0267,-4.0176,-4.0158,-4.012,-4.0062,-4.0021,-3.9979,-4.0013,-4.0025,-4.003,-4.0777,-4.1127,-4.13,-4.0722,-4.0489,-4.0511,-4.0593,-4.0687,-4.1036,-4.1648,-4.2609,-4.3421,-4.4194,-4.5065,-4.5664,-4.5761,-4.58,-4.58,-4.58,-4.58,-4.58,-4.58,-4.58,-4.58,-4.58,-4.58,-4.58,-4.58,-4.58,-4.58,-4.58,-4.58,-4.58,-4.58,-4.58,-4.58,-4.58,-4.58,-4.58,-4.5684,-4.5374,-4.4775,-4.3924,-4.344,-4.3518,-4.3672,-4.3653,-4.3537,-4.3285,-4.3131,-4.2995,-4.3343,-4.375,-4.4369,-4.5162,-4.5548,-4.58,-4.58,-4.58,-4.58,-4.58,-4.58,-4.58,-4.578,-4.58,-3.6337,-3.6025,-3.6844,-3.7233,-3.7311,-3.7233,-3.6999,-3.6668,-3.6629,-3.6877,-3.7338,-3.7176,-3.6949,-3.6615,-3.5957,-3.5747,-3.5697,-3.5715,-3.5704,-3.5704,-3.5704,-3.5704,-3.5704,-3.5704,-3.5704,-3.5704,-3.5639,-3.5608,-3.5608,-3.5528,-3.5495,-3.5545,-3.6267,-3.7025,-3.7693,-3.8328,-3.8991,-4.0046,-3.97,-3.977,-4.0024,-4.0041,-4.0,-3.9958,-3.9935,-3.9889,-4.006,-4.0135,-4.0211,-4.0097,-4.0404,-4.0577,-4.0623,-4.0348,-4.0269,-4.0317,-4.0434,-4.0593,-4.1079,-4.1892,-4.2982,-4.3692,-4.4407,-4.5084,-4.5703,-4.58,-4.58,-4.58,-4.58,-4.58,-4.58,-4.58,-4.58,-4.58,-4.58,-4.58,-4.58,-4.58,-4.58,-4.58,-4.58,-4.58,-4.58,-4.58,-4.58,-4.58,-4.58,-4.58,-4.58,-4.58,-4.5471,-4.5162,-4.4427,-4.4059,-4.4156,-4.4388,-4.4581,-4.4446,-4.4214,-4.404,-4.3904,-4.4253,-4.4659,-4.5084,-4.5394,-4.5626,-4.58,-4.58,-4.58,-4.58,-4.58,-4.58,-4.58,-4.58,-4.58,-3.5908,-3.6006,-3.6707,-3.6604,-3.6078,-3.6682,-3.6598,-3.5994,-3.5917,-3.5936,-3.6086,-3.6657,-3.6425,-3.6054,-3.5747,-3.5728,-3.5708,-3.5706,-3.5704,-3.5704,-3.5704,-3.5704,-3.5704,-3.5704,-3.5704,-3.5662,-3.5565,-3.554,-3.5528,-3.5416,-3.5383,-3.5454,-3.6025,-3.6803,-3.7343,-3.7643,-3.8042,-3.8942,-3.9153,-3.9186,-3.9491,-3.9873,-3.9892,-3.9892,-3.9889,-3.9889,-4.0135,-4.0325,-4.0457,-4.028,-4.0012,-4.0268,-4.0312,-4.0247,-4.0137,-4.0177,-4.03,-4.0531,-4.0973,-4.1832,-4.2723,-4.3518,-4.4253,-4.4968,-4.5645,-4.58,-4.58,-4.58,-4.58,-4.58,-4.58,-4.58,-4.58,-4.58,-4.58,-4.58,-4.58,-4.58,-4.58,-4.58,-4.58,-4.58,-4.58,-4.58,-4.58,-4.58,-4.58,-4.58,-4.58,-4.58,-4.5664,-4.5568,-4.5278,-4.5026,-4.4891,-4.4949,-4.5181,-4.5104,-4.4871,-4.4794,-4.4794,-4.4987,-4.52,-4.551,-4.578,-4.58,-4.58,-4.58,-4.58,-4.58,-4.58,-4.58,-4.58,-4.58,-4.58,-3.5889,-3.5928,-3.6084,-3.6053,-3.5931,-3.6106,-3.6008,-3.5862,-3.5823,-3.5811,-3.5857,-3.5849,-3.5825,-3.5736,-3.5718,-3.5708,-3.5716,-3.5704,-3.5704,-3.5704,-3.5704,-3.5704,-3.5673,-3.5631,-3.5693,-3.562,-3.5528,-3.5515,-3.5416,-3.5311,-3.5235,-3.5212,-3.519,-3.5806,-3.6406,-3.6725,-3.7116,-3.8092,-3.8774,-3.8902,-3.9153,-3.9494,-3.9832,-3.9889,-3.9889,-3.9889,-3.9965,-4.0041,-4.0027,-3.9943,-3.9932,-4.0227,-4.0331,-4.0243,-4.0117,-4.0081,-4.0212,-4.0619,-4.1174,-4.217,-4.3062,-4.3924,-4.4697,-4.5413,-4.58,-4.58,-4.58,-4.58,-4.58,-4.58,-4.58,-4.58,-4.58,-4.58,-4.58,-4.58,-4.58,-4.58,-4.58,-4.58,-4.58,-4.58,-4.58,-4.58,-4.58,-4.58,-4.58,-4.58,-4.58,-4.58,-4.58,-4.58,-4.58,-4.58,-4.5587,-4.5452,-4.5568,-4.5529,-4.549,-4.5336,-4.5336,-4.5548,-4.5761,-4.58,-4.58,-4.58,-4.58,-4.58,-4.58,-4.58,-4.58,-4.58,-4.58,-4.58,-4.58]}]]